GFSCGP_250_spd_000.txt.gz
Wind_Speed
58 46 49 50 48 51 54 53 54 59 58 56 59 61 62 63 66 64 64 67 65 60 58 59 60 54 50 48 47 35 28 25 21 19 26 24 20 20 24 25 19 18 15 11
45 42 47 45 43 40 49 56 58 60 63 59 61 63 64 64 65 65 62 58 56 53 55 57 52 45 44 43 40 28 23 18 12 13 19 18 23 20 25 25 17 20 20 18
42 46 40 37 36 38 43 45 51 54 55 51 58 60 61 60 57 59 55 55 52 52 52 52 40 39 38 38 32 20 19 12 6 8 12 17 12 13 23 24 19 21 23 26
43 45 41 41 42 37 37 37 38 43 43 43 40 43 52 56 57 56 53 52 48 48 46 36 32 34 35 33 24 16 15 8 2 3 6 10 14 13 19 25 21 22 25 24
43 43 42 43 43 41 40 38 34 37 36 37 40 38 40 42 43 47 46 45 42 39 32 27 28 29 30 26 18 13 13 5 7 4 6 6 16 17 26 25 30 31 31 29
35 41 42 42 45 46 42 38 35 33 35 37 39 36 32 38 35 35 34 34 32 21 21 20 22 27 26 20 14 9 11 5 10 9 5 8 12 14 26 25 29 33 33 36
29 35 33 36 42 44 44 43 38 30 34 32 33 30 30 34 30 26 25 24 14 11 12 18 20 23 22 16 9 8 10 6 9 9 2 10 11 21 24 27 26 34 34 38
35 34 38 36 37 37 38 39 34 31 27 26 29 28 29 27 27 20 16 9 7 9 8 17 19 20 19 12 5 7 10 9 10 13 7 19 20 17 21 25 28 33 27 32
40 37 43 33 37 38 37 34 35 28 23 24 24 23 29 27 23 18 11 5 6 6 9 15 17 16 15 8 2 6 10 12 9 17 13 20 17 21 19 25 23 25 32 31
43 41 45 39 31 36 38 38 34 27 23 24 28 27 30 27 22 16 12 8 8 6 8 11 15 12 11 7 2 6 10 11 12 9 21 16 16 13 15 23 19 31 30 31
48 44 48 41 33 33 32 37 35 31 27 25 25 29 27 24 19 15 13 11 12 5 5 9 13 8 8 7 5 5 11 9 13 10 21 20 17 16 17 23 20 18 20 27
53 49 43 46 35 33 37 34 37 36 29 23 24 23 24 24 21 17 12 12 14 8 4 4 9 6 3 5 7 5 10 12 9 13 19 24 21 18 23 25 20 22 19 25
58 51 45 41 37 39 40 34 43 36 24 20 25 22 22 22 26 17 16 13 13 11 5 1 5 3 2 2 3 7 9 12 8 12 14 28 21 19 23 22 28 21 25 21
65 56 47 44 47 41 36 36 41 33 22 19 26 21 26 24 25 27 18 17 16 10 9 4 3 1 3 2 1 9 8 10 10 9 13 22 26 19 20 22 23 22 22 16
70 56 52 47 48 41 37 37 40 33 25 17 25 25 26 21 23 18 21 20 16 11 12 7 4 3 3 2 4 5 10 11 12 10 11 19 21 22 22 23 18 17 17 17
71 62 56 48 49 47 40 36 39 33 28 22 23 28 24 17 24 23 21 20 19 14 8 9 6 5 4 3 4 6 11 13 13 13 11 11 15 23 16 16 21 24 22 19
73 64 60 52 53 50 26 43 42 33 31 31 21 29 16 23 27 22 24 21 19 10 6 7 6 4 5 6 5 6 9 13 14 13 14 12 12 12 13 14 16 18 20 24
76 70 65 59 57 42 33 45 41 36 32 35 26 27 19 24 27 26 27 25 25 17 10 7 8 7 5 7 9 8 8 10 12 12 15 16 15 13 13 12 13 15 16 17
78 77 70 65 57 45 37 43 44 42 38 40 34 30 29 21 23 30 25 26 28 19 15 12 13 10 9 8 10 11 10 9 10 11 11 13 18 16 14 12 12 11 12 13
84 81 76 67 55 35 41 45 49 47 37 41 33 29 34 27 22 35 26 22 29 19 18 14 13 15 11 11 10 10 12 11 10 11 10 11 12 16 17 16 16 16 17 18
88 85 78 67 58 46 46 50 46 41 39 49 43 39 31 32 35 39 31 34 31 23 23 18 17 14 15 14 13 11 10 11 11 11 10 11 12 13 14 14 13 12 12 14
90 87 80 68 58 49 48 49 40 40 50 55 48 42 29 30 38 41 33 31 37 34 27 25 22 17 15 16 15 15 10 11 13 13 12 11 11 12 15 14 14 14 13 13
94 90 80 70 60 58 56 51 47 52 57 58 50 42 39 26 38 46 36 30 29 31 33 27 24 18 15 17 19 17 15 14 11 11 10 12 14 14 14 16 18 19 18 17
94 92 85 75 65 64 58 54 51 54 66 56 51 46 40 37 41 41 39 33 30 31 28 29 28 25 19 19 23 19 18 19 17 13 11 12 13 15 17 18 19 19 17 19
96 92 86 81 71 66 58 52 46 59 64 57 56 47 40 36 38 45 42 28 34 32 36 34 32 33 29 26 22 23 23 21 20 16 15 16 14 14 16 21 22 20 20 20
90 87 85 70 66 66 61 53 51 68 68 65 57 50 40 38 42 45 45 43 38 32 38 40 38 35 32 33 24 20 24 25 23 19 18 18 18 16 15 15 15 17 18 21

GFSCGP_250_spd_003.txt.gz
Wind_Speed
83 82 81 75 68 52 49 50 48 47 50 51 51 51 61 59 62 65 66 70 68 65 58 57 54 52 50 45 40 41 36 34 23 17 20 24 28 22 26 26 25 16 15 10
77 63 54 41 40 39 39 39 42 44 46 44 48 50 55 60 64 57 59 64 60 58 56 50 46 43 42 37 35 37 28 28 16 15 19 26 18 17 20 24 22 22 19 17
39 44 39 40 41 41 41 41 38 36 36 38 38 43 49 51 48 45 45 46 47 47 43 39 36 32 35 32 31 30 23 20 11 13 18 22 20 8 11 16 20 23 21 20
34 39 34 35 38 37 38 38 37 36 36 36 34 36 41 40 40 43 45 42 40 35 29 28 24 29 28 28 28 24 19 13 6 8 11 15 20 13 10 10 15 18 20 22
34 32 30 32 35 35 36 33 35 36 37 36 36 32 38 39 40 40 36 37 31 23 22 18 20 22 25 25 23 20 15 6 1 4 9 11 15 11 9 11 13 20 22 22
33 34 30 32 34 34 33 35 33 31 35 38 38 31 38 35 36 31 28 29 22 14 13 15 18 18 23 22 18 17 12 4 6 4 5 10 12 14 13 14 23 23 25 22
35 35 31 31 31 34 33 36 36 35 34 32 32 32 34 32 28 22 27 25 17 8 10 13 15 17 19 19 11 13 10 3 10 13 3 11 12 15 12 19 28 29 27 27
40 39 42 35 34 35 35 37 36 38 36 32 31 31 35 31 24 23 26 24 12 8 8 11 14 15 16 16 8 9 7 2 9 12 14 9 10 12 14 23 32 30 36 33
44 41 49 36 35 33 33 35 36 36 37 31 33 32 32 32 27 26 26 23 10 8 8 10 12 12 12 11 4 5 4 0 8 14 18 15 13 13 14 25 29 31 31 38
45 42 51 41 33 33 35 34 36 33 32 31 33 34 30 29 28 22 21 19 12 9 9 8 10 9 10 9 3 3 2 0 7 18 20 14 15 19 15 22 24 27 33 27
51 48 50 44 35 36 32 34 37 34 32 32 31 32 27 25 23 13 15 16 13 8 8 7 8 7 9 7 3 1 2 1 4 21 19 18 15 15 18 20 19 31 33 31
56 54 50 49 39 35 36 41 36 35 33 31 30 29 25 22 17 10 15 13 16 12 8 7 9 6 8 4 5 3 1 3 3 18 26 18 17 15 12 17 9 21 29 26
62 56 52 49 39 40 46 39 35 35 29 28 27 26 26 18 15 11 13 11 15 12 11 5 9 5 7 4 3 6 2 4 4 13 25 22 20 18 21 17 22 23 23 19
70 62 51 47 50 49 45 39 36 36 31 26 28 28 24 21 12 12 14 16 17 16 14 5 9 7 6 5 3 8 5 3 6 6 24 27 25 23 23 21 21 22 20 17
71 62 57 54 55 53 45 40 39 35 35 25 29 26 22 25 13 11 11 16 21 14 10 9 8 8 6 4 5 4 9 6 8 8 14 28 23 21 23 20 24 25 24 20
72 64 60 58 57 54 47 40 30 39 35 28 28 32 21 23 16 6 10 19 19 14 8 10 8 8 7 5 4 5 9 10 10 12 14 18 22 20 20 18 18 24 25 16
73 67 65 59 59 58 36 39 42 42 32 30 27 34 25 23 19 8 13 19 19 16 13 10 7 6 7 7 5 4 7 13 11 13 16 18 17 18 21 20 21 18 16 15
79 74 69 65 63 48 43 46 45 42 34 34 26 33 29 25 21 9 11 20 20 18 18 12 12 7 6 6 8 6 6 10 13 11 12 15 17 19 20 16 20 20 22 22
83 78 73 68 62 51 45 48 47 45 42 35 27 31 31 27 24 18 14 16 22 24 23 17 13 10 6 7 7 10 8 7 10 12 15 14 14 12 12 12 14 15 15 17
88 82 79 70 64 51 48 51 51 48 40 36 33 32 31 31 29 25 22 18 18 25 27 20 16 15 11 9 9 9 12 12 11 10 11 18 18 16 15 14 14 13 15 16
94 89 82 73 66 56 54 52 51 47 41 47 39 35 32 34 41 36 24 22 22 21 30 22 21 19 16 14 12 9 10 15 15 14 12 12 14 19 19 18 17 18 19 19
98 95 86 76 68 58 55 53 48 48 50 48 43 35 31 40 42 42 31 27 26 26 33 26 22 22 19 16 14 13 9 13 17 17 16 14 13 14 15 16 16 16 16 17
99 92 84 78 65 62 59 57 57 52 52 52 45 36 32 40 42 40 39 34 31 32 34 32 24 23 24 20 19 15 12 15 13 16 17 17 16 14 15 15 15 16 15 15
97 94 90 84 70 65 63 61 59 57 54 56 49 41 34 44 45 39 38 41 39 31 31 32 33 29 28 24 21 18 18 17 16 12 12 14 17 19 19 18 17 19 20 20
103 99 93 84 74 70 67 64 61 57 55 56 52 48 44 42 52 55 44 35 37 36 32 31 33 33 33 28 22 20 19 19 17 15 14 14 15 15 17 20 20 21 22 21
104 100 96 84 79 73 68 65 63 58 56 56 54 50 49 46 48 57 54 41 40 39 35 35 36 37 35 34 32 24 24 25 21 18 15 15 16 16 16 15 16 17 18 20

GFSCGP_250_spd_006.txt.gz
Wind_Speed
73 71 71 75 72 75 75 77 66 58 45 42 42 45 51 54 52 51 54 56 59 62 56 56 54 49 42 36 30 33 30 28 28 18 16 13 12 21 26 26 21 18 11 8
74 73 78 73 74 75 71 57 43 41 42 42 40 42 43 43 44 45 43 45 46 49 52 47 45 38 29 25 27 29 23 24 22 15 20 18 15 15 18 23 25 21 17 13
75 79 74 74 71 64 51 45 38 39 39 38 38 42 41 40 42 44 45 44 45 47 41 40 34 25 22 22 27 24 18 20 16 11 19 20 18 17 10 16 21 18 21 18
75 74 70 61 49 47 38 34 33 31 32 32 36 38 33 36 41 41 40 39 39 35 33 31 24 18 18 23 24 21 16 13 9 8 12 14 14 21 15 12 16 19 20 21
59 58 47 39 43 31 27 25 28 28 28 28 28 31 35 36 37 34 33 29 31 28 29 25 17 15 17 22 20 16 14 11 7 5 6 13 11 13 16 14 17 17 17 18
42 42 35 35 27 25 23 24 28 29 31 27 31 30 31 31 31 32 27 31 27 27 26 20 13 12 18 20 18 12 11 6 9 4 7 12 16 13 15 15 16 14 10 13
44 38 30 29 24 25 22 25 30 32 33 34 32 32 32 29 28 29 26 29 29 27 23 17 10 14 18 18 16 10 9 4 7 6 6 8 13 20 20 19 21 27 17 13
37 33 36 31 23 26 21 27 31 31 33 36 34 32 32 27 26 26 28 29 27 20 20 9 11 14 16 15 13 8 7 2 9 8 10 11 12 16 23 29 30 35 23 17
42 38 40 27 28 23 22 25 28 29 33 36 37 35 32 24 24 25 29 29 15 17 17 7 11 14 14 13 11 5 5 2 10 12 12 13 20 21 22 29 27 34 34 23
43 44 43 38 25 25 26 27 28 30 33 31 39 39 33 24 22 22 27 20 11 13 13 7 10 13 13 12 10 5 4 2 10 17 14 11 20 24 25 26 25 28 31 34
52 50 47 42 30 34 30 28 31 32 32 31 40 42 32 28 21 22 24 20 6 9 9 7 9 11 12 12 9 4 5 2 9 18 13 13 18 22 22 25 23 26 26 29
57 58 50 50 41 34 32 34 34 34 31 35 38 42 32 28 20 22 23 20 4 8 12 10 8 11 12 11 11 5 4 2 4 22 18 17 12 20 22 21 23 27 24 22
67 56 56 54 38 37 38 40 35 34 34 36 38 41 28 29 21 22 26 19 5 7 14 13 12 9 11 12 12 6 4 3 3 21 22 20 14 12 16 24 16 20 19 19
74 68 58 51 51 50 42 42 34 34 35 37 41 41 29 29 24 16 19 17 5 11 14 10 15 8 8 10 11 8 5 3 4 11 24 22 21 15 15 19 23 19 17 19
79 70 63 60 59 53 49 45 39 35 40 38 39 40 36 29 26 16 21 20 10 11 10 9 11 7 5 8 9 8 8 6 4 4 25 25 24 18 19 15 19 17 13 13
82 73 70 67 64 58 54 47 37 37 44 41 37 43 36 28 24 16 19 21 12 9 10 11 9 8 5 7 7 6 5 7 4 5 18 25 24 24 24 23 18 20 16 12
84 79 74 67 66 66 59 44 42 43 45 42 37 43 35 29 25 19 17 18 11 12 14 10 9 12 6 5 6 5 3 6 5 5 8 23 20 18 24 20 22 22 21 18
84 81 77 72 76 70 52 50 46 45 43 40 41 39 37 29 25 21 18 17 12 12 15 14 11 10 11 4 6 5 2 4 8 6 9 13 18 18 18 18 19 20 18 21
88 84 80 80 72 63 58 53 50 47 48 48 41 39 37 32 27 29 19 21 17 14 16 16 12 11 9 6 6 8 6 4 8 11 8 10 16 18 19 22 18 21 22 22
92 87 82 79 67 60 60 55 55 51 47 47 46 42 38 31 26 31 21 22 21 19 18 20 18 16 15 13 11 9 11 9 8 10 11 13 13 13 16 19 19 21 20 19
94 91 85 75 68 64 63 56 56 52 48 51 50 43 37 36 37 26 27 26 23 22 19 21 22 18 19 18 13 12 13 14 12 12 12 12 18 15 15 13 12 14 15 16
97 92 85 77 72 68 63 58 56 56 52 57 53 47 41 41 37 29 25 27 28 27 22 24 26 23 20 18 15 15 14 17 16 16 16 14 14 17 21 19 17 16 16 17
103 96 88 80 72 69 66 62 60 58 57 59 55 50 44 42 40 32 26 28 31 30 27 25 24 26 24 21 16 16 17 18 18 19 18 18 16 16 16 18 19 19 19 20
104 98 94 84 77 72 71 69 65 61 59 61 58 52 50 45 39 33 28 28 32 31 32 27 28 32 28 24 22 18 19 20 19 17 20 21 20 19 18 18 18 17 18 19
107 100 95 90 83 79 73 70 68 66 64 66 61 58 52 47 40 32 31 30 34 32 34 35 30 32 36 32 24 22 22 20 18 19 18 19 20 19 21 22 22 22 24 23
109 106 100 91 90 83 78 75 72 69 66 66 64 60 55 49 44 38 34 32 38 36 32 35 31 36 32 36 30 26 26 24 21 20 19 19 19 18 18 18 18 20 22 22

GFSCGP_250_spd_009.txt.gz
Wind_Speed
76 68 63 69 71 65 63 64 64 68 70 72 73 64 61 56 52 50 48 45 44 45 48 50 50 53 52 47 38 28 25 28 21 15 16 17 19 16 19 25 25 23 17 9
67 65 70 71 70 68 64 64 63 64 66 64 57 53 50 46 48 48 44 39 41 45 45 46 48 45 43 35 27 22 24 23 16 11 17 17 22 20 16 21 23 23 18 11
74 69 72 68 67 62 62 64 64 63 62 51 47 40 34 37 41 42 42 40 41 41 42 40 38 38 35 26 20 21 22 15 12 8 13 15 21 22 18 14 18 21 22 17
69 70 72 68 67 68 65 64 62 60 47 36 31 31 30 31 33 32 34 36 33 36 34 36 36 32 27 19 19 20 15 12 9 6 11 11 14 17 17 15 15 13 19 21
68 70 69 70 71 72 66 55 48 37 30 29 28 26 29 32 32 28 27 26 30 32 30 34 31 27 19 16 19 19 13 10 4 3 7 11 6 11 11 15 18 13 13 17
73 75 73 68 61 53 46 36 31 28 27 26 25 23 30 32 32 24 24 26 26 29 30 32 25 22 16 17 17 15 9 9 2 5 5 10 11 14 20 21 14 9 13 19
60 62 65 52 42 36 34 29 25 25 23 25 25 28 29 31 31 27 27 25 26 25 28 26 21 17 15 17 16 11 7 5 7 5 5 12 17 17 23 25 25 16 11 9
45 40 33 37 33 37 29 27 24 23 22 26 24 32 28 32 32 32 32 29 23 21 24 20 18 15 15 16 15 8 5 5 7 7 10 12 20 23 24 22 24 25 12 13
42 37 42 35 37 31 27 21 23 24 24 28 29 30 31 34 33 35 32 26 22 20 23 16 14 14 15 15 13 6 5 5 7 12 12 13 19 18 21 25 29 26 15 16
46 48 43 43 33 24 22 25 23 27 26 29 30 32 33 35 34 34 32 24 20 20 18 12 12 12 15 13 12 6 5 5 7 13 15 16 17 20 20 19 30 29 17 17
56 50 45 42 26 28 26 24 28 25 29 30 31 35 30 34 35 36 33 25 21 20 17 11 9 11 15 12 11 6 6 5 5 18 17 21 20 18 17 19 24 29 27 19
54 53 53 38 40 34 26 24 30 29 32 31 35 32 30 30 35 35 34 27 20 15 11 12 11 12 14 10 9 6 4 5 3 18 17 22 17 12 12 23 20 26 29 30
64 51 52 46 32 26 24 34 34 34 32 31 33 34 32 30 34 32 32 24 19 19 11 10 10 12 15 9 8 8 1 5 4 20 19 24 18 11 17 20 20 15 23 29
75 61 55 40 40 47 43 41 41 31 32 33 34 36 30 29 33 32 32 25 20 21 17 9 10 10 12 9 8 8 3 2 5 4 21 19 15 14 14 20 21 16 17 21
77 68 55 49 53 48 45 40 39 36 36 34 39 39 33 33 31 32 31 26 21 22 20 10 9 9 10 8 8 7 6 0 4 3 25 22 18 16 17 19 19 14 14 17
80 72 64 62 61 54 51 47 44 40 37 40 42 43 33 33 33 32 30 29 22 20 19 12 12 10 9 10 7 7 6 1 2 4 14 26 22 16 15 15 18 12 8 13
83 75 73 66 65 61 57 47 48 45 42 45 43 48 35 33 30 31 28 30 23 18 19 14 15 11 9 14 7 5 6 1 2 4 1 25 25 24 18 17 20 16 9 9
85 82 80 73 72 76 49 55 52 47 46 46 45 47 38 34 31 34 26 30 26 17 17 15 17 12 9 11 9 5 4 2 3 2 2 15 24 24 22 25 21 23 17 17
90 89 85 81 78 74 64 59 55 51 50 50 48 48 41 36 32 35 28 27 25 21 19 17 19 15 12 11 11 7 5 3 4 5 3 5 15 16 16 19 15 24 22 19
96 96 92 89 88 75 67 66 62 57 52 53 50 50 45 38 38 34 29 26 27 25 20 22 20 18 13 13 13 12 8 7 5 7 10 8 7 13 16 17 19 18 20 19
99 96 94 91 90 76 74 70 65 59 54 55 52 54 45 41 40 33 32 26 28 27 25 20 23 22 23 15 14 13 12 10 10 9 9 10 13 10 9 13 15 18 17 20
101 96 94 92 91 81 77 74 64 64 59 56 56 55 47 48 39 35 34 31 27 28 29 25 20 21 23 21 16 13 14 13 11 13 12 11 11 15 16 15 13 13 13 14
106 103 97 94 88 83 80 77 69 65 62 59 60 55 50 48 40 38 35 34 31 26 27 26 21 22 26 25 20 16 14 13 14 12 15 15 15 13 14 16 20 19 17 16
109 107 105 100 94 90 86 79 69 65 64 60 60 55 53 50 43 40 38 38 34 30 28 25 25 25 25 24 22 19 20 15 15 15 14 17 17 17 16 15 15 16 17 18
110 113 107 103 99 96 87 79 71 68 66 60 61 59 56 53 47 43 42 40 37 34 29 27 26 27 27 25 23 21 23 21 16 16 16 15 18 19 20 20 19 18 18 18
119 115 111 106 103 95 85 77 72 69 66 65 64 62 60 56 51 46 44 41 39 35 32 27 27 27 27 26 25 28 30 25 22 20 21 18 17 17 17 18 19 21 22 22

GFSCGP_250_spd_012.txt.gz
Wind_Speed
61 52 50 59 65 67 67 69 71 70 64 69 71 72 69 64 67 58 49 50 51 46 42 44 46 44 42 43 43 38 32 28 25 16 13 10 14 18 20 20 18 19 23 15
62 56 68 69 67 67 64 64 69 67 63 67 73 66 62 60 53 44 45 44 41 38 38 41 39 38 38 41 35 30 26 26 19 6 9 14 19 24 23 20 17 14 16 18
62 70 70 68 69 72 72 67 61 60 63 64 67 68 54 43 40 41 41 44 39 36 33 35 35 35 38 34 28 24 24 24 14 3 5 11 15 20 20 20 20 16 18 19
70 76 72 69 70 67 62 63 63 59 62 67 68 59 41 34 36 38 37 36 38 32 33 36 35 36 34 28 22 23 23 18 11 3 7 4 9 14 16 20 22 18 18 22
71 72 73 71 61 64 60 63 62 61 62 65 60 35 32 26 28 30 29 29 32 33 33 33 34 33 27 21 21 21 21 13 5 4 5 10 14 16 18 24 23 19 18 22
72 69 68 67 65 65 66 66 62 62 63 49 35 30 26 25 25 28 28 27 31 30 31 31 30 26 20 18 21 20 17 11 2 2 6 13 12 15 16 19 23 20 14 17
70 70 70 72 71 71 68 63 60 56 41 32 30 25 20 27 28 33 31 30 25 26 29 26 25 19 16 18 20 18 13 10 4 5 15 14 15 16 18 22 22 14 11 16
71 69 62 59 57 53 54 50 37 34 32 29 24 18 19 26 31 32 33 32 27 26 25 23 23 15 14 18 18 14 10 6 7 10 16 19 14 12 17 23 24 11 13 17
61 53 54 51 43 41 32 25 34 30 29 23 19 18 19 25 28 32 34 33 25 24 26 24 19 13 13 17 16 11 7 2 8 11 20 15 15 11 17 20 24 12 14 18
52 50 47 43 41 35 27 30 29 28 27 18 18 18 20 26 27 29 32 33 27 25 24 24 17 11 13 18 14 8 3 3 10 12 22 20 14 12 17 15 20 13 11 12
55 52 45 43 29 29 28 28 30 30 21 21 17 20 22 23 26 29 33 35 30 27 23 22 15 11 13 18 12 8 1 5 12 15 24 21 21 13 11 19 20 13 8 13
56 52 52 36 36 37 38 35 32 23 22 20 18 23 22 23 25 30 32 34 32 26 25 23 18 11 11 16 10 8 2 5 12 14 20 21 14 15 16 12 18 15 12 17
61 61 55 50 44 42 36 34 28 24 23 21 24 24 20 24 25 28 28 33 34 27 26 27 21 11 12 12 8 7 2 3 10 19 22 17 14 16 16 12 12 20 13 16
72 64 52 48 43 40 35 31 30 31 26 25 26 28 23 22 25 28 29 29 33 31 25 26 18 10 12 13 9 7 4 1 6 20 23 20 17 18 20 16 7 13 18 12
77 68 50 49 50 46 45 44 36 31 27 21 31 29 26 25 25 27 28 28 31 33 26 24 20 15 11 12 12 8 6 2 5 15 26 22 16 16 22 16 13 12 15 20
83 68 58 54 52 47 44 42 40 36 29 31 34 29 28 27 28 24 28 28 30 32 27 22 21 16 12 12 12 10 8 1 4 6 26 23 18 21 21 17 13 6 11 18
84 70 67 57 56 51 45 45 39 37 36 34 33 34 29 28 32 30 28 27 29 30 29 21 22 20 17 15 10 10 8 4 1 4 14 27 21 17 22 19 16 8 6 14
80 72 73 63 63 57 45 44 43 42 41 35 36 35 34 30 30 34 27 28 27 30 29 30 21 23 21 17 13 10 8 7 1 2 7 23 24 20 14 12 19 15 10 7
80 75 82 71 66 61 53 50 52 47 43 39 42 39 38 31 30 34 29 28 27 26 28 29 25 21 21 20 15 9 9 7 4 1 4 14 25 21 21 18 18 18 17 12
84 81 83 80 75 66 56 56 56 51 47 44 45 42 41 34 33 37 30 29 29 24 26 29 29 20 21 20 20 14 8 8 5 2 2 4 13 17 17 19 20 17 19 16
91 88 90 85 82 76 66 65 61 55 49 51 48 46 46 37 39 34 32 34 30 27 23 26 29 26 20 20 21 22 14 8 7 5 3 4 7 9 13 13 15 17 15 16
94 94 93 88 86 81 71 71 65 61 58 54 50 48 49 40 42 37 36 35 30 28 25 23 25 26 22 20 17 20 18 13 7 7 6 5 5 8 9 8 10 13 14 14
99 100 94 90 87 81 76 76 78 69 65 62 56 54 49 48 44 40 41 36 31 29 26 23 24 26 25 21 16 18 18 16 13 7 8 8 7 7 7 10 12 12 12 11
100 100 101 97 92 85 78 77 79 72 70 68 61 58 56 53 48 45 44 39 34 31 28 25 24 24 27 24 19 17 17 17 15 14 9 10 9 9 8 9 9 9 12 15
115 109 95 93 93 89 88 84 80 73 71 70 67 63 62 58 52 47 44 41 36 33 31 26 25 24 24 24 21 20 19 20 17 17 15 13 12 10 10 11 11 11 10 12
110 106 101 97 97 96 88 83 78 67 56 76 70 66 64 61 54 50 45 43 39 38 33 29 27 26 25 24 19 20 22 19 24 19 19 19 16 16 13 10 10 9 9 12

GFSCGP_250_spd_015.txt.gz
Wind_Speed
69 64 61 65 65 63 59 49 45 57 62 62 68 70 67 65 68 68 79 79 60 51 51 53 49 46 38 40 40 43 41 30 27 27 17 13 15 16 19 23 23 23 24 24
70 58 57 59 60 56 50 49 57 58 60 58 64 65 66 62 66 71 76 59 53 53 55 49 42 41 40 37 40 40 32 26 27 20 12 10 16 19 24 24 26 19 20 21
61 57 63 56 58 57 54 55 61 61 65 68 71 65 61 63 65 66 50 43 44 50 50 40 37 38 36 35 37 30 25 26 23 15 11 10 11 16 15 20 21 21 16 19
54 55 59 58 60 66 67 69 64 63 65 66 65 54 57 58 62 51 38 30 37 45 41 36 35 34 33 33 30 23 25 24 16 8 8 8 5 10 17 19 22 18 16 14
56 66 60 56 59 59 66 69 69 68 67 62 59 55 61 59 52 33 26 27 33 37 35 33 31 30 30 28 21 23 25 20 11 7 2 2 6 16 18 22 22 17 17 19
61 65 58 65 70 69 70 70 68 70 66 59 65 56 62 55 34 28 20 25 30 29 28 25 26 27 28 19 20 23 22 13 11 6 4 5 9 16 23 27 20 17 19 17
67 66 67 68 69 68 68 69 65 57 55 59 63 58 57 33 27 21 19 25 27 26 24 23 24 24 21 17 20 21 18 10 10 5 10 10 12 17 23 27 17 16 19 13
69 64 63 65 64 64 70 69 64 59 60 66 62 41 25 25 17 18 22 25 26 25 22 22 22 22 15 17 20 21 15 10 4 8 13 7 10 17 18 21 14 13 13 14
70 66 67 67 66 66 63 60 56 62 62 52 32 20 24 12 13 18 23 27 28 20 20 20 23 18 14 18 20 20 13 9 4 11 11 10 13 13 17 22 12 15 12 17
75 76 74 71 74 72 66 60 58 48 36 27 19 22 13 8 8 15 21 24 29 22 21 22 22 20 14 17 19 19 12 8 4 15 12 12 12 12 19 24 16 14 11 11
69 71 72 76 69 60 56 43 36 36 28 23 23 22 11 8 7 15 21 23 26 27 22 24 23 19 15 16 18 17 10 7 4 13 16 14 15 9 14 22 24 14 11 14
64 64 64 58 52 47 43 41 42 37 26 24 24 15 13 9 7 14 20 22 26 33 25 25 23 18 12 15 17 15 10 5 6 16 19 14 16 11 15 18 26 14 13 17
71 67 62 60 51 46 38 35 33 29 26 21 22 21 12 10 8 12 19 23 25 31 30 25 22 16 13 14 17 14 12 5 5 16 20 11 14 17 12 14 21 21 9 13
84 71 60 53 42 41 35 32 32 33 26 27 25 21 11 11 8 13 18 21 25 29 31 24 20 19 14 14 16 15 13 7 5 15 25 12 15 16 13 10 16 23 12 13
78 72 61 58 53 46 40 40 41 37 36 28 30 20 13 12 10 13 13 22 24 26 28 28 21 22 16 14 16 15 13 8 5 15 24 17 16 16 12 16 9 17 14 14
81 70 65 59 51 47 46 44 40 41 34 30 26 22 19 11 11 11 16 21 23 23 25 27 26 20 21 16 17 14 13 9 3 9 25 20 17 16 12 10 14 12 16 11
82 72 70 58 57 52 46 49 40 41 37 34 27 30 17 9 12 11 17 19 21 22 25 27 27 25 20 19 15 13 13 12 5 4 18 25 17 22 16 13 7 9 12 11
82 76 73 59 62 56 41 43 43 44 44 37 34 31 20 16 12 14 15 18 21 22 23 25 26 28 22 20 17 13 12 11 8 4 7 26 23 22 21 17 12 6 7 9
84 80 76 67 65 55 48 39 42 44 42 39 38 35 30 21 13 19 14 20 22 21 23 22 23 26 26 19 18 14 13 11 10 7 5 19 25 22 22 19 20 18 10 8
88 84 80 74 72 57 49 47 46 49 48 43 38 37 33 25 16 23 14 18 23 21 22 20 21 23 25 19 17 17 11 11 9 7 3 1 15 23 22 19 16 16 18 14
93 92 88 78 74 67 61 59 55 51 46 47 42 39 37 31 23 26 16 18 23 22 22 19 20 22 23 23 17 15 11 8 9 7 4 1 4 11 19 19 21 19 20 24
97 96 92 85 81 74 64 68 55 55 56 51 45 42 40 37 24 29 18 21 24 27 25 19 18 18 20 22 19 15 14 7 6 6 5 4 3 3 6 10 14 12 16 18
99 97 93 92 85 72 69 73 75 63 57 52 51 48 43 44 33 31 22 22 25 27 29 25 19 18 18 18 20 16 15 11 4 4 6 4 5 5 4 5 6 7 8 10
103 99 91 89 90 82 84 82 77 75 66 56 53 50 49 49 41 35 27 25 28 28 32 29 24 18 18 17 19 19 15 12 8 6 5 7 6 7 7 8 7 7 11 13
102 105 93 91 92 88 88 85 77 74 69 62 60 56 52 53 48 44 34 30 34 32 33 31 27 20 18 16 16 20 18 15 12 10 9 9 8 8 10 11 11 10 9 9
108 102 98 101 94 89 90 87 80 74 65 57 58 57 56 56 53 49 41 37 41 38 34 31 31 23 20 18 16 17 21 20 16 15 14 12 12 11 10 11 12 12 13 14

GFSCGP_250_spd_018.txt.gz
Wind_Speed
72 65 62 68 70 66 60 55 58 60 59 59 58 49 51 52 57 62 65 72 70 71 78 81 61 52 55 52 48 42 40 38 30 29 30 25 22 27 23 28 29 30 26 27
77 60 68 72 67 62 58 57 60 60 58 54 47 48 53 54 60 65 66 69 66 78 74 57 53 53 53 47 43 37 37 30 27 28 25 19 20 23 25 29 31 29 29 23
74 68 72 71 66 60 58 56 55 53 56 48 45 50 51 58 63 66 63 65 71 62 59 56 53 53 48 41 35 35 29 26 26 26 18 15 18 20 23 26 29 29 25 20
71 70 68 64 59 55 53 52 53 53 52 48 50 56 59 57 64 65 66 63 52 49 49 53 50 43 39 34 32 28 24 25 25 20 11 11 11 18 18 25 29 22 18 17
56 57 57 66 55 59 56 60 55 52 53 57 59 61 64 61 65 66 55 45 44 45 50 49 39 36 33 29 26 22 24 25 20 13 10 7 10 15 20 25 24 19 22 18
59 61 62 55 58 53 59 50 52 55 53 52 61 60 60 58 55 54 45 42 35 37 37 38 35 29 27 23 20 22 24 23 16 13 7 4 7 18 23 23 21 21 24 21
59 58 58 58 59 56 55 54 49 50 51 57 58 55 56 53 52 38 34 30 32 29 28 28 24 23 20 18 20 22 22 19 14 7 7 1 9 15 26 22 19 21 22 17
63 62 59 63 60 63 61 57 53 55 58 61 59 52 57 46 41 26 28 25 22 26 22 21 21 18 16 17 19 20 21 14 12 3 9 2 7 15 24 28 17 19 20 6
68 61 62 64 67 66 60 54 59 56 54 53 53 50 52 39 24 24 17 12 17 21 19 18 18 14 16 17 18 18 19 11 10 4 7 2 7 13 25 29 17 20 15 4
77 72 72 73 75 68 60 63 61 54 50 51 51 49 41 23 18 19 11 12 14 20 17 15 17 11 14 13 16 16 19 10 8 7 7 6 7 14 23 29 19 17 13 8
77 80 81 82 67 64 65 62 59 54 50 48 47 37 22 23 18 15 9 11 13 19 18 15 14 10 9 11 15 15 18 11 6 7 8 8 6 10 21 27 18 15 15 10
71 74 82 76 72 73 71 70 66 59 52 56 56 28 26 21 16 12 9 8 12 17 20 18 13 10 10 11 15 15 16 11 6 7 13 11 7 8 16 25 21 10 14 18
84 71 72 73 78 78 71 60 52 54 52 39 28 31 25 21 14 12 6 6 12 16 21 20 14 13 11 11 14 14 15 11 4 14 15 7 9 10 17 21 23 10 17 19
81 73 62 57 50 52 49 42 39 36 29 26 31 30 25 22 15 7 7 5 13 16 20 23 16 14 16 12 13 13 14 10 3 16 17 8 4 9 14 17 23 10 15 18
80 70 63 58 55 52 44 37 31 29 34 31 38 29 27 21 14 7 8 5 11 16 19 22 24 16 16 11 13 12 14 12 1 11 19 14 11 8 10 14 20 12 7 12
81 71 68 67 60 52 41 37 30 36 41 43 35 27 27 21 13 10 6 3 12 14 18 20 24 24 16 13 12 13 13 13 5 3 18 16 14 8 10 7 10 14 7 4
85 78 75 65 62 58 47 37 34 34 39 38 29 31 29 21 13 10 4 6 8 11 17 17 21 25 19 16 13 13 13 13 8 3 13 23 19 13 7 5 8 8 12 14
87 84 77 66 69 64 41 40 39 38 38 37 36 36 30 24 16 11 8 7 8 10 13 16 19 22 23 15 13 12 13 12 11 8 3 21 21 16 16 9 4 2 8 7
88 85 78 74 72 60 49 42 38 41 38 36 39 39 34 27 18 16 11 9 9 8 10 15 17 19 22 20 12 10 8 10 10 10 9 7 23 17 17 18 13 8 7 4
93 88 85 76 78 63 52 49 46 48 44 43 43 43 37 30 22 22 12 11 9 9 10 13 14 16 18 19 15 10 7 7 8 6 6 6 13 23 17 19 18 19 15 10
98 93 87 81 80 68 59 59 57 51 37 47 48 49 44 36 31 25 14 13 12 9 10 13 13 16 18 17 19 13 9 5 5 5 3 3 2 6 21 19 17 16 15 16
100 96 91 89 82 78 74 74 67 61 51 50 53 54 49 42 35 25 18 14 16 8 11 12 15 14 16 17 16 18 10 8 2 1 2 1 1 4 7 11 15 15 16 19
98 99 93 94 89 84 82 78 66 63 58 53 54 58 53 46 36 28 22 18 18 12 11 11 15 14 14 16 16 15 16 9 3 2 1 0 2 4 5 7 7 8 11 13
96 98 99 95 91 86 82 77 69 67 62 59 58 56 52 49 39 34 24 21 20 18 14 14 15 16 13 15 16 16 15 15 10 6 4 4 3 4 7 8 8 9 11 12
98 95 98 97 92 85 83 81 77 70 68 61 59 55 52 51 45 38 30 25 24 23 17 21 18 18 15 14 16 18 17 15 15 11 8 8 7 7 7 8 10 11 11 11
97 93 100 98 94 88 82 83 80 72 66 63 58 56 53 51 50 42 36 29 28 26 23 26 22 21 18 16 17 17 17 16 14 15 13 11 11 11 11 10 11 10 12 14

GFSCGP_250_spd_021.txt.gz
Wind_Speed
85 82 67 65 72 72 66 60 67 76 67 62 59 58 59 60 60 58 55 53 58 66 70 70 76 80 80 58 58 51 51 47 40 34 34 34 30 25 26 29 30 34 39 37
86 74 70 77 71 74 66 60 65 71 66 60 57 54 57 57 52 48 48 54 60 66 71 77 81 75 64 56 54 50 46 38 32 32 33 30 26 23 24 25 29 36 34 29
79 72 80 77 78 73 66 62 66 68 60 56 56 56 57 52 48 45 50 57 62 70 73 73 74 73 55 56 46 45 38 32 28 31 29 24 21 21 22 28 32 31 27 26
65 71 75 76 72 68 65 67 69 66 63 59 57 54 53 50 41 49 55 58 64 66 70 74 72 52 55 48 42 39 32 28 28 28 23 19 20 17 23 28 31 29 27 26
60 59 60 65 65 70 67 74 69 67 63 59 51 43 53 47 53 56 58 59 59 66 68 61 52 51 48 45 40 33 27 26 27 24 20 19 14 15 25 32 30 25 25 28
71 69 68 62 72 70 70 69 66 62 57 47 51 49 50 47 53 53 53 54 59 63 59 48 47 50 44 38 33 26 24 24 23 19 15 11 11 19 27 31 22 22 25 24
65 58 55 54 56 58 57 54 52 48 46 47 55 45 42 44 47 48 52 54 52 50 43 43 49 46 35 32 24 21 21 21 18 13 7 4 10 19 26 31 20 20 22 17
65 60 51 49 50 47 49 51 47 47 49 49 50 36 37 43 44 46 47 41 43 39 35 40 39 36 31 25 18 19 18 16 13 10 0 5 15 19 27 30 21 21 21 17
71 62 62 62 61 63 57 44 50 50 49 43 32 40 39 38 39 46 42 34 33 29 32 36 34 30 25 16 14 17 15 13 11 6 2 5 12 18 27 24 22 23 23 19
78 74 72 70 67 63 58 56 57 47 40 37 41 41 40 37 38 43 28 30 26 28 27 27 29 22 17 11 13 15 13 11 10 4 3 6 15 17 22 23 21 23 21 20
80 76 75 73 62 61 58 48 43 43 41 42 43 39 40 34 41 29 24 25 23 22 23 23 19 14 12 10 12 15 12 10 9 2 2 6 15 14 22 22 19 22 20 18
80 75 72 60 70 70 63 57 55 48 48 46 46 45 39 37 36 24 22 20 20 20 16 17 11 11 8 8 11 15 12 10 9 2 6 2 14 15 23 20 23 22 27 21
84 76 76 67 63 62 61 49 47 47 46 47 47 45 43 33 27 23 19 17 16 13 10 12 11 11 7 7 10 12 12 10 6 5 12 4 10 15 21 22 23 25 25 26
86 78 72 60 51 49 47 53 54 52 50 47 41 43 28 30 31 22 19 16 12 7 8 12 13 10 6 7 9 10 12 9 3 11 12 4 5 11 19 23 21 21 25 29
86 78 73 66 62 56 48 44 45 46 43 42 37 25 31 32 29 22 19 15 9 7 8 11 14 8 6 6 8 10 11 8 3 5 16 10 5 6 13 16 19 18 20 25
89 85 76 71 66 60 52 45 34 29 30 35 36 29 34 30 28 24 20 13 8 6 7 8 12 15 7 7 9 10 10 9 6 2 13 13 10 2 6 12 17 23 18 15
92 87 79 73 70 65 59 41 29 26 30 29 25 31 32 31 31 26 20 13 9 3 5 8 12 15 12 8 5 6 8 9 7 3 2 16 10 8 1 6 12 15 17 14
93 88 81 76 76 69 43 44 33 27 31 29 29 35 38 34 29 25 21 15 8 1 4 7 11 13 16 11 7 4 5 8 9 7 3 9 16 12 9 7 5 9 14 15
93 89 82 81 79 60 51 46 37 31 30 32 31 39 38 34 27 25 23 16 10 0 3 5 11 13 16 17 10 8 5 7 8 9 10 5 12 13 11 7 8 7 11 11
94 90 85 82 78 66 61 57 51 47 41 41 36 39 42 37 31 30 26 18 10 4 3 3 7 11 14 15 15 9 8 6 7 7 8 8 3 14 11 8 10 7 8 10
95 91 86 85 82 73 67 67 61 50 43 45 43 42 45 41 38 35 25 20 15 8 4 2 6 7 11 14 14 14 10 8 4 6 5 5 5 3 8 15 10 10 9 8
95 95 93 89 87 80 75 73 64 56 53 47 46 44 41 47 44 35 29 24 19 12 7 3 4 7 8 11 12 14 15 11 5 4 5 3 3 3 2 3 9 12 12 11
96 97 96 93 88 83 78 71 64 60 58 53 46 46 46 47 45 41 34 26 29 16 9 5 4 6 8 8 10 12 14 13 9 6 4 3 3 2 1 2 5 6 7 8
97 99 99 95 91 86 80 73 69 63 59 56 50 46 46 47 47 45 36 31 29 23 14 7 7 7 8 8 9 10 10 12 11 9 7 6 4 3 3 4 4 4 7 7
99 98 100 95 92 89 82 78 74 67 63 60 57 52 52 51 48 47 43 38 31 31 20 13 11 11 10 10 10 10 10 8 11 10 9 6 7 6 5 5 6 7 6 7
94 97 98 100 95 91 84 78 76 70 68 63 59 59 57 56 50 45 43 41 33 33 28 18 13 15 13 13 12 11 11 9 7 8 9 9 7 8 7 7 7 7 8 9

GFSCGP_250_spd_024.txt.gz
Wind_Speed
88 91 82 76 77 75 74 72 66 67 76 63 57 57 71 57 61 63 63 63 61 64 56 54 57 64 65 68 72 57 55 57 51 47 43 39 39 33 27 26 27 30 34 36
89 80 77 78 78 78 77 73 64 73 75 64 60 55 64 56 60 60 60 60 62 62 50 56 61 66 65 71 60 51 59 51 50 41 39 39 32 25 24 23 26 32 35 32
86 71 80 81 80 78 77 70 69 76 73 61 57 53 56 59 57 56 57 60 64 54 54 59 62 61 63 64 51 55 52 49 43 40 38 32 24 22 19 26 34 38 31 29
79 75 76 75 71 73 69 69 75 75 68 58 56 54 55 57 55 57 58 62 56 53 57 56 59 62 67 50 52 58 47 46 39 35 32 25 20 15 21 28 36 35 26 27
66 68 70 71 69 71 64 73 76 74 67 57 54 52 61 55 54 56 52 51 51 50 53 56 60 62 54 49 54 50 45 38 37 32 26 18 10 17 23 29 38 29 26 25
70 73 71 64 70 72 74 78 75 69 60 50 56 53 64 54 52 48 47 46 46 47 52 55 57 54 47 51 50 45 41 34 33 27 18 10 11 17 24 33 34 26 21 19
70 70 66 63 57 54 52 51 53 55 53 48 59 47 57 54 41 42 41 40 38 44 51 51 49 46 47 49 45 39 33 30 29 20 14 7 12 19 25 33 27 24 20 17
78 70 60 56 51 45 46 47 44 46 48 48 56 37 53 38 34 37 35 33 35 44 45 46 44 43 43 46 40 35 29 26 23 16 7 7 13 20 24 27 24 21 22 19
82 74 69 63 59 53 45 39 40 40 40 43 48 38 34 27 35 32 30 32 36 40 39 38 41 40 40 40 33 29 23 23 17 12 3 8 18 20 25 21 22 19 22 19
84 76 69 68 67 59 48 46 42 38 38 37 31 28 30 29 32 30 32 30 35 30 33 34 36 37 39 30 27 23 20 20 14 8 3 12 17 21 21 17 23 20 23 18
86 76 72 71 59 56 52 40 30 31 30 26 27 33 32 32 33 34 34 31 28 26 31 31 32 33 29 25 25 20 18 18 11 2 4 12 18 24 19 20 25 24 21 20
88 80 77 65 66 64 58 47 39 33 29 33 38 40 36 31 31 35 34 24 20 26 25 28 27 26 25 26 24 19 15 15 9 4 4 10 18 22 16 22 29 31 25 20
90 82 78 70 65 64 53 43 40 39 31 30 29 33 31 34 37 38 29 21 20 21 21 23 21 22 22 24 21 13 13 13 5 6 6 5 13 20 25 23 29 30 29 22
89 80 76 67 60 62 57 49 41 40 34 34 35 34 34 35 35 33 19 20 17 17 20 19 19 18 19 20 17 10 12 10 1 8 6 3 10 16 25 22 23 27 25 21
88 81 77 71 66 61 54 47 44 44 44 38 43 38 36 34 33 30 22 18 15 15 17 16 15 16 17 16 14 8 10 9 3 8 8 5 5 12 19 23 26 19 24 21
88 85 78 76 71 64 55 46 37 41 52 49 49 42 39 40 36 25 24 20 15 16 14 15 11 14 14 13 14 8 7 9 6 2 13 9 3 8 15 20 23 22 19 17
88 87 80 78 73 65 53 44 38 36 36 37 31 35 36 32 30 31 25 21 16 16 12 13 7 11 14 11 13 9 9 8 8 2 6 13 4 7 5 10 17 22 18 15
92 88 83 80 73 61 54 50 44 40 36 32 27 22 31 35 38 33 27 21 18 13 12 12 4 8 11 13 10 10 7 7 8 5 4 13 10 7 1 5 8 13 18 15
92 89 85 84 74 66 59 53 46 42 41 33 30 27 35 42 37 32 27 23 17 11 12 10 5 6 10 13 13 10 9 7 7 8 5 9 14 13 5 5 5 7 11 12
94 90 87 82 78 72 64 58 51 48 46 36 31 29 37 39 34 34 31 24 18 12 11 10 9 4 9 11 13 13 9 8 6 7 9 7 7 9 9 5 2 3 7 8
94 91 88 84 80 75 69 63 56 49 46 39 34 31 38 37 37 35 31 26 20 15 11 8 8 7 5 10 12 15 12 9 6 6 6 7 7 3 7 8 7 4 3 3
96 93 90 86 83 77 72 68 59 52 50 45 38 34 41 43 40 35 31 27 22 17 12 9 6 7 5 8 12 13 15 10 8 7 5 4 5 5 5 2 3 7 6 5
100 97 94 89 85 79 74 69 61 56 53 49 43 41 42 44 44 39 35 31 25 20 13 11 7 5 4 5 9 12 12 14 9 7 4 4 4 3 3 4 3 2 2 4
100 99 95 91 89 83 76 72 68 61 57 53 48 47 45 46 48 43 40 33 28 23 18 15 12 7 3 4 5 10 12 11 12 10 6 3 2 2 2 1 0 1 2 2
98 100 98 94 90 86 79 75 73 65 61 58 53 50 50 47 46 47 44 40 36 31 23 22 17 13 8 4 4 6 9 11 11 11 10 6 3 2 2 1 0 0 0 1
93 97 97 95 91 88 82 77 75 71 66 63 60 56 54 53 51 49 48 45 40 36 31 26 23 19 12 8 5 5 8 10 10 10 10 10 7 2 2 2 2 2 2 2

GFSCGP_250_spd_027.txt.gz
Wind_Speed
90 91 80 76 78 79 80 78 73 76 80 80 77 64 62 67 67 57 60 61 60 58 61 60 60 62 63 58 54 59 62 51 57 54 49 47 43 42 31 23 19 23 29 36
98 90 72 80 84 77 74 71 69 75 78 81 75 65 64 62 62 53 59 61 57 56 58 57 60 62 56 53 55 60 53 52 55 50 48 44 41 33 24 19 23 28 35 38
88 61 80 89 85 76 70 68 70 71 81 80 73 64 59 60 60 53 60 58 53 56 55 57 60 54 51 50 55 51 49 56 50 47 45 41 36 27 19 20 26 33 37 29
88 70 77 74 69 68 67 68 68 71 74 70 66 51 56 63 58 57 59 55 53 54 55 55 53 46 44 49 49 45 52 53 47 45 41 37 27 17 18 22 30 32 28 25
75 71 66 64 59 72 69 72 71 71 69 63 58 48 64 59 59 61 56 51 52 53 51 47 42 41 45 49 41 45 49 50 44 38 36 29 17 15 18 24 30 26 25 20
88 78 81 64 67 67 69 68 63 58 58 43 52 49 64 60 59 53 53 52 51 47 39 39 37 39 47 41 43 46 49 44 36 34 33 21 13 17 21 25 27 22 20 16
92 80 71 66 62 60 57 55 51 49 43 32 49 49 64 60 55 52 51 49 44 35 31 32 36 39 45 39 45 46 46 36 33 32 27 14 14 19 21 28 22 18 17 15
95 86 74 64 56 55 54 53 46 44 42 38 47 42 56 58 46 36 47 41 32 26 31 34 37 42 37 41 42 45 38 31 31 29 17 9 15 18 24 19 17 17 15 13
100 91 82 72 65 62 55 43 44 35 31 33 37 38 56 41 27 35 35 29 24 26 31 33 37 38 35 39 42 40 33 30 28 24 7 9 14 18 14 17 16 17 18 11
105 94 85 76 71 63 54 55 39 24 22 24 31 30 37 33 27 31 26 21 22 30 31 33 37 29 35 36 39 34 30 28 25 17 3 7 17 13 15 16 19 19 16 11
103 96 91 83 65 58 54 42 29 18 15 21 31 28 42 29 22 25 22 22 24 27 28 32 27 28 33 35 35 29 29 25 20 9 3 9 16 10 17 23 24 19 16 14
109 99 93 76 71 65 60 47 35 27 28 27 29 34 32 24 26 24 22 24 21 23 25 25 23 27 30 31 31 26 26 21 17 5 4 10 16 13 18 24 25 20 21 18
112 105 97 87 75 67 54 42 36 31 28 21 29 35 28 25 25 23 24 24 21 22 21 20 23 27 26 28 26 24 23 17 12 4 5 10 18 19 16 20 25 23 21 20
109 106 97 84 71 64 55 47 37 32 28 24 28 36 28 21 26 22 25 19 20 22 17 18 22 23 23 27 22 22 21 13 8 5 7 8 14 19 20 18 25 27 28 20
107 104 95 84 73 64 57 48 44 37 31 28 41 31 28 28 27 25 22 17 22 21 16 16 20 19 20 22 18 18 15 12 6 5 10 7 11 17 21 23 22 22 26 27
104 102 93 86 76 66 59 51 47 44 36 43 40 31 32 31 30 28 24 19 24 18 14 14 14 16 16 18 14 14 12 11 6 3 11 9 9 11 15 21 23 20 18 22
102 96 92 85 75 69 61 55 49 46 44 46 45 42 38 36 31 28 26 26 24 17 13 14 9 14 14 16 13 12 9 9 8 1 8 14 8 5 7 13 18 20 18 18
100 94 91 84 76 67 65 59 52 51 52 50 48 42 42 41 41 38 25 30 23 17 12 13 7 12 12 14 15 12 9 8 9 4 6 13 10 11 2 7 11 16 17 18
99 95 91 83 75 70 67 61 55 50 49 48 43 38 37 33 30 25 29 29 23 19 13 10 8 10 10 12 15 15 11 7 8 10 4 10 13 11 8 4 8 11 12 13
98 93 90 82 76 74 66 61 57 54 52 48 38 33 34 28 23 26 36 31 26 20 13 9 10 10 10 11 14 17 13 7 7 9 9 3 11 11 10 8 3 9 7 10
99 94 90 84 80 74 69 64 60 54 50 44 35 33 32 27 31 32 35 31 27 21 15 9 8 8 9 9 12 14 16 13 7 7 8 7 5 4 8 7 5 6 4 7
99 94 89 85 81 77 72 66 60 52 51 45 36 36 36 33 33 35 37 30 27 23 17 12 8 5 6 7 8 11 13 16 14 7 6 6 5 6 6 5 6 6 7 7
99 96 91 88 80 76 72 66 62 59 53 46 39 41 41 38 38 37 39 36 29 25 19 16 10 6 3 5 5 7 10 13 16 15 9 4 4 5 5 5 5 5 5 7
99 97 94 90 84 80 76 71 65 63 57 51 44 45 46 43 41 40 41 37 35 27 23 18 13 8 4 3 3 6 8 11 12 15 17 10 4 3 3 3 3 4 5 5
96 97 95 93 87 82 77 75 70 66 61 56 50 49 50 48 46 42 40 39 38 32 27 23 18 12 9 6 3 2 5 9 11 12 14 17 13 6 4 2 3 3 2 2
91 95 95 93 88 81 78 77 73 70 65 62 57 51 53 53 50 48 44 42 38 36 33 27 22 19 14 10 6 4 2 3 6 10 13 13 15 13 9 7 4 3 3 2

GFSCGP_250_spd_030.txt.gz
Wind_Speed
98 104 96 79 81 82 84 85 82 85 84 82 79 76 78 74 68 69 64 61 66 64 63 63 61 63 60 62 62 64 64 56 59 48 51 55 48 43 43 39 32 29 27 30
115 113 78 84 91 91 89 83 76 78 77 75 75 78 74 72 66 62 57 61 62 62 61 59 61 58 60 60 62 62 55 57 50 46 53 50 43 41 38 33 28 27 31 36
107 83 85 88 96 97 89 82 79 75 78 82 74 75 66 67 62 61 58 63 60 60 59 58 58 57 58 59 61 55 51 52 45 48 51 43 40 39 30 24 24 28 34 35
107 79 84 90 91 83 79 76 78 82 85 73 81 70 63 61 59 56 62 63 61 59 55 55 55 55 57 58 55 47 53 43 44 49 40 37 37 32 25 24 29 32 36 31
93 89 87 81 65 75 62 77 82 80 79 74 68 64 54 54 55 55 61 59 55 53 53 52 54 54 55 52 45 47 45 40 45 40 36 35 32 24 25 30 32 34 27 28
99 97 95 75 81 74 78 77 74 70 67 59 54 56 44 50 56 50 52 50 49 52 50 50 51 53 48 43 44 47 38 41 42 34 32 32 26 21 27 31 32 25 26 24
107 105 95 86 83 78 76 67 57 56 53 42 49 50 43 56 49 45 43 43 47 46 46 48 48 45 41 40 43 37 36 41 36 31 31 27 18 21 27 28 24 24 21 23
121 112 99 93 86 74 67 60 56 55 49 40 45 46 43 51 50 38 35 38 41 38 41 43 40 35 37 38 38 32 35 39 31 27 27 19 15 22 23 23 25 23 17 15
120 112 104 98 89 82 72 61 50 54 45 35 34 35 41 42 39 27 33 35 28 30 32 32 30 33 34 38 28 31 35 34 26 23 20 13 14 18 19 23 23 15 14 8
92 101 106 97 96 90 81 72 62 51 33 26 31 33 37 39 29 26 27 22 23 23 23 27 29 30 34 27 28 32 36 26 21 19 12 10 14 14 19 17 15 9 12 6
94 80 95 104 100 84 81 67 53 40 29 20 28 29 37 34 20 26 20 18 21 23 25 27 25 28 27 23 28 31 27 20 19 16 7 8 12 10 17 15 15 13 11 9
95 86 89 97 91 88 82 69 60 42 34 29 27 36 38 32 25 25 20 21 24 23 24 23 24 28 19 24 28 30 21 19 19 9 4 5 10 11 13 14 15 13 12 11
91 88 89 91 101 96 82 68 59 51 35 33 38 42 38 26 27 24 22 26 22 22 22 25 25 19 19 25 26 22 17 18 15 0 7 2 10 14 12 17 17 13 17 13
83 89 85 97 89 87 79 69 62 43 33 35 38 39 36 31 28 24 22 20 20 22 26 22 21 17 19 23 25 18 13 14 11 6 8 2 9 18 14 13 20 15 19 18
79 86 94 96 92 87 79 74 64 45 39 37 38 43 37 32 31 23 19 18 20 25 21 22 16 15 17 21 22 16 11 10 9 8 13 4 8 13 19 15 17 19 19 19
76 90 97 96 90 86 77 69 60 51 45 42 45 42 26 27 22 17 20 22 25 22 20 19 14 12 15 19 19 14 10 7 8 6 14 10 5 5 12 15 16 14 17 23
75 90 100 97 95 87 78 72 62 56 48 48 49 41 29 24 20 23 27 25 24 21 20 17 13 10 13 16 18 13 9 6 7 5 15 15 8 3 4 12 14 13 17 17
76 91 102 101 96 89 81 70 64 57 52 51 49 38 30 25 24 25 27 24 21 24 20 17 10 8 11 13 15 14 11 6 7 2 9 18 14 10 5 5 11 13 12 15
79 92 102 101 93 90 84 75 64 59 51 50 44 40 37 33 27 32 32 27 26 24 22 16 10 7 9 11 14 16 12 6 7 7 6 10 13 9 9 7 4 11 12 11
82 93 102 100 95 90 81 74 66 61 56 55 46 42 41 41 41 38 31 24 27 27 23 16 10 7 9 10 11 13 13 9 6 8 8 5 9 10 10 8 6 3 8 15
86 96 101 100 95 88 80 74 70 64 59 53 46 44 41 38 39 36 33 27 32 29 22 16 11 5 7 6 8 10 13 13 8 6 9 8 5 9 8 8 4 6 8 6
89 95 100 99 94 88 81 73 67 58 62 54 47 43 41 38 35 34 33 36 35 30 22 17 12 6 5 3 5 8 11 14 13 8 7 7 6 6 8 11 9 9 8 10
89 96 99 98 92 85 79 72 70 67 63 56 49 45 44 37 36 36 38 42 36 29 23 19 14 10 7 2 2 6 9 10 15 17 10 6 6 7 7 5 6 9 10 12
88 96 97 94 91 87 81 76 72 69 64 57 50 49 46 39 39 42 48 45 40 35 28 22 17 12 9 4 1 3 6 10 11 15 17 11 6 6 6 7 6 5 5 7
88 95 95 91 89 86 81 79 75 70 65 57 53 51 49 44 42 48 52 48 42 38 32 25 19 16 12 7 2 1 3 7 10 12 14 17 13 9 6 5 5 6 5 5
88 95 94 90 88 85 82 80 77 73 68 61 56 55 52 47 45 51 56 51 47 42 36 31 24 21 16 12 7 5 3 3 5 8 12 13 15 15 14 12 8 5 5 5

GFSCGP_250_spd_033.txt.gz
Wind_Speed
99 105 98 88 85 86 87 92 87 80 84 91 84 75 74 82 81 78 72 69 71 66 66 66 70 67 67 66 66 66 65 64 66 69 64 65 62 56 49 46 44 38 33 31
109 105 83 88 90 91 90 88 80 83 85 89 83 78 76 79 79 79 74 72 71 65 66 70 70 64 65 66 64 63 63 63 65 67 60 62 54 49 45 44 40 35 34 35
107 89 91 91 92 100 95 90 84 86 88 90 87 87 77 73 76 75 72 68 66 62 67 70 66 63 64 63 63 60 60 61 63 57 60 55 51 43 42 40 37 37 37 39
105 86 89 94 96 91 90 85 83 84 86 87 91 82 73 74 75 70 67 60 62 62 66 66 60 60 63 61 59 57 58 59 56 55 55 49 44 41 41 37 36 36 40 37
94 94 91 94 80 82 79 80 85 84 84 84 79 83 66 71 70 71 62 64 58 61 61 58 55 57 57 56 53 54 56 55 50 53 47 45 39 38 36 33 35 36 33 34
101 100 99 89 81 86 76 83 83 79 81 74 62 73 55 61 67 67 61 60 59 58 53 52 53 53 51 48 50 52 50 45 49 45 44 40 36 33 31 32 35 30 29 33
107 110 102 94 92 86 84 78 78 73 66 54 51 56 49 53 52 52 55 56 56 54 49 46 49 46 42 45 49 46 40 45 42 41 41 33 31 28 28 30 29 31 33 30
113 118 106 93 94 83 83 77 71 63 58 52 58 48 41 48 45 44 47 49 48 46 40 40 38 36 41 45 39 35 40 39 38 40 32 27 24 23 25 27 30 29 29 24
127 116 107 107 97 94 83 85 58 67 59 54 46 38 42 47 44 44 44 39 42 37 31 28 34 36 37 32 31 35 36 35 37 32 22 21 19 21 21 25 25 28 24 18
109 116 113 107 100 98 94 73 80 70 61 47 46 40 44 44 40 40 35 29 23 21 22 30 32 29 26 27 31 33 30 33 32 22 18 15 15 19 18 20 20 20 17 11
94 94 101 110 107 98 90 88 80 72 65 58 49 40 42 33 31 33 28 19 19 23 26 25 25 22 23 27 31 26 29 32 23 15 13 7 12 15 16 16 14 15 14 12
90 86 87 93 105 101 91 86 80 73 62 49 37 41 43 28 30 25 19 23 24 22 24 24 23 21 25 29 25 24 29 26 14 12 4 3 11 12 12 12 11 13 14 12
81 79 79 82 85 84 93 87 83 79 68 58 45 51 41 36 27 23 23 24 20 20 21 23 23 21 25 23 21 24 25 19 9 6 7 1 6 7 8 11 12 12 10 13
66 78 82 79 69 78 81 82 84 81 71 56 47 48 38 34 29 26 27 24 21 27 26 23 19 22 21 17 20 23 20 13 7 5 9 3 5 10 8 10 11 12 10 10
57 67 79 81 75 80 73 74 81 80 68 56 47 46 38 35 31 30 29 23 22 27 24 18 19 21 14 16 19 22 16 10 6 7 14 7 2 8 11 12 8 13 13 13
54 64 77 80 80 78 72 79 83 81 69 57 46 46 40 35 30 36 33 23 20 19 16 19 17 17 11 15 16 21 14 9 5 6 18 11 6 4 11 11 11 14 16 15
52 62 73 84 84 73 73 73 79 81 65 55 49 49 42 38 37 40 34 26 21 18 23 16 19 13 11 14 15 18 13 8 4 4 17 17 10 2 6 10 8 14 15 9
53 61 75 88 81 75 73 72 80 75 63 59 54 55 41 41 37 42 33 23 18 25 23 17 16 10 11 11 13 16 11 5 3 4 12 20 15 8 6 6 8 3 8 15
55 66 78 81 81 80 77 77 81 73 69 65 61 54 44 41 34 30 26 21 26 28 22 22 14 11 9 10 13 13 10 2 2 4 10 19 20 12 7 3 3 7 7 12
59 68 72 79 85 88 86 82 80 72 68 63 58 46 40 30 34 30 24 20 26 27 25 22 15 12 9 8 11 10 8 2 3 3 7 12 17 14 9 5 3 4 4 6
59 68 78 89 90 87 86 86 83 80 72 66 61 49 48 47 42 34 32 34 34 31 28 20 17 13 8 6 7 6 5 4 4 4 6 5 9 13 11 9 6 9 6 6
63 75 86 88 92 94 88 86 84 73 71 66 59 54 52 47 45 42 38 40 37 36 29 21 18 13 9 6 5 2 4 6 6 5 6 7 5 4 9 13 9 10 9 9
63 75 86 93 96 98 91 86 82 79 73 68 61 57 55 51 48 46 42 40 39 38 29 25 23 14 10 7 4 1 3 7 10 8 6 7 7 7 5 7 10 12 12 12
63 78 90 96 101 94 95 89 84 79 79 71 65 60 57 52 51 45 40 35 38 35 32 30 25 16 11 8 5 1 2 7 10 12 9 8 7 7 7 7 6 5 8 11
60 74 88 99 101 97 94 90 84 81 79 71 66 61 57 55 52 44 39 38 41 36 37 33 28 20 15 11 7 4 2 7 10 12 13 11 10 8 8 8 8 8 8 7
58 72 84 94 94 96 93 88 84 82 78 71 65 61 57 54 51 45 39 40 43 43 41 36 30 24 21 16 10 7 4 3 7 10 11 14 14 12 10 8 8 8 9 9

GFSCGP_250_spd_036.txt.gz
Wind_Speed
107 112 104 94 97 93 91 90 89 83 86 89 90 89 76 79 77 77 78 79 78 77 74 74 75 74 78 76 75 74 75 75 70 69 68 65 67 68 68 67 62 58 52 46
108 101 91 99 95 96 90 92 93 84 85 87 91 89 83 78 76 77 73 76 79 76 74 76 77 72 77 76 73 74 75 72 70 65 63 61 64 64 66 60 56 56 47 41
108 89 98 96 96 98 93 89 89 87 90 86 90 88 73 72 76 78 78 80 79 77 76 73 74 69 72 71 71 72 70 65 62 61 57 59 62 60 59 56 50 50 40 38
102 93 95 98 94 93 90 87 92 90 92 83 91 83 72 81 78 78 83 78 75 75 75 72 66 69 67 68 69 68 62 57 55 52 56 58 58 57 54 52 46 38 41 35
89 90 94 93 83 91 82 91 88 87 85 81 79 81 69 77 74 76 74 73 71 71 71 67 63 66 62 64 64 59 53 52 49 51 52 54 55 53 51 46 40 35 32 28
94 97 95 86 85 88 81 84 86 85 80 71 68 82 62 64 67 67 65 61 59 55 55 53 60 59 60 60 58 50 47 46 45 46 50 53 50 50 45 39 33 31 36 33
104 105 97 94 89 84 85 81 81 82 75 62 61 65 44 52 56 46 44 44 43 43 45 44 49 51 53 53 47 43 40 40 40 44 48 47 49 43 37 32 29 32 35 33
113 110 104 96 92 88 88 84 79 72 63 57 56 45 44 45 41 35 37 41 40 41 44 42 42 44 43 39 38 34 35 34 40 44 44 45 42 36 30 27 25 32 31 35
117 112 107 107 101 98 89 95 69 76 68 63 54 50 43 40 38 35 34 38 40 40 41 38 37 37 31 30 30 30 29 35 41 40 41 40 34 29 24 22 29 30 32 25
111 113 112 109 108 104 101 86 88 78 69 60 54 50 44 39 40 36 34 39 36 37 35 29 29 23 22 27 27 25 30 36 36 37 37 31 25 19 20 16 25 28 26 22
99 94 100 107 113 107 104 99 93 83 76 65 57 54 49 46 39 38 32 36 33 29 21 15 13 19 26 26 22 26 32 31 33 34 30 24 14 16 16 17 22 22 20 19
101 95 92 90 100 106 109 102 94 85 73 67 62 57 50 40 40 37 34 35 28 20 16 13 18 24 25 21 25 28 26 29 32 28 24 12 9 11 15 20 21 22 18 16
87 90 89 85 87 90 97 98 98 87 81 70 63 60 53 46 48 40 34 34 22 21 17 13 19 22 24 22 25 24 24 27 28 22 17 6 4 9 11 17 18 19 15 13
66 72 82 88 91 91 92 87 85 89 85 73 64 63 54 50 52 44 34 37 25 21 18 19 22 25 21 22 25 18 22 25 23 18 13 7 2 7 10 13 17 17 13 15
56 61 66 76 89 90 87 82 83 79 75 74 65 62 57 52 53 41 36 27 29 25 22 24 22 20 19 22 18 16 21 23 18 15 13 10 3 6 10 13 12 20 12 19
47 50 55 62 70 82 79 77 74 74 72 70 66 63 60 54 50 41 37 32 29 21 20 18 16 17 18 19 13 16 19 21 14 14 13 14 8 2 9 14 12 16 16 12
39 46 52 58 66 79 68 65 65 66 72 69 68 60 60 58 49 40 35 35 31 21 20 17 17 20 21 15 10 14 18 19 12 14 11 17 11 3 4 10 8 10 13 13
39 49 52 55 58 65 68 69 65 64 70 71 72 65 64 59 47 41 36 39 32 28 23 18 21 20 19 13 11 15 17 18 12 13 11 14 17 10 5 5 4 9 11 16
43 48 53 51 58 65 69 74 77 73 73 81 72 73 63 57 45 43 36 34 32 25 26 22 23 20 14 10 11 13 16 17 12 11 9 11 19 15 7 3 4 7 9 12
46 50 52 56 60 63 58 71 75 77 80 82 78 70 60 56 48 35 32 30 29 27 28 17 17 17 14 9 8 11 14 16 12 8 4 8 16 17 12 6 2 1 6 8
46 52 56 55 64 60 68 70 73 74 74 75 60 58 59 44 38 34 34 35 36 32 20 19 20 17 15 10 6 8 11 14 12 6 1 5 10 16 16 12 10 7 1 3
54 55 59 64 73 72 71 77 79 71 72 68 61 63 61 54 48 43 40 38 33 26 26 27 23 19 15 11 5 5 6 11 11 6 2 3 5 12 15 15 13 10 7 8
57 63 67 71 79 75 78 78 73 68 67 67 68 66 60 53 47 45 42 38 30 32 32 31 26 20 15 11 5 3 4 7 8 5 5 4 4 5 7 12 13 14 11 9
53 61 66 75 81 84 90 83 82 79 81 76 75 72 62 54 51 50 46 38 37 36 34 32 27 23 18 13 8 3 2 4 5 3 4 5 5 5 5 6 7 9 14 14
52 56 62 78 89 90 90 87 84 83 80 83 79 73 64 57 52 53 49 41 38 36 34 32 28 28 22 16 10 7 4 1 1 4 3 4 6 7 7 6 7 8 10 14
47 54 59 74 88 89 87 82 83 85 84 82 77 73 64 59 54 54 50 44 43 40 34 30 32 31 26 20 14 10 8 5 3 4 7 8 7 7 7 8 7 6 7 8

GFSCGP_250_spd_039.txt.gz
Wind_Speed
109 112 104 95 100 98 97 85 80 81 87 90 84 85 75 79 84 80 76 74 74 74 73 72 71 69 66 74 75 74 73 75 75 75 75 73 71 66 62 63 63 65 64 62
108 103 96 100 103 104 94 93 85 88 94 92 86 88 74 74 77 77 73 72 76 74 75 77 74 68 74 77 76 74 72 71 70 70 70 69 65 58 60 61 63 64 61 58
104 95 100 101 103 105 101 96 97 96 97 91 92 94 83 81 79 76 75 75 73 73 73 72 72 72 74 75 71 70 68 64 66 67 65 63 54 55 58 59 60 59 58 54
105 101 100 98 95 97 92 94 93 94 98 89 96 92 77 75 76 74 76 75 73 75 72 72 69 71 74 69 69 67 61 60 60 61 59 52 52 51 54 57 57 56 52 46
95 100 103 101 97 98 88 89 89 90 86 87 84 83 64 76 74 76 76 71 72 70 70 67 64 65 59 57 55 52 53 55 56 54 47 47 47 50 52 52 53 50 44 38
97 100 103 99 98 99 96 92 92 91 86 81 72 77 62 68 70 68 62 61 63 61 59 49 49 45 44 47 47 45 46 44 46 41 41 45 45 49 49 50 46 42 34 31
104 103 96 94 92 95 92 90 90 89 84 70 74 71 55 56 59 56 50 49 46 41 35 37 35 38 40 40 37 37 38 39 35 35 39 42 44 45 46 45 41 35 30 33
106 102 97 94 91 92 89 88 85 81 77 68 65 56 46 52 48 41 38 36 32 29 26 27 33 35 34 34 31 31 32 28 28 34 37 42 41 42 41 38 32 28 28 32
109 102 105 100 95 93 88 87 73 81 75 71 61 52 47 42 37 31 27 34 26 25 23 26 31 32 30 28 28 24 23 26 29 34 38 37 38 38 34 28 25 23 29 27
106 99 102 103 102 98 99 84 90 78 73 67 55 49 40 43 36 27 27 25 21 24 26 29 33 26 21 18 16 22 23 26 30 37 35 34 35 32 27 20 21 21 25 25
98 99 105 106 100 101 100 94 92 85 77 72 62 48 51 44 38 30 29 23 22 24 25 29 27 13 11 13 20 25 23 28 34 33 32 33 29 24 18 17 20 22 18 19
91 89 93 102 103 103 101 96 95 92 83 79 69 51 58 47 39 33 26 30 22 28 23 33 16 12 13 18 21 25 24 31 29 29 30 26 24 17 14 17 19 21 17 18
86 80 85 90 93 99 101 97 96 95 93 80 69 57 59 52 45 37 32 34 25 29 28 18 16 11 16 21 23 21 26 27 25 27 27 21 19 10 12 15 18 16 19 20
69 82 86 88 92 91 91 92 94 93 84 79 68 66 65 58 50 42 35 34 32 23 26 22 19 15 20 20 19 22 26 24 24 26 22 17 12 6 10 12 15 16 15 19
54 60 71 88 94 86 83 84 88 85 80 72 67 74 66 60 52 44 35 34 32 25 22 23 22 19 16 21 17 23 21 20 23 23 16 14 11 5 8 10 14 16 19 20
46 48 57 67 77 82 80 75 74 72 72 70 66 71 69 66 53 40 35 36 30 28 27 26 27 20 19 20 21 20 19 20 22 21 14 12 14 8 3 9 14 13 18 24
35 40 43 48 52 60 66 76 68 64 58 56 67 66 65 61 57 52 38 36 31 28 31 18 21 15 17 18 20 21 19 20 21 18 13 11 15 10 3 7 10 11 15 18
29 30 33 39 43 50 58 68 70 63 61 65 70 63 37 65 58 47 38 37 31 28 30 17 19 16 19 22 23 21 18 19 19 15 13 13 14 14 4 3 5 9 12 14
27 31 35 40 45 47 52 62 75 74 73 68 72 59 75 62 55 54 31 26 29 30 33 23 23 21 22 22 22 19 16 17 16 12 13 14 12 16 8 3 4 7 7 11
27 30 35 42 45 45 47 55 69 73 70 69 69 64 62 57 55 42 39 28 31 31 34 24 25 18 18 17 18 16 15 13 15 12 13 9 8 15 14 7 5 2 5 10
25 28 32 32 35 41 48 54 64 69 73 74 66 57 49 56 48 45 31 28 26 32 33 26 24 17 15 16 15 15 13 11 13 12 10 5 6 13 15 13 9 1 3 5
37 40 42 38 38 45 49 48 60 69 70 73 73 69 70 51 48 45 41 35 32 28 28 27 26 16 18 16 15 13 10 9 11 9 8 5 4 7 12 14 13 8 4 3
42 58 59 45 38 49 50 66 55 55 66 74 71 67 60 57 50 48 49 40 37 28 23 26 22 20 20 17 16 12 8 7 10 6 4 4 3 3 6 12 12 11 9 5
53 60 63 60 49 53 59 64 66 77 81 72 69 67 63 57 56 53 50 41 35 33 31 28 26 28 22 21 16 12 7 5 7 6 0 2 1 2 2 6 13 13 14 8
40 60 70 71 65 67 65 71 75 75 74 69 69 67 64 62 57 52 48 43 43 40 31 33 27 26 26 21 18 14 8 2 4 6 4 1 2 3 3 4 5 9 14 15
46 53 64 74 71 68 73 78 79 79 76 74 71 68 65 63 58 55 48 45 42 41 40 33 32 29 28 24 21 17 11 4 2 7 8 6 4 4 3 4 5 5 6 12

GFSCGP_250_spd_042.txt.gz
Wind_Speed
117 119 110 106 107 98 92 92 92 94 94 92 96 91 83 82 89 82 79 79 75 72 72 71 74 75 72 71 72 70 70 70 75 75 73 74 74 69 64 60 60 57 55 54
120 115 105 105 108 106 101 93 89 94 94 92 90 93 89 86 81 80 77 71 73 69 68 70 69 70 75 76 73 71 70 72 75 77 76 75 69 62 59 57 56 55 53 55
111 105 107 106 105 105 103 99 99 99 101 93 92 89 82 78 76 74 74 73 73 71 71 75 76 76 76 75 72 69 71 72 74 75 72 65 54 53 55 54 53 50 52 52
110 106 104 103 102 104 100 99 102 104 103 95 101 91 82 77 76 76 78 79 75 76 78 78 72 72 73 71 67 65 66 68 66 60 55 47 46 48 50 51 48 51 50 52
103 108 108 106 101 100 93 98 98 100 98 98 95 94 76 82 76 80 82 78 79 78 74 70 69 67 64 62 60 59 58 57 51 44 40 39 43 45 47 45 48 47 50 47
105 109 109 107 105 101 99 95 95 94 93 90 87 89 74 78 77 78 75 71 66 62 60 59 60 59 56 52 52 52 53 46 40 38 34 35 40 40 40 44 44 45 42 42
111 106 102 105 105 105 102 100 95 91 87 75 84 78 64 66 71 65 58 54 55 56 53 53 50 46 44 46 46 48 37 36 31 28 29 33 35 35 39 39 41 39 37 36
113 108 103 101 101 102 102 101 98 92 87 81 83 61 61 60 64 58 56 51 49 44 43 41 34 36 37 40 37 35 28 24 23 25 29 29 32 34 36 37 35 32 31 34
112 109 107 103 101 97 97 95 94 93 91 87 79 69 65 62 59 53 45 40 38 40 36 29 31 29 25 29 28 22 16 18 23 26 28 30 30 33 33 32 28 28 30 29
108 106 108 108 103 98 94 90 89 88 87 81 71 66 59 58 53 40 31 32 32 34 24 24 21 20 26 24 16 12 16 21 24 26 29 29 30 31 29 24 22 26 25 17
95 102 109 110 109 104 99 95 90 88 78 69 62 50 50 53 44 34 29 28 29 25 17 18 16 22 20 14 10 15 20 26 26 27 27 28 29 26 21 19 22 21 15 13
81 88 102 107 107 102 102 97 94 89 74 65 56 46 48 53 38 33 29 27 27 24 18 17 14 21 12 11 14 19 23 26 25 28 25 28 25 20 15 15 17 15 14 16
78 77 88 95 101 102 99 97 95 84 77 65 58 49 60 56 40 37 33 27 28 25 17 14 16 15 12 13 18 20 23 25 27 24 26 27 21 13 10 13 14 15 17 18
61 72 84 85 88 95 97 92 90 84 79 67 59 61 66 56 48 45 35 33 31 31 22 15 19 19 20 19 16 22 22 24 22 22 24 25 17 10 8 11 14 16 19 19
50 58 66 81 83 76 82 85 83 80 78 69 63 64 69 62 56 46 41 37 34 37 29 19 16 21 22 18 18 22 24 24 21 23 25 23 14 11 9 10 11 14 19 21
41 48 55 65 74 72 71 74 75 76 73 70 68 63 78 70 56 46 41 40 34 36 30 23 22 27 23 17 16 24 21 23 22 24 25 19 12 12 10 9 9 12 14 18
30 37 42 48 56 67 70 69 69 70 68 70 69 71 77 61 56 50 47 42 36 37 29 23 21 20 23 22 17 23 23 23 24 24 24 15 10 14 13 10 7 10 14 16
23 29 34 43 50 57 63 62 60 63 61 59 63 74 65 52 49 47 47 44 31 26 26 22 21 18 17 16 20 24 24 23 25 22 21 14 11 12 15 10 7 7 11 13
23 27 32 32 34 42 50 64 68 61 59 55 59 61 55 48 33 36 40 40 38 36 29 26 21 18 19 18 21 24 22 23 25 21 16 11 12 13 17 12 8 7 8 11
18 22 28 34 37 40 40 50 60 68 62 59 63 51 53 53 52 37 37 37 34 32 33 31 26 21 19 21 18 19 21 22 23 20 13 9 6 10 17 14 6 6 7 12
24 26 30 32 32 39 43 45 54 66 72 71 57 54 54 46 48 46 44 41 35 34 35 29 28 21 21 19 14 17 21 20 21 17 10 8 6 8 14 13 9 6 7 10
31 33 33 36 36 39 43 45 47 58 69 63 58 52 51 54 40 43 46 41 36 29 26 30 26 24 22 14 13 18 20 19 17 13 9 6 5 5 9 14 12 9 5 7
40 44 46 45 44 44 41 37 44 51 62 59 59 58 67 57 55 55 51 48 37 31 25 25 24 26 23 16 13 17 19 18 15 11 7 5 4 2 3 9 12 10 6 1
40 47 50 50 49 49 45 51 51 51 52 55 60 55 62 67 50 49 49 48 37 32 30 24 18 23 19 22 15 15 18 16 12 9 5 3 2 2 2 5 10 10 10 5
37 49 50 54 52 55 60 65 57 67 57 40 56 63 55 59 57 54 54 48 45 38 27 28 19 22 17 21 15 13 16 14 9 6 3 2 1 3 5 5 6 12 13 10
30 43 53 56 60 59 57 62 86 82 74 63 56 68 67 63 65 62 56 54 50 45 39 35 29 22 22 16 11 12 14 12 6 3 3 1 3 4 6 6 7 7 12 15

GFSCGP_250_spd_045.txt.gz
Wind_Speed
126 123 114 105 102 100 99 98 97 93 93 96 90 86 86 86 91 87 82 79 78 71 71 70 71 76 77 73 72 70 71 72 75 76 77 76 76 77 78 76 69 62 61 57
126 125 118 117 115 110 106 101 102 100 102 98 97 90 87 86 83 86 84 81 78 76 76 73 74 78 71 70 70 71 74 78 80 77 76 76 75 73 68 61 59 56 53 53
123 119 121 121 121 116 112 107 109 106 106 98 94 90 86 84 84 82 79 76 74 75 72 73 76 72 70 71 73 76 79 81 80 75 71 73 67 59 56 51 47 47 49 50
120 122 120 122 120 125 118 111 108 109 106 99 97 86 83 78 78 79 78 75 72 74 74 74 72 71 72 75 78 80 77 71 69 70 70 60 56 50 49 44 43 45 46 48
115 119 121 122 123 121 116 116 115 113 108 106 99 92 80 88 76 79 80 80 76 74 72 72 73 75 77 78 77 68 64 66 65 64 59 57 48 50 43 40 40 42 45 45
112 116 118 118 120 117 112 117 119 114 112 110 104 100 76 86 86 87 87 79 76 76 74 75 78 76 72 67 62 59 60 58 59 56 49 43 42 42 37 37 41 42 43 42
117 113 112 115 116 113 111 111 110 108 105 91 90 88 71 79 80 87 85 80 75 71 72 71 69 62 59 58 53 48 51 54 50 40 38 34 35 32 34 38 39 41 39 35
118 117 112 111 110 111 109 107 105 102 96 89 87 74 67 73 71 73 72 69 67 65 61 59 54 54 51 47 44 43 49 45 39 29 26 29 27 33 35 36 39 34 30 31
112 117 116 113 109 107 106 104 101 100 97 90 81 67 66 65 66 66 62 55 56 52 51 51 49 46 42 37 37 42 39 32 22 19 22 25 31 32 34 37 31 26 27 31
98 107 114 116 113 106 102 100 98 95 92 85 78 70 62 65 68 64 55 49 49 49 45 44 43 32 33 30 34 34 29 18 16 20 24 26 31 31 35 30 23 22 25 22
88 94 105 111 113 113 108 101 95 87 80 73 71 67 67 67 65 63 55 51 48 44 42 41 29 32 24 24 29 20 18 17 19 22 25 29 28 32 32 22 18 19 20 19
83 88 95 101 109 112 112 107 99 88 77 67 58 55 60 61 65 56 52 43 41 40 38 34 28 24 19 20 18 16 17 19 21 23 28 27 28 31 25 16 17 18 17 20
71 82 91 91 94 102 105 106 101 92 82 69 58 47 53 54 54 47 44 38 41 38 34 26 26 20 17 18 17 18 17 19 20 23 25 24 28 28 19 12 14 17 17 21
54 76 89 90 85 84 91 97 97 91 80 71 55 53 52 54 51 41 37 41 36 31 31 23 20 17 18 15 19 19 18 17 20 25 23 26 28 24 15 11 13 13 17 20
47 57 71 82 79 69 73 79 88 86 82 73 66 60 57 61 52 41 38 39 37 31 30 27 22 16 20 17 21 22 16 18 21 25 23 27 27 21 15 10 9 12 16 20
39 45 52 64 70 64 63 64 69 77 80 76 70 65 65 71 56 47 41 41 37 33 33 30 22 21 22 19 21 21 16 18 23 24 24 27 26 19 13 9 8 11 15 19
27 31 39 46 50 55 58 62 60 66 75 77 71 69 73 71 59 53 48 46 42 38 35 31 22 24 21 20 23 26 23 23 27 23 24 28 25 18 12 12 11 12 13 18
22 26 33 41 41 49 57 63 61 60 66 71 77 73 78 73 60 57 53 51 45 39 35 34 26 24 18 19 19 24 23 24 25 21 24 27 25 17 13 12 12 11 13 14
17 21 23 25 30 36 46 57 60 60 61 66 75 75 77 66 61 58 56 53 45 40 34 31 25 26 19 19 17 18 18 21 22 21 25 26 22 18 13 12 13 11 12 15
19 22 25 28 32 35 41 51 56 58 62 67 73 76 75 62 56 55 54 52 46 41 34 30 29 25 20 19 17 16 18 18 22 22 25 24 16 12 8 14 15 11 10 14
27 28 27 32 38 41 45 51 60 62 63 66 70 71 66 54 58 53 47 37 36 36 39 35 32 26 21 19 16 15 16 20 20 21 23 20 12 8 8 14 15 11 9 12
29 31 33 32 34 38 43 50 59 64 58 64 64 54 47 55 54 50 47 36 30 28 36 39 32 25 24 18 15 14 19 19 19 21 22 16 9 8 7 12 15 13 8 9
31 33 32 32 32 34 37 42 55 60 62 60 47 48 53 55 61 58 50 42 29 43 38 31 27 26 25 19 15 11 15 19 18 20 20 12 7 7 5 9 13 11 6 3
28 31 32 34 34 34 34 38 48 57 55 47 46 53 54 64 64 53 50 46 49 43 33 30 27 21 19 21 17 12 14 17 16 18 17 7 4 5 3 7 11 7 6 1
27 31 32 31 35 34 33 40 47 59 57 49 48 50 60 66 60 54 47 41 45 39 34 26 25 25 19 18 16 13 11 11 13 15 11 5 2 2 1 4 9 9 8 5
28 33 32 32 39 45 52 50 51 62 65 57 53 65 71 69 59 52 50 50 47 41 34 27 23 25 25 21 12 12 8 8 11 12 8 3 2 2 2 5 7 11 11 8

GFSCGP_250_spd_048.txt.gz
Wind_Speed
121 121 117 113 112 109 107 111 113 114 111 107 103 98 103 105 102 95 93 92 89 83 73 78 76 77 77 78 77 77 78 77 77 70 71 75 79 85 81 76 75 68 61 58
124 118 116 119 120 116 112 107 105 107 108 104 99 95 97 95 94 91 83 79 72 72 73 75 75 78 79 77 77 76 74 73 70 70 75 79 82 77 75 72 64 60 58 55
122 117 119 122 123 119 115 110 105 103 105 101 95 94 88 84 82 79 76 74 74 74 74 75 77 78 75 71 72 71 69 68 69 72 77 79 74 72 69 60 56 55 55 50
119 117 119 121 123 125 119 114 115 110 106 103 98 91 86 80 79 75 75 75 74 74 73 74 75 73 69 71 70 69 70 72 74 76 71 68 69 65 56 53 52 51 47 46
119 117 116 119 119 121 122 119 119 120 119 111 103 95 76 79 74 76 81 79 75 72 67 67 68 70 72 71 71 72 72 74 73 66 65 65 59 54 50 48 48 43 43 45
111 118 118 115 115 117 118 118 117 115 113 114 103 101 75 80 80 83 80 79 76 73 72 73 75 74 71 72 70 69 70 65 61 61 60 56 51 49 45 43 39 39 42 43
103 112 117 116 112 109 109 113 114 114 109 98 107 107 83 85 85 84 82 82 79 81 78 79 76 77 76 75 72 68 61 58 57 54 53 50 46 42 38 34 35 37 40 39
94 103 112 114 111 110 104 104 109 111 104 99 100 93 81 83 82 81 84 83 81 80 77 72 71 70 70 69 65 55 55 52 51 51 46 42 41 36 33 33 34 38 39 32
90 96 103 110 110 111 107 101 100 103 102 101 92 83 84 80 79 82 84 83 73 67 64 63 60 57 55 53 50 49 48 45 46 45 39 35 34 31 32 34 36 38 31 27
82 90 94 104 109 110 109 104 100 95 91 91 87 83 73 73 76 82 76 66 59 58 57 54 48 45 44 43 43 44 41 41 38 32 28 30 29 32 33 33 37 31 26 25
69 84 91 91 100 107 107 104 100 93 84 78 79 77 75 75 74 76 67 59 55 53 49 46 43 41 41 40 39 37 39 40 28 25 26 25 28 31 29 35 31 25 22 23
60 75 86 88 92 96 99 103 100 94 83 75 70 70 71 67 68 74 66 59 52 50 46 44 42 40 38 33 35 36 35 25 22 24 22 23 28 28 30 31 27 20 19 22
52 64 76 85 83 85 89 94 98 95 89 76 67 59 61 61 61 68 58 54 53 49 46 43 37 37 32 32 33 36 25 16 19 22 20 25 26 26 28 26 22 17 17 22
46 56 66 76 78 76 76 81 87 89 86 80 62 63 57 55 57 62 47 49 47 43 40 38 35 33 32 27 28 27 21 18 19 19 20 25 24 25 26 21 16 13 14 20
37 44 52 58 66 71 69 67 71 73 83 72 71 65 60 56 55 45 39 41 42 40 38 38 36 31 30 22 23 17 18 17 16 18 22 27 24 24 23 16 12 10 13 19
26 35 41 46 52 57 63 61 56 62 72 77 74 66 63 60 57 43 36 39 44 42 42 41 37 32 30 20 21 17 17 17 22 23 27 30 25 23 21 14 11 11 13 17
21 27 34 36 38 47 59 62 58 57 61 72 75 71 69 66 64 47 39 45 47 45 43 40 36 31 25 21 21 18 19 21 25 28 27 26 24 23 21 14 12 9 9 15
15 19 25 31 33 39 50 55 59 56 59 65 77 78 76 74 66 51 44 46 47 46 43 39 35 29 21 21 19 17 19 17 18 19 25 23 23 23 18 17 12 8 8 11
15 22 25 30 35 39 47 56 61 63 62 62 72 79 76 77 70 53 47 48 48 45 42 36 31 29 23 19 19 17 17 13 16 19 27 22 22 22 16 16 11 6 7 10
16 19 22 29 36 39 43 53 59 63 64 62 68 79 79 83 65 61 56 54 50 45 41 37 34 32 24 21 20 17 16 12 14 22 24 20 22 20 13 10 8 7 6 9
16 17 19 24 31 37 42 49 58 64 69 66 68 77 84 86 68 60 55 56 53 47 42 38 37 30 24 22 18 19 13 11 18 23 20 20 21 15 10 7 6 8 7 9
17 19 18 20 27 33 38 46 57 66 66 67 70 79 87 83 69 62 60 58 52 46 42 41 33 28 22 19 18 15 10 10 14 20 16 19 19 11 9 6 7 8 5 8
15 14 18 18 20 24 31 40 50 58 59 63 69 76 84 71 65 62 64 61 51 44 44 40 35 31 26 21 21 16 11 10 15 14 16 19 14 9 8 6 5 6 2 5
14 16 18 18 17 18 24 32 43 55 59 59 61 74 57 66 65 64 61 49 44 42 39 38 35 35 26 22 24 18 11 12 15 10 14 16 11 8 6 3 5 6 7 7
14 16 17 16 17 18 23 31 42 52 52 54 52 54 63 66 64 62 54 52 52 46 37 25 29 27 26 23 22 20 13 11 8 7 12 12 8 6 3 1 7 9 10 8
13 19 20 24 27 28 31 38 48 45 39 39 50 59 63 62 63 58 57 55 43 45 44 36 29 30 30 25 26 19 13 9 5 4 9 9 5 5 1 5 10 11 12 9

GFSCGP_250_spd_054.txt.gz
Wind_Speed
116 116 113 117 121 114 114 112 110 109 116 120 112 104 105 108 108 98 89 85 80 70 66 64 62 63 60 62 65 65 66 70 72 75 70 75 69 67 68 69 67 69 71 67
114 117 119 124 123 120 118 112 109 114 115 116 110 101 104 109 104 101 99 94 85 79 74 74 71 68 69 69 70 70 70 74 73 69 72 66 67 66 68 69 67 67 65 64
113 111 120 125 127 123 119 116 113 113 118 113 113 104 103 106 106 104 99 97 97 94 91 87 82 83 82 80 75 73 69 74 66 67 64 64 62 64 68 68 64 62 62 59
107 112 116 119 120 123 123 117 119 119 117 109 112 101 105 103 101 104 107 105 100 97 98 97 93 87 81 80 74 70 72 72 63 62 62 62 61 64 67 65 59 59 58 55
92 100 107 110 113 118 116 121 121 120 114 113 111 97 97 98 96 95 94 97 100 97 96 90 85 81 80 77 76 70 73 62 60 59 56 60 62 66 64 58 55 55 52 52
78 84 92 99 100 106 110 118 120 116 118 116 99 100 92 95 92 94 95 95 93 90 88 84 83 82 83 83 78 75 67 56 55 53 55 61 62 61 56 53 53 48 49 50
62 67 69 76 88 94 98 108 116 115 114 103 99 104 91 93 89 90 92 89 89 85 82 87 88 81 69 65 62 58 54 52 52 54 58 61 60 56 50 51 45 47 47 47
53 57 62 64 72 80 88 97 101 105 102 100 101 100 87 94 93 92 89 85 83 80 77 76 72 66 60 57 54 55 51 52 55 57 60 61 55 49 49 43 43 44 42 45
44 46 53 56 61 67 75 84 88 91 98 102 102 89 89 90 93 93 90 83 80 77 72 67 67 62 59 59 57 56 56 54 57 61 61 56 48 46 41 39 40 41 41 42
34 36 42 46 50 57 62 72 78 83 89 92 97 90 85 88 93 95 90 83 79 74 70 68 66 63 64 61 58 59 56 57 59 60 55 47 43 42 35 39 38 38 40 38
29 29 33 37 44 49 55 62 70 76 84 85 90 88 90 85 86 87 83 83 77 73 70 71 70 67 63 61 60 59 59 59 54 51 45 40 42 31 35 34 34 37 36 38
24 24 28 33 37 42 47 55 62 71 78 78 87 93 89 87 81 81 79 79 76 71 68 70 71 67 62 63 62 60 54 50 46 42 39 40 29 30 30 27 32 35 35 37
19 20 23 28 31 37 44 51 57 64 71 71 82 82 83 83 80 77 72 72 73 69 68 67 67 64 59 56 52 49 47 42 41 39 39 33 27 29 28 29 34 33 34 33
14 14 18 24 28 34 41 47 54 60 66 74 77 84 86 85 80 71 62 63 64 65 66 63 60 57 52 49 47 45 41 39 38 38 35 26 28 30 28 28 34 32 33 30
14 12 13 20 24 31 37 44 49 58 66 75 79 81 82 78 72 66 62 61 59 61 60 57 55 52 50 47 45 42 40 36 37 36 27 26 30 31 31 29 32 31 31 25
11 9 11 16 21 26 33 40 49 56 65 72 76 75 77 77 75 72 63 57 51 53 56 55 52 53 49 44 43 41 37 36 35 27 27 26 30 31 29 29 31 30 28 22
8 6 6 11 18 24 31 37 47 55 62 68 69 73 75 75 73 69 60 52 49 49 51 52 53 50 47 44 43 40 36 35 30 26 24 28 28 28 27 31 31 30 23 19
9 4 1 5 13 20 28 37 49 55 59 60 63 65 70 73 71 64 55 51 48 48 49 49 51 50 47 45 42 38 35 32 26 27 28 28 20 22 26 27 28 27 20 15
7 3 1 4 10 17 26 35 47 53 56 58 59 65 70 73 67 60 57 54 46 45 46 49 49 48 46 44 40 36 32 28 25 25 28 21 19 23 27 27 26 21 18 13
7 5 2 3 8 14 21 32 44 53 58 61 61 66 71 69 64 67 60 50 46 46 47 47 49 48 44 43 39 35 33 29 26 27 23 18 18 22 25 27 24 17 13 15
11 9 6 1 7 12 19 30 42 54 61 64 63 66 68 65 69 58 55 50 46 47 47 49 50 45 46 42 35 32 32 23 25 23 19 15 18 21 25 25 20 13 13 17
12 10 8 5 2 11 16 26 39 53 59 65 65 66 67 69 67 61 59 52 48 46 47 49 48 47 44 38 34 31 25 24 24 22 16 14 17 20 24 21 15 12 14 19
13 10 8 6 2 8 16 25 37 50 61 63 67 69 71 73 66 64 61 55 49 45 46 48 49 46 41 37 33 32 27 25 23 20 14 15 18 19 21 16 13 12 14 18
11 19 13 8 4 7 14 20 33 46 59 61 67 69 69 71 66 66 63 58 52 48 50 51 49 44 40 36 33 30 26 24 23 19 15 16 16 18 19 14 11 13 16 12
14 20 15 7 8 10 14 20 29 42 54 57 63 68 69 64 69 67 64 59 53 49 51 52 49 45 41 36 30 28 26 23 23 15 12 13 14 17 16 12 11 15 14 11
12 19 15 9 9 13 17 21 27 38 47 52 58 63 62 69 71 69 65 59 54 52 52 49 47 43 40 33 29 29 25 23 21 14 13 12 14 14 13 10 9 15 14 15

GFSCGP_250_spd_057.txt.gz
Wind_Speed
101 106 109 113 116 113 113 114 111 109 109 122 123 113 114 106 111 112 103 89 80 76 77 82 85 83 84 80 77 75 70 60 57 57 60 64 70 75 73 77 80 66 68 71
97 100 110 116 120 118 116 117 113 111 111 120 121 116 106 120 115 109 107 109 106 99 84 80 77 77 73 68 64 63 58 56 57 62 65 71 74 74 77 81 69 64 68 68
96 100 107 112 116 120 121 120 116 116 118 124 116 119 104 107 117 123 117 107 105 106 98 85 76 63 67 64 62 57 56 61 67 70 74 77 79 75 78 79 60 65 67 62
92 101 106 111 114 117 119 120 123 120 122 124 115 116 110 105 107 109 114 116 112 111 103 99 101 82 72 76 68 68 71 74 77 78 78 79 79 76 81 65 60 66 64 59
89 96 101 105 110 115 115 116 118 117 123 121 120 118 107 103 107 108 106 107 106 100 95 95 93 94 91 86 86 85 86 87 84 82 77 74 75 81 62 59 60 67 60 55
81 86 91 96 101 106 106 103 110 113 114 121 116 115 105 105 102 107 107 108 105 102 98 93 93 91 87 84 86 84 85 86 85 77 75 75 70 57 55 56 63 62 55 54
74 79 80 80 84 93 95 96 99 104 109 104 102 108 106 103 108 107 105 101 101 98 95 91 87 86 84 90 93 91 88 84 74 73 70 62 54 52 54 59 63 56 53 51
60 63 66 68 73 75 80 85 91 96 97 92 99 97 95 109 108 99 99 99 93 89 93 87 85 79 78 79 77 73 70 71 72 67 58 51 51 55 56 61 56 49 50 46
46 49 50 53 59 61 65 68 76 86 92 90 88 91 98 99 107 103 99 96 95 88 84 79 74 71 74 74 72 69 66 60 56 51 50 51 50 54 60 55 48 49 45 42
37 40 41 42 47 52 56 61 63 69 77 85 77 81 89 97 97 98 100 98 93 89 82 74 66 69 67 66 65 61 56 52 50 50 50 49 52 57 55 47 46 45 39 38
33 33 33 33 40 42 48 53 57 62 68 73 76 78 82 85 93 98 100 93 87 84 78 71 68 68 64 63 59 54 52 51 49 48 50 52 55 54 47 42 44 40 35 38
25 24 26 27 32 35 42 47 50 54 64 68 72 77 89 90 91 101 89 85 87 84 76 72 70 65 62 59 55 51 52 51 50 48 53 54 50 45 40 42 40 34 35 37
21 20 22 23 26 32 37 42 46 54 59 66 65 71 79 70 83 93 88 83 80 76 73 71 70 69 62 57 55 54 55 52 52 50 47 44 43 39 39 37 33 34 34 37
16 16 17 21 26 26 29 35 42 48 51 63 63 70 75 74 85 92 87 82 75 72 73 70 69 66 61 58 60 59 59 58 52 46 42 40 37 37 36 33 32 35 34 37
12 12 12 16 19 21 24 32 38 44 48 59 69 70 78 83 92 93 80 74 71 68 69 67 65 60 59 59 58 59 58 52 45 42 38 35 34 35 30 31 34 37 33 37
10 7 6 10 15 18 23 28 30 35 43 51 59 65 76 82 80 73 72 73 68 64 62 61 59 56 58 57 54 53 48 45 41 37 33 33 34 29 27 31 34 30 33 36
10 6 4 5 10 13 17 21 27 35 38 48 57 64 64 65 68 70 76 70 63 59 57 55 53 55 54 53 50 48 44 41 36 32 33 32 30 25 29 33 30 29 32 31
13 10 7 3 4 5 12 20 27 34 41 50 57 60 63 68 69 74 71 67 63 57 54 53 51 50 51 49 46 44 42 36 33 32 31 29 25 28 33 31 29 31 29 28
13 12 9 6 2 3 12 21 28 34 44 53 57 63 69 71 69 67 65 64 62 57 52 50 50 47 46 45 44 42 37 35 32 30 31 25 26 31 32 27 28 27 25 22
17 16 12 10 6 4 12 19 27 37 46 56 65 69 70 69 72 77 72 71 67 57 51 47 46 45 44 45 44 40 36 32 31 32 27 25 28 29 27 26 27 25 20 16
15 16 13 10 5 4 12 21 29 40 50 59 64 66 66 66 71 65 63 60 55 53 48 46 46 46 49 45 43 38 35 32 32 28 25 26 28 26 21 24 22 22 19 17
12 11 13 10 6 2 10 21 30 41 51 59 63 64 69 71 67 67 67 64 58 52 48 47 49 49 47 42 42 37 35 33 29 27 26 26 24 20 20 22 22 18 17 17
13 12 10 7 6 2 10 21 31 43 53 57 59 66 68 68 71 72 68 61 55 51 49 49 49 48 41 43 41 38 35 31 27 27 24 23 21 18 20 20 20 19 17 16
11 11 13 8 4 2 10 19 31 44 51 54 58 63 67 71 73 71 66 60 55 54 53 51 50 45 41 42 40 38 34 29 28 25 24 22 22 20 19 19 16 16 18 16
8 15 13 10 4 3 9 17 28 41 49 52 58 63 69 71 70 68 65 59 55 53 51 50 46 43 43 41 40 37 34 29 28 24 20 16 17 19 17 19 14 15 17 12
7 10 10 12 5 2 9 15 23 35 43 48 52 63 68 71 69 67 63 60 57 54 50 46 43 44 44 42 39 35 33 30 27 21 21 17 16 18 16 17 13 14 13 14

GFSCGP_250_spd_060.txt.gz
Wind_Speed
97 104 106 109 111 110 112 115 113 112 113 125 127 124 118 121 126 113 104 98 99 104 103 95 95 96 94 93 89 86 90 83 83 75 75 71 60 55 59 60 66 69 74 73
77 88 100 108 112 113 115 117 114 113 116 123 127 124 116 113 117 121 117 109 104 97 93 97 100 94 90 89 85 75 66 65 60 64 63 59 57 60 59 65 70 74 76 77
77 82 87 93 101 110 117 119 117 119 121 126 120 122 118 110 114 117 122 122 116 110 108 97 88 88 79 70 60 65 68 63 58 55 49 52 58 60 64 73 75 80 77 78
75 82 87 91 95 101 107 114 121 123 125 124 124 122 119 111 110 113 114 114 114 116 115 102 97 84 78 68 72 65 63 55 58 57 64 71 76 79 77 76 79 82 75 72
72 80 86 92 98 103 108 109 117 122 127 125 124 124 113 111 109 110 110 110 110 111 111 115 111 102 98 89 91 91 85 72 73 74 78 79 78 78 80 83 82 75 71 63
74 80 88 90 96 101 104 105 111 116 118 123 113 124 110 110 106 110 108 109 111 110 110 106 103 104 108 99 86 83 85 83 85 86 83 86 81 81 80 82 80 70 63 61
78 80 86 86 91 92 95 98 102 104 109 104 101 118 98 108 108 110 111 111 111 108 107 108 101 95 94 94 100 99 91 86 86 83 82 88 84 82 78 81 66 57 57 58
76 75 72 75 81 80 85 85 87 92 97 92 91 104 86 93 102 109 112 114 114 110 106 105 97 92 90 86 79 78 77 74 77 79 77 77 79 79 69 56 50 52 55 60
64 59 59 59 63 67 75 76 79 78 83 85 90 91 80 80 91 100 104 112 113 108 97 92 89 87 89 81 80 76 76 73 73 70 69 65 60 59 53 45 46 50 55 60
50 44 45 46 47 53 59 61 62 65 68 73 77 76 70 71 82 93 102 104 102 98 91 92 94 84 76 80 76 72 70 69 68 66 60 58 56 48 44 42 48 52 55 50
39 39 37 40 41 44 44 47 50 54 57 57 59 61 66 66 75 83 91 97 93 84 94 96 91 80 77 74 68 64 62 60 60 56 53 48 43 41 40 44 51 53 47 45
29 30 30 34 34 36 39 41 43 47 46 46 43 45 56 57 64 69 80 90 89 81 83 90 82 77 78 72 64 58 55 54 50 47 43 39 37 39 42 47 50 46 42 43
24 24 26 28 28 31 35 35 38 37 36 37 37 40 47 48 68 79 83 76 73 76 80 83 80 79 72 68 64 57 53 49 44 40 38 35 35 40 44 50 47 42 39 39
23 20 20 22 21 21 22 26 28 26 29 33 36 40 46 49 59 68 74 80 69 77 79 77 79 77 71 64 60 56 52 46 41 36 36 36 40 45 49 48 42 38 39 35
20 15 16 16 13 15 17 25 23 24 25 30 37 44 52 48 52 63 76 85 68 76 77 72 71 70 67 60 57 57 50 47 41 40 41 42 46 49 48 42 38 36 34 34
15 15 12 10 10 12 15 19 20 26 33 34 46 54 56 54 58 72 71 56 66 74 72 69 65 65 63 59 57 54 51 47 43 45 46 45 48 45 42 38 35 32 31 33
10 8 7 6 3 9 9 16 23 29 34 37 46 54 59 64 64 64 57 64 68 66 66 67 63 60 58 55 56 52 49 47 45 47 45 44 41 40 38 34 32 29 30 33
10 9 9 7 3 5 10 17 19 26 36 44 51 55 60 61 53 21 57 65 62 65 66 63 57 54 52 52 52 48 45 44 41 40 39 38 37 37 34 31 27 25 31 32
11 11 10 7 2 5 10 14 20 30 35 39 42 49 53 43 30 43 59 59 58 64 62 60 54 48 45 46 45 44 42 41 40 38 36 36 36 32 29 24 22 27 30 31
14 15 14 9 2 5 6 12 16 23 32 38 40 44 40 39 50 59 63 60 62 65 65 57 45 43 42 43 42 41 41 39 37 35 36 36 29 28 23 20 23 25 27 26
17 14 13 13 11 7 6 10 15 21 29 36 36 36 45 59 60 61 59 61 65 59 55 49 48 45 42 41 42 37 36 36 36 36 35 31 27 22 20 22 20 24 25 25
19 15 14 11 9 8 7 9 12 18 27 38 38 45 57 62 65 65 63 66 65 62 57 50 49 50 49 44 41 40 38 36 35 33 31 25 23 21 20 20 21 23 25 20
20 17 17 16 13 10 7 9 12 17 24 32 38 46 54 56 62 69 68 71 72 65 58 52 48 46 44 44 39 39 38 36 32 29 26 24 22 21 18 18 21 24 22 14
19 21 17 16 12 11 8 10 12 15 20 25 35 43 47 52 64 73 75 75 71 64 58 52 49 44 45 43 39 39 39 33 30 26 25 24 22 17 20 19 22 20 17 13
16 19 15 11 12 9 7 7 10 15 21 27 36 44 52 58 64 75 74 71 67 62 57 54 49 48 48 44 43 41 35 32 27 27 26 22 18 17 17 19 20 21 18 17
15 9 7 12 12 9 4 4 8 15 23 29 39 47 54 64 69 71 70 67 60 55 49 43 41 42 45 46 43 35 32 30 29 27 23 20 18 16 15 19 19 18 15 15

GFSCGP_250_spd_063.txt.gz
Wind_Speed
92 93 97 101 101 105 109 111 115 122 136 141 143 134 123 117 120 107 98 103 113 107 104 99 91 89 92 90 85 85 82 77 75 76 74 77 81 74 62 55 54 56 56 61
73 89 98 99 101 105 108 110 110 114 123 131 133 139 131 128 125 125 119 109 98 92 94 97 95 94 90 84 81 80 80 84 83 82 79 80 76 59 54 52 53 55 60 66
62 69 77 89 101 108 108 111 111 115 121 125 124 127 122 120 125 128 127 125 116 105 104 103 93 90 89 87 84 83 80 74 79 83 78 66 55 57 55 48 53 61 67 72
60 65 70 76 82 95 104 114 117 118 123 124 128 124 121 117 118 117 117 120 122 123 118 117 112 110 95 82 82 78 75 58 63 70 63 57 55 52 58 53 64 70 78 77
63 67 72 74 80 90 89 102 110 119 125 124 124 128 115 116 117 115 114 114 116 119 122 123 125 122 113 105 100 77 73 73 71 73 67 65 61 59 68 61 77 79 83 79
66 70 74 75 81 89 90 98 104 110 115 120 119 128 117 117 117 117 113 111 115 118 117 114 117 111 113 109 99 98 91 83 79 79 78 80 74 82 78 74 75 81 80 75
70 75 79 78 82 90 92 93 98 103 105 106 108 123 101 106 113 114 116 114 118 118 116 112 111 112 105 101 95 92 92 92 88 85 86 81 81 78 77 78 78 73 71 66
71 74 84 83 80 83 86 85 89 96 94 96 99 100 90 91 101 102 109 113 119 118 116 111 106 105 106 98 92 88 84 83 80 83 80 79 82 84 83 74 68 67 64 60
70 69 80 79 70 70 77 78 79 81 79 81 87 85 79 86 91 100 102 110 113 119 112 110 107 104 107 94 86 84 83 79 78 74 75 67 71 67 64 63 65 63 58 49
62 57 73 61 60 63 62 67 66 67 68 68 73 75 68 73 76 81 88 98 106 109 105 107 102 99 97 96 82 79 78 75 72 72 70 67 65 61 61 59 60 56 46 44
57 52 51 42 45 46 47 52 56 55 54 54 57 56 56 60 65 70 77 86 93 97 98 95 96 94 92 92 83 84 76 71 68 68 67 64 62 60 56 52 51 44 41 43
49 43 38 33 33 38 39 40 40 42 41 39 45 45 47 50 56 61 67 72 79 86 92 90 89 82 80 87 86 76 71 66 64 59 58 57 56 53 47 45 39 37 39 44
38 35 31 27 28 28 31 30 31 32 31 32 37 36 39 45 45 52 61 68 73 76 78 79 66 66 71 82 80 74 64 62 59 53 50 51 48 43 41 34 31 34 39 44
31 27 23 21 22 23 25 28 30 25 25 32 32 34 35 35 40 45 57 62 62 60 69 62 63 65 73 73 71 70 61 56 55 50 44 45 40 38 33 30 32 35 42 47
27 26 19 19 17 18 18 22 25 21 27 29 33 31 32 35 40 47 51 55 57 61 61 59 63 68 67 56 60 61 58 51 50 49 48 44 41 38 36 32 33 42 44 44
21 20 19 15 11 10 12 15 19 18 29 27 29 36 35 39 40 50 60 61 61 66 52 53 60 61 54 49 44 43 50 49 51 50 48 42 36 37 33 35 41 42 41 37
17 16 17 13 8 5 9 12 11 20 27 30 36 37 39 38 40 49 56 57 59 41 37 49 53 52 40 40 25 32 33 41 49 49 48 41 40 37 35 38 40 40 36 33
15 10 12 14 6 7 4 12 11 16 21 28 33 41 46 48 49 47 46 50 46 38 43 49 45 49 43 30 28 23 36 42 52 47 43 42 41 36 36 41 39 34 32 31
20 20 16 15 12 3 7 7 14 15 18 28 31 35 43 46 42 35 36 29 40 51 51 52 49 52 53 34 25 40 44 47 47 44 43 43 37 37 37 35 33 30 29 28
23 22 18 18 15 10 5 6 13 17 24 25 30 36 33 30 20 24 27 39 50 57 54 55 54 58 62 60 32 45 58 55 44 43 44 43 39 36 32 31 29 27 26 22
25 23 21 20 18 14 8 3 11 17 21 30 32 32 26 24 32 27 29 41 51 52 58 61 62 64 60 48 54 52 55 52 49 44 44 41 37 32 30 27 25 26 22 18
19 24 20 21 17 16 12 6 9 16 20 26 29 26 24 27 42 38 38 45 54 55 66 70 68 70 65 28 20 48 56 48 47 47 43 38 32 28 25 23 25 23 16 20
21 26 24 23 19 15 13 8 4 10 19 26 29 31 33 43 50 46 51 52 55 66 68 71 71 73 67 50 47 44 47 43 46 46 39 34 27 24 23 23 22 15 16 21
16 22 24 19 17 17 14 8 3 8 15 22 27 40 51 63 63 63 61 57 62 67 68 73 74 71 41 54 39 52 48 41 41 39 34 28 23 23 22 20 18 16 18 21
9 18 15 15 12 9 10 10 5 6 14 22 24 36 49 55 64 73 72 66 67 69 69 73 80 76 36 69 60 51 40 42 40 34 28 22 22 21 20 17 14 15 19 22
9 11 7 9 9 9 9 8 6 4 13 19 24 35 40 50 65 72 75 72 69 66 66 65 65 68 67 64 48 43 39 34 30 27 22 20 21 20 15 12 12 16 20 21

GFSCGP_250_spd_069.txt.gz
Wind_Speed
38 47 55 72 93 102 107 112 114 115 116 120 119 115 110 119 113 113 110 105 93 88 91 95 98 102 100 99 92 90 92 85 84 87 86 83 87 75 74 76 76 75 71 63
41 45 52 60 74 89 103 108 112 115 116 119 119 114 114 123 119 121 117 106 105 101 100 99 102 100 101 94 100 101 93 86 86 85 83 79 78 77 79 78 74 78 62 64
43 47 49 54 66 77 91 104 109 112 115 117 117 113 115 120 127 129 128 122 117 106 107 102 98 99 93 85 96 103 89 82 83 84 81 77 76 78 76 75 70 67 65 62
44 46 48 54 58 66 82 96 103 111 114 117 118 114 117 119 125 131 132 127 129 126 117 109 107 104 105 105 101 89 86 80 83 81 82 80 78 73 74 71 64 65 66 66
48 51 52 55 58 63 67 77 93 105 114 117 118 121 109 120 122 126 136 135 127 121 126 122 111 106 103 98 96 92 81 73 76 79 81 76 76 77 75 66 62 61 62 59
53 53 56 58 62 65 68 73 78 89 106 114 119 125 108 114 122 125 130 136 134 134 128 125 126 122 113 105 96 92 85 84 84 84 77 72 75 74 68 64 57 58 65 71
55 56 59 61 63 67 73 77 81 86 93 107 118 127 112 117 124 128 129 130 131 132 133 135 132 130 125 121 113 107 99 93 89 85 77 76 66 73 70 64 61 64 71 67
63 63 66 70 70 71 76 85 87 89 92 97 104 116 113 120 122 128 129 130 130 129 129 129 131 131 131 130 132 122 116 113 105 101 105 100 78 74 75 72 71 69 71 78
62 66 73 76 76 77 83 87 90 86 85 91 91 95 97 108 123 129 128 127 129 129 129 127 123 125 130 130 134 133 126 123 123 123 113 107 101 91 80 79 71 75 79 75
52 57 69 73 73 76 82 84 84 80 77 83 80 86 91 96 102 110 117 127 131 127 125 123 124 126 126 125 123 124 124 119 115 114 112 110 106 106 93 81 76 74 73 66
36 39 52 54 53 60 65 63 63 63 64 66 69 77 86 92 99 100 103 106 111 118 122 125 127 125 122 122 121 117 119 117 111 106 104 99 97 100 87 79 73 67 62 59
25 32 42 46 49 51 56 54 52 49 53 51 50 58 74 82 89 90 94 96 98 98 102 107 117 122 120 122 116 113 112 113 108 101 96 93 88 84 75 69 65 60 56 55
32 35 38 43 41 40 41 43 47 41 41 42 34 48 53 61 65 70 78 83 82 85 94 100 102 102 101 103 105 106 107 109 105 99 94 88 83 77 70 64 60 55 54 51
35 33 32 34 33 31 34 30 36 31 30 30 34 38 41 42 48 53 59 63 68 71 71 76 81 83 87 92 88 84 82 83 91 85 82 80 79 73 70 63 58 54 51 47
30 29 32 29 24 26 24 22 22 23 21 27 26 35 31 35 38 43 45 47 49 49 59 62 66 68 74 77 76 70 71 73 67 68 70 69 70 67 62 60 56 48 45 42
27 30 21 16 17 22 21 19 18 15 16 22 24 31 27 30 33 35 36 36 41 48 49 49 52 57 60 60 66 66 42 42 45 54 55 54 54 56 52 49 44 42 40 36
25 22 19 18 18 18 17 13 11 13 14 16 16 20 21 25 28 31 34 35 36 40 39 41 42 44 48 58 54 49 32 31 33 36 35 39 46 46 43 40 38 37 35 35
22 20 17 18 18 16 18 15 11 11 12 12 14 17 20 22 24 27 30 32 34 28 35 38 37 37 43 43 45 43 37 29 26 23 27 33 34 36 35 33 32 31 32 34
19 18 16 16 16 18 11 13 12 7 9 10 14 20 22 23 24 27 27 28 29 35 38 41 41 43 44 48 48 40 43 34 24 21 18 20 27 32 29 26 29 33 34 34
18 17 17 14 15 20 19 16 8 6 8 12 16 19 19 22 22 22 25 35 39 47 49 55 56 64 68 64 58 49 44 35 22 14 17 19 25 24 25 24 27 28 31 34
15 17 16 15 14 18 15 15 9 6 4 10 16 20 20 19 21 18 25 38 45 56 63 74 80 74 66 66 58 50 43 40 24 15 16 24 20 17 23 21 24 26 29 31
11 15 14 16 14 16 12 12 8 5 5 10 20 20 21 16 19 24 46 60 60 70 84 84 78 67 73 66 61 56 43 36 27 25 28 31 21 20 18 17 21 23 28 32
11 13 12 18 13 12 14 11 7 3 7 12 22 32 29 33 41 48 62 64 75 85 84 79 74 76 70 65 60 53 32 41 44 54 41 31 27 19 20 22 23 27 29 32
11 13 13 16 12 13 13 13 11 4 10 16 28 35 48 52 59 66 67 82 92 89 84 83 78 72 73 66 58 52 36 44 58 50 40 31 25 21 22 26 32 30 29 29
8 10 11 11 11 11 13 15 13 7 10 18 37 47 57 64 73 76 81 97 92 91 83 82 78 74 67 65 54 42 49 52 48 39 30 26 28 26 28 33 38 31 27 27
10 10 8 9 10 14 15 13 12 9 11 22 41 55 62 77 79 85 97 106 93 88 96 87 79 77 66 61 46 44 47 52 49 42 30 28 28 28 34 40 33 27 24 23

GFSCGP_250_spd_072.txt.gz
Wind_Speed
41 38 39 42 50 71 89 98 107 112 118 119 125 130 131 132 130 124 107 102 103 97 98 100 104 102 106 103 103 99 96 96 92 88 85 85 86 76 72 76 76 75 78 78
39 43 40 40 45 51 72 94 101 106 112 117 121 123 131 135 135 133 130 115 112 109 106 103 96 101 101 105 106 97 93 93 93 91 89 83 79 78 77 77 77 81 80 76
41 43 45 46 45 49 56 76 93 102 108 112 118 119 123 128 131 134 134 128 118 118 116 119 109 102 104 104 97 90 90 90 93 95 91 87 86 83 78 82 83 85 76 74
44 46 46 48 51 50 54 62 74 94 103 109 113 114 119 125 128 130 133 131 125 111 111 111 117 99 103 100 92 86 82 90 88 88 85 86 83 80 82 86 81 79 70 70
46 49 49 51 52 52 55 58 64 74 95 104 109 115 112 120 127 132 131 134 132 125 116 113 99 91 90 97 99 99 97 92 89 87 84 81 78 85 89 78 80 72 68 68
54 51 52 54 55 55 56 59 63 66 78 89 104 114 111 115 123 128 132 134 137 137 127 117 120 119 107 98 94 102 105 94 87 85 68 71 78 69 69 70 76 69 70 66
62 60 58 58 58 57 60 64 66 67 71 76 87 104 106 114 116 125 130 133 135 134 134 130 126 126 128 125 115 104 94 89 87 86 83 77 74 65 63 73 74 66 66 58
65 67 66 67 63 62 64 67 71 70 75 76 82 85 92 111 118 125 129 133 134 134 132 134 131 131 127 132 129 124 121 114 97 82 82 74 75 68 69 72 74 58 60 70
52 62 69 71 69 68 70 75 76 75 78 80 83 84 84 96 111 125 129 133 136 135 133 134 132 130 131 127 132 132 126 121 117 112 100 83 78 75 81 93 89 87 85 78
42 45 59 62 62 66 71 77 80 82 79 79 80 83 83 89 95 108 123 129 133 135 136 133 131 129 128 127 126 127 127 127 121 112 105 101 101 101 101 106 101 100 93 88
31 35 50 51 50 54 56 60 65 70 73 75 74 69 84 83 95 98 102 110 121 130 133 133 131 127 126 127 124 120 120 120 119 118 115 109 105 106 108 109 105 102 102 94
28 28 36 38 37 41 45 49 50 53 62 64 57 66 69 75 85 94 100 100 103 106 114 123 127 128 127 123 121 119 118 116 114 111 109 106 103 98 100 105 105 103 94 87
29 34 37 38 39 40 43 39 42 46 54 57 51 56 57 63 72 78 84 90 92 94 96 99 106 110 119 121 119 116 114 114 112 109 106 102 98 95 91 89 89 84 80 81
29 34 31 36 37 31 36 37 36 38 43 46 41 51 47 48 55 61 66 75 79 82 84 86 87 91 94 96 103 111 112 114 110 106 104 101 97 95 91 88 85 81 76 70
32 32 28 32 32 31 33 25 26 27 34 36 38 43 41 41 44 49 54 60 62 63 66 67 65 70 76 82 83 84 88 97 104 106 103 99 94 92 87 82 79 75 71 64
36 29 27 29 26 25 25 21 23 21 23 29 34 33 36 32 34 42 44 44 49 52 53 52 53 51 52 59 66 74 75 70 75 80 81 81 83 84 82 79 75 72 64 61
35 31 25 31 19 22 24 20 19 20 18 26 27 29 29 28 27 30 33 38 42 39 37 38 39 36 43 52 56 56 65 63 61 57 55 57 58 55 55 56 51 48 45 44
35 28 25 29 18 22 15 17 17 18 16 21 21 24 21 22 24 29 31 33 29 27 28 32 31 32 38 47 50 51 57 51 47 38 37 40 42 41 38 38 37 37 34 29
31 26 23 24 21 22 14 13 11 17 14 18 18 19 19 20 24 24 22 19 23 28 29 26 26 36 36 34 28 39 39 34 36 37 37 38 38 37 35 33 33 28 27 28
26 24 20 22 19 24 15 12 10 14 16 16 16 17 18 20 22 18 17 20 23 27 29 32 35 36 35 33 36 40 48 46 42 36 35 34 33 33 32 29 26 25 24 23
27 20 19 20 18 22 15 12 12 12 14 15 13 13 14 20 20 22 21 22 27 28 35 41 44 43 47 49 55 49 50 50 48 43 42 38 34 33 29 23 20 20 23 22
21 18 17 17 14 16 17 12 9 10 9 13 12 15 15 19 23 23 25 31 44 49 51 52 58 59 60 66 62 64 63 59 55 49 40 41 34 28 21 21 22 17 18 17
15 17 17 19 11 17 15 13 5 8 9 12 14 15 22 30 34 28 37 44 51 58 65 68 69 62 66 65 69 73 69 66 59 51 44 38 33 20 22 20 11 10 10 11
18 19 19 15 14 15 14 14 10 11 13 11 17 21 32 38 45 47 53 57 67 72 76 76 74 70 79 74 70 69 65 61 57 55 51 37 23 21 14 12 9 7 9 16
21 19 18 18 15 16 15 16 13 14 14 16 20 30 42 47 61 62 65 81 87 89 89 85 82 77 73 70 67 64 59 57 58 49 38 37 33 29 17 10 7 9 17 23
18 18 17 16 18 19 22 18 16 15 16 20 23 40 52 57 72 75 96 94 95 88 85 80 73 66 60 59 70 59 59 57 43 48 47 52 33 22 12 10 10 15 22 25

GFSCGP_250_spd_075.txt.gz
Wind_Speed
43 46 47 48 51 51 55 63 73 85 97 106 110 107 113 122 125 127 124 125 125 112 104 107 106 106 103 107 107 98 81 92 94 99 92 86 86 81 80 79 71 70 72 68
44 44 46 47 49 50 48 52 62 75 88 98 110 110 111 117 122 128 130 134 133 124 116 107 107 105 102 106 104 102 102 100 75 96 97 96 91 91 86 80 75 75 74 73
44 47 45 46 48 49 48 47 50 60 75 90 101 112 115 118 121 125 133 135 136 132 126 121 108 111 109 104 101 102 104 99 99 100 92 93 90 84 81 76 81 78 74 69
50 47 49 49 47 47 50 48 48 51 61 79 92 103 113 117 120 124 129 134 135 133 129 126 116 114 106 99 100 97 97 101 102 100 93 95 92 85 83 83 83 78 73 67
55 53 51 52 52 49 49 50 51 51 55 63 82 96 99 111 119 121 127 130 134 138 136 126 129 128 121 116 108 107 101 96 93 93 94 97 94 93 90 78 82 77 72 70
55 56 57 56 54 54 53 52 53 53 55 56 65 87 88 101 116 119 122 126 129 134 139 138 121 126 131 130 127 117 110 102 97 94 91 88 87 87 81 81 75 68 73 74
44 50 56 61 61 58 56 58 57 57 58 58 61 65 77 92 105 117 121 125 128 130 132 137 139 133 113 113 125 127 121 113 105 98 92 101 84 73 70 68 71 74 74 70
34 40 48 56 60 64 63 62 62 60 62 61 62 59 67 84 96 108 119 125 130 131 130 132 140 138 132 120 98 99 107 102 101 101 92 92 81 79 74 71 81 79 74 68
34 37 40 45 51 59 66 70 70 65 65 65 66 68 70 80 95 106 114 121 127 130 133 135 136 138 138 134 131 115 101 92 86 80 80 75 69 65 62 63 70 69 63 62
34 32 42 39 41 47 53 65 71 71 69 70 70 72 76 85 89 95 106 113 122 128 132 135 135 135 136 136 135 134 122 108 99 93 78 75 72 66 64 65 71 79 71 66
35 34 41 42 37 38 43 50 59 63 67 71 74 75 86 91 91 90 93 100 112 123 130 134 134 134 135 134 134 132 132 129 124 117 107 100 101 90 83 83 86 96 94 79
39 33 39 41 38 38 35 38 43 47 54 60 65 68 81 82 86 88 90 91 97 104 113 124 133 133 131 130 129 130 128 126 124 122 118 113 109 106 102 100 105 104 101 97
40 39 35 39 39 38 38 40 41 43 49 57 57 60 66 69 72 73 74 85 93 98 102 104 109 118 127 123 120 121 121 121 120 118 114 110 106 103 98 97 98 101 107 103
38 41 38 33 35 36 38 41 41 40 46 49 56 52 62 54 57 54 57 69 76 85 92 93 94 98 97 102 112 115 114 114 113 113 111 106 101 99 97 96 93 91 87 84
39 42 39 33 31 31 35 38 36 36 42 43 54 55 44 47 45 41 47 55 62 64 69 74 74 74 80 85 88 93 101 108 110 107 108 106 102 99 94 91 90 88 84 79
42 41 39 36 28 28 31 34 29 31 39 37 44 51 41 40 39 36 37 41 44 48 50 52 55 55 55 62 74 80 80 84 93 99 102 103 103 100 93 90 88 85 80 79
45 40 37 37 22 20 32 25 29 31 31 30 38 40 35 35 30 28 28 33 33 35 36 36 36 37 39 47 59 68 72 69 66 74 85 93 97 98 95 91 87 78 74 72
43 38 36 35 17 22 31 25 29 28 29 26 28 29 27 26 25 23 24 23 23 24 24 24 24 28 32 36 43 49 49 50 57 56 60 64 69 73 80 82 80 76 76 74
40 37 30 28 16 21 27 19 27 30 34 18 21 20 20 19 19 18 16 14 15 16 16 20 25 30 30 29 27 32 33 18 37 35 43 40 39 40 44 49 51 53 53 52
38 30 22 18 17 22 8 16 22 23 24 18 18 15 15 14 12 11 14 17 17 18 21 25 32 29 32 33 32 43 70 74 52 41 44 37 36 38 41 41 43 42 40 39
33 24 16 12 14 19 12 19 19 18 18 17 13 9 9 11 10 16 20 22 23 27 25 31 31 29 27 44 57 55 74 59 44 42 44 42 39 36 35 35 36 38 37 36
28 22 16 13 13 17 16 18 16 17 15 14 10 8 11 13 22 26 26 27 27 28 29 32 30 32 36 42 54 56 52 50 52 46 46 42 40 38 39 42 42 41 38 32
24 21 17 15 15 16 14 16 15 13 15 15 6 10 15 21 30 33 32 32 36 33 35 39 40 46 46 52 55 57 54 51 58 51 47 53 54 52 49 43 37 31 31 26
23 19 19 15 14 14 14 14 11 12 15 14 9 16 21 30 35 36 37 35 39 37 46 47 51 59 61 62 63 59 56 63 68 67 64 60 52 44 40 34 28 23 22 18
22 21 19 15 16 15 12 13 14 16 16 14 12 19 27 37 38 38 40 43 45 49 54 59 65 70 68 66 69 70 72 71 74 71 64 54 47 41 37 36 26 23 14 8
19 19 17 17 16 18 23 21 13 17 18 15 19 23 36 42 45 49 47 51 56 62 69 71 67 70 70 72 77 78 77 79 74 68 62 59 43 37 34 31 21 14 8 5

GFSCGP_250_spd_081.txt.gz
Wind_Speed
67 69 69 71 71 74 78 81 84 89 94 100 101 105 108 111 107 107 108 110 113 127 127 128 131 122 106 106 108 109 100 97 91 92 77 85 84 77 76 78 71 70 72 76
47 62 67 70 72 72 74 73 76 80 86 87 90 93 104 109 112 110 111 111 109 115 128 131 130 130 127 110 99 107 106 105 98 100 96 86 80 81 82 79 78 76 79 79
26 37 50 63 70 72 73 73 72 72 75 75 81 86 90 99 106 109 113 114 113 113 118 125 128 126 128 124 101 93 100 100 102 100 99 87 84 81 86 81 79 81 68 67
35 29 32 43 56 67 72 75 73 69 69 69 75 74 79 85 90 101 109 113 115 118 116 114 123 128 129 128 125 108 98 95 99 100 98 93 85 79 76 76 79 66 59 59
41 40 38 33 39 48 60 71 75 73 71 69 69 72 69 79 81 87 93 100 109 117 118 118 116 119 126 131 130 128 124 98 96 95 101 98 96 85 85 80 84 81 77 69
47 47 45 43 35 39 44 55 64 72 76 72 66 73 65 74 79 80 79 85 93 106 116 117 118 118 119 124 129 130 131 124 107 100 88 96 100 99 98 88 86 84 79 70
51 53 51 51 43 37 40 42 50 61 70 72 74 70 67 77 71 73 76 76 79 90 103 114 117 121 118 118 119 121 125 128 123 118 106 94 101 103 102 93 83 81 72 67
55 60 59 58 53 42 38 40 41 50 60 67 80 75 72 75 72 73 72 70 72 79 89 103 115 118 121 120 120 118 119 121 129 130 125 111 105 95 93 98 89 82 76 74
59 61 66 64 64 48 41 39 40 42 50 60 67 72 75 72 78 72 70 71 69 71 79 89 104 116 121 123 122 122 120 118 120 125 128 126 110 105 89 90 92 90 83 83
63 60 69 72 69 62 42 38 38 41 44 50 56 68 73 82 81 74 72 69 71 70 71 80 92 107 119 126 126 126 124 121 118 118 120 124 122 115 112 105 98 90 87 90
66 65 70 74 77 65 47 36 37 37 41 47 50 58 70 79 83 73 75 74 72 72 73 74 82 93 105 118 127 128 126 124 122 121 119 117 119 121 117 118 109 101 94 92
70 66 71 77 78 64 46 39 37 36 38 43 48 47 62 69 76 71 81 78 76 75 75 77 78 83 94 105 117 127 128 126 124 124 123 120 118 119 119 121 117 111 108 108
72 73 77 78 76 62 44 38 38 37 38 36 46 42 58 60 69 68 68 73 77 78 78 80 81 83 85 93 103 110 120 128 129 126 125 122 118 115 112 113 113 110 107 108
77 78 82 79 66 55 44 37 36 36 36 39 32 47 56 62 58 54 55 61 66 73 77 82 83 85 86 86 89 97 105 112 121 128 129 127 123 118 112 110 108 107 102 99
74 79 84 73 56 46 38 33 36 34 35 31 39 43 52 58 47 43 47 53 55 59 62 67 74 81 81 81 82 83 87 96 104 111 120 127 125 123 121 115 108 101 97 93
80 82 78 64 49 38 34 38 36 34 30 28 33 37 44 44 41 44 48 49 50 49 51 54 58 57 61 64 70 78 80 81 85 93 103 109 117 124 123 117 108 94 82 80
82 84 69 54 43 38 36 33 30 29 27 28 30 36 32 35 39 42 43 43 41 40 42 43 43 42 43 45 47 52 59 66 72 76 77 85 97 105 108 107 106 89 88 77
82 74 56 44 37 31 26 23 23 23 25 23 24 28 29 31 32 32 32 24 24 28 30 30 30 29 32 32 31 33 37 42 49 55 63 70 76 80 88 95 92 95 90 81
79 63 47 37 32 29 22 16 16 18 22 20 23 26 24 23 24 28 23 23 22 21 22 19 20 19 13 13 12 12 15 20 27 35 44 52 60 69 72 77 84 95 92 90
72 55 43 34 29 25 22 20 17 18 17 17 17 19 20 20 20 26 20 21 20 20 20 18 16 24 32 28 25 21 16 10 12 22 33 41 49 62 67 68 78 93 99 101
64 50 39 32 26 22 19 17 17 16 17 14 17 19 18 19 20 23 15 19 21 20 20 23 46 55 47 44 41 35 23 18 8 7 20 32 43 55 63 64 69 88 85 85
60 45 35 31 27 21 16 13 14 14 16 18 18 18 18 19 19 15 18 21 21 21 27 49 63 63 62 55 48 48 37 20 18 2 15 23 35 45 54 56 59 63 72 75
53 38 31 29 25 17 12 11 14 17 18 19 20 16 15 17 16 14 22 23 24 28 50 74 69 64 63 57 46 41 32 19 20 20 19 23 30 38 46 45 45 51 57 64
45 31 27 26 23 17 14 15 16 16 18 20 19 18 13 17 11 16 22 25 27 50 70 74 70 66 66 52 44 45 34 34 22 24 23 23 30 39 42 40 42 47 52 61
37 27 25 23 22 23 17 19 20 21 20 20 20 16 17 17 11 20 23 28 36 72 73 77 66 66 61 50 53 50 47 40 26 22 18 19 22 28 35 40 42 46 54 57
30 26 24 20 20 20 22 21 17 18 18 16 15 14 18 11 16 20 24 30 44 79 76 75 67 67 58 55 56 49 49 51 43 38 19 18 21 30 37 39 38 36 39 38

GFSCGP_250_spd_084.txt.gz
Wind_Speed
27 37 48 64 71 74 79 84 89 94 101 107 107 103 107 108 109 108 106 107 108 109 113 118 127 122 117 117 122 118 101 97 102 104 96 96 93 89 84 81 74 69 75 75
24 24 27 33 47 59 71 78 81 83 88 97 97 103 104 107 110 115 114 113 111 109 111 113 113 120 123 121 124 128 122 110 109 112 111 103 102 93 86 81 77 70 65 63
29 28 27 26 28 33 47 59 72 80 85 87 86 88 93 98 107 114 115 116 114 114 115 116 109 110 114 127 131 129 128 123 111 101 100 103 102 97 94 87 80 72 67 65
35 36 36 34 31 30 32 40 51 63 75 82 88 82 83 86 93 100 106 111 115 118 118 121 112 109 108 112 132 131 128 127 122 121 113 107 103 103 94 93 86 77 72 70
44 40 39 40 42 38 38 37 39 49 59 68 73 86 71 83 85 88 96 100 101 107 114 122 117 114 111 109 115 126 133 131 126 125 118 104 92 96 99 89 87 86 84 73
48 50 46 44 44 46 47 43 42 44 50 55 56 76 68 80 86 85 91 86 85 92 99 106 116 117 115 113 116 116 118 122 130 128 124 112 98 94 100 91 97 97 80 76
58 53 55 51 47 52 55 53 46 43 47 47 50 64 64 77 87 88 87 75 77 80 89 94 99 106 116 115 115 116 114 116 119 128 126 122 115 106 95 96 94 85 86 82
62 53 61 60 56 53 60 61 58 40 44 48 45 50 59 66 81 85 84 72 72 78 82 84 87 89 97 110 116 118 119 119 114 114 123 129 120 112 109 92 89 96 89 79
63 58 60 63 64 64 64 66 66 56 41 48 44 47 51 61 73 78 82 77 77 75 79 79 80 82 88 92 103 114 119 120 117 113 114 116 124 117 113 107 101 98 89 88
68 67 63 64 67 68 72 73 72 64 41 45 41 45 49 56 64 71 76 77 79 76 76 78 75 76 79 84 87 96 109 118 120 118 113 114 114 123 117 111 109 97 97 92
67 73 65 68 69 72 74 78 74 57 47 40 44 41 44 51 59 62 69 74 77 78 77 76 75 74 76 77 79 84 95 106 116 118 118 116 113 114 118 111 103 104 109 102
73 76 70 70 71 75 79 81 66 49 39 37 41 34 50 45 53 59 64 65 72 77 77 76 74 75 75 76 75 78 84 94 106 115 119 118 116 115 113 113 107 108 102 97
77 80 79 76 76 80 84 75 59 45 34 34 39 32 52 48 50 54 62 62 63 65 78 78 76 75 76 76 76 75 77 83 92 106 116 120 116 118 116 112 108 106 99 100
76 78 79 80 77 83 74 57 50 45 33 35 35 39 49 51 44 54 56 56 57 46 61 71 75 76 75 76 76 76 76 77 84 92 105 115 120 118 113 114 111 108 104 100
78 79 80 80 79 78 61 46 43 39 33 32 38 33 44 47 49 49 52 49 38 44 48 56 65 69 72 76 77 76 76 76 80 84 91 100 109 117 116 112 110 110 106 97
84 83 84 82 82 68 50 40 36 34 32 31 37 36 46 47 46 46 44 38 33 41 48 48 49 52 62 68 71 70 71 74 73 75 77 86 96 104 112 116 113 108 104 102
83 83 84 79 75 56 44 35 35 33 32 32 33 34 38 39 36 35 37 38 42 44 44 39 46 49 48 50 51 53 56 59 63 65 68 73 78 88 93 98 110 112 105 101
83 81 78 78 61 47 40 33 30 31 33 30 30 31 34 32 31 31 35 38 34 33 37 38 37 38 36 33 31 31 35 41 45 48 53 59 67 76 78 81 86 97 107 104
79 78 76 71 53 42 35 30 27 26 26 25 27 27 28 22 25 30 33 25 30 29 30 30 26 24 19 13 13 14 15 18 26 31 38 44 51 62 72 73 76 83 92 97
77 74 74 62 48 40 36 31 26 23 22 22 18 18 22 23 23 29 26 23 17 15 12 8 8 16 28 29 26 21 15 10 4 11 22 32 38 44 57 69 71 73 82 97
73 70 68 53 42 35 30 27 27 26 24 20 19 19 20 23 22 20 9 8 9 9 12 26 49 44 37 33 31 27 21 13 7 6 17 30 36 40 47 61 68 70 73 94
67 69 60 46 38 32 28 24 23 22 22 21 18 20 21 19 17 10 8 8 10 20 57 59 51 48 41 36 32 31 25 20 15 12 14 21 29 35 43 50 59 62 67 80
67 65 51 40 34 28 25 23 22 22 24 20 22 20 16 16 15 7 8 12 25 71 63 60 54 50 44 39 37 26 21 16 17 12 9 10 16 22 30 41 51 58 65 71
64 55 42 34 30 26 23 26 24 27 24 25 23 21 14 15 10 10 14 23 53 67 60 60 53 48 47 44 35 27 22 25 24 23 9 4 9 15 23 30 39 51 57 61
57 44 34 27 26 30 26 25 26 28 28 25 24 16 14 15 8 15 21 39 76 65 59 58 50 53 52 46 39 34 26 28 33 21 26 19 15 18 25 33 39 46 50 52
47 36 29 23 23 25 30 32 33 30 24 22 22 18 9 12 16 20 32 67 72 63 62 54 51 58 53 40 38 36 25 19 24 31 27 33 37 39 41 43 43 42 43 43

GFSCGP_250_spd_087.txt.gz
Wind_Speed
23 22 23 22 28 42 55 74 82 88 98 106 105 105 100 103 103 104 103 106 107 106 109 111 104 111 113 113 118 117 117 112 105 98 98 99 98 95 92 83 84 90 80 77
31 27 25 25 24 25 28 33 46 59 79 94 97 105 105 106 106 105 108 113 112 110 109 110 104 106 109 107 114 120 120 119 114 111 105 97 99 104 101 94 86 90 87 80
35 37 33 30 29 26 30 29 31 33 44 55 74 87 95 100 107 109 109 111 117 114 112 112 106 104 107 107 107 111 120 123 120 117 112 113 91 94 95 90 89 97 89 83
41 40 41 40 36 32 33 33 33 32 34 37 54 63 71 83 98 103 105 111 110 114 117 118 115 107 108 107 105 108 111 116 123 122 119 115 115 101 95 93 91 92 92 90
46 44 44 47 45 41 40 40 39 38 37 31 43 65 48 67 79 94 105 105 107 110 112 116 115 113 111 113 111 108 110 111 113 114 121 120 121 117 114 104 100 101 95 88
48 50 49 49 51 51 46 47 47 45 43 34 51 60 45 57 67 69 81 98 104 101 100 102 106 111 110 112 116 116 113 110 111 110 109 116 125 123 119 116 109 99 99 89
52 53 55 57 55 57 55 57 53 49 51 42 59 54 49 56 58 62 72 77 90 96 94 91 96 100 102 104 110 115 117 115 113 111 109 109 112 124 128 124 117 106 99 89
52 52 60 61 62 62 62 61 64 57 55 47 59 56 49 54 51 58 63 69 75 84 89 87 92 92 90 90 93 101 109 116 117 113 112 110 107 109 117 123 121 107 107 103
56 55 59 62 64 67 69 68 69 68 65 52 42 53 57 55 49 52 58 62 69 74 76 85 89 85 81 82 85 88 93 101 110 114 114 114 111 108 109 112 120 118 107 102
60 58 63 65 67 67 75 75 72 73 71 69 51 47 52 55 47 53 56 60 64 64 68 67 83 86 82 78 76 79 80 86 94 99 107 113 115 111 107 107 105 108 104 100
66 64 64 66 68 68 76 79 78 75 85 72 46 39 52 48 43 51 53 55 60 60 58 59 71 81 85 81 77 75 76 77 82 86 92 100 108 113 110 107 107 105 102 101
70 70 68 68 69 69 76 75 78 78 79 71 50 31 53 49 46 48 53 55 56 58 56 57 61 70 78 81 80 78 75 75 77 80 81 85 94 101 110 108 107 105 103 101
69 72 72 70 72 76 76 77 78 83 72 54 41 28 44 50 42 47 51 52 50 49 50 54 55 61 70 75 80 80 76 74 75 76 77 79 85 89 98 107 110 106 105 104
71 72 77 72 73 78 76 77 79 75 60 51 37 31 43 51 45 44 44 45 47 47 44 42 49 48 58 66 71 77 78 73 74 74 74 75 77 81 89 98 104 109 108 105
71 72 76 75 80 79 81 76 78 62 51 45 39 34 41 50 46 39 39 42 47 43 42 34 31 37 51 60 61 64 70 76 71 70 72 76 76 77 83 91 97 103 108 108
74 73 76 77 81 80 77 76 66 52 43 38 33 33 41 42 46 44 38 39 42 43 38 34 41 43 45 48 54 58 56 60 68 71 71 74 73 74 77 86 88 95 103 107
74 76 74 77 78 79 75 73 56 45 40 33 28 30 37 40 39 38 41 40 38 36 36 36 35 40 40 43 44 46 47 49 52 56 62 68 69 75 74 77 81 86 94 100
72 74 76 77 77 76 77 62 47 42 34 28 26 24 25 31 31 32 32 35 29 28 29 29 29 31 32 35 38 38 40 39 38 40 43 50 60 68 73 73 73 78 83 91
72 73 74 73 72 74 69 53 41 36 27 26 25 20 18 16 21 25 26 27 22 23 23 22 23 22 23 20 18 18 20 23 25 27 29 33 38 48 61 70 73 71 74 81
67 69 68 69 69 70 57 45 40 33 26 22 23 22 17 16 16 24 18 20 21 19 15 12 10 10 10 9 9 8 6 5 4 2 12 20 28 35 45 58 69 69 64 71
66 66 67 66 68 59 47 39 34 29 27 24 20 19 16 14 13 19 15 16 16 15 13 16 23 28 26 28 26 21 15 10 5 12 16 20 26 31 38 46 56 62 60 64
63 64 62 65 59 45 37 33 30 28 29 24 24 19 17 17 17 15 13 11 17 24 30 45 38 37 34 30 27 22 16 14 12 10 11 19 26 31 33 36 43 48 51 57
62 60 62 58 48 38 32 30 29 29 30 29 23 20 14 18 15 12 13 21 29 49 52 40 45 40 35 32 29 26 25 24 20 18 16 18 20 23 30 31 33 39 46 52
56 59 59 49 41 37 31 28 27 31 27 27 29 25 15 15 14 13 23 39 65 56 53 51 46 40 35 32 27 28 29 26 24 20 13 12 12 16 21 27 28 35 40 46
55 57 49 38 37 34 25 26 27 31 30 25 22 23 19 13 9 23 40 66 65 59 55 48 45 39 38 30 33 35 36 32 35 28 15 10 4 9 15 21 25 32 39 50
56 49 38 33 27 26 30 33 34 30 28 17 14 15 11 13 23 32 56 66 65 59 54 47 43 41 38 39 41 40 39 37 37 39 16 17 17 16 18 20 24 30 42 47

GFSCGP_250_spd_090.txt.gz
Wind_Speed
14 15 17 17 21 29 34 42 61 75 81 95 97 94 98 100 103 105 105 103 102 105 107 110 116 110 103 104 110 111 111 115 113 113 112 110 107 104 97 94 85 95 79 94
22 23 21 21 19 19 24 30 36 39 49 64 69 80 94 99 102 108 109 110 110 112 112 112 113 110 108 104 106 105 107 109 111 113 114 113 112 107 100 97 96 93 101 97
30 28 29 30 28 27 27 22 25 32 41 43 42 41 52 68 87 100 106 112 114 118 120 119 116 111 110 106 108 105 102 103 107 109 111 113 114 112 106 104 98 97 102 102
33 33 34 35 37 34 34 33 29 29 29 33 39 33 45 54 57 69 83 99 111 112 122 122 123 115 110 108 110 111 107 104 105 108 107 108 108 111 112 108 102 97 97 100
38 38 37 39 41 41 38 40 38 38 33 31 34 37 40 51 54 64 73 81 87 98 111 116 124 120 116 111 111 114 112 110 109 109 107 104 104 104 106 108 106 109 107 96
42 44 44 45 47 48 46 45 44 42 43 37 45 34 28 53 62 64 68 73 80 79 86 98 108 115 115 115 117 119 120 115 113 111 108 106 105 103 101 103 106 107 107 105
43 46 49 50 50 52 53 53 50 49 49 44 50 41 36 55 70 69 67 71 78 74 72 79 91 100 105 110 114 117 119 120 119 117 115 111 107 104 102 101 102 104 109 109
46 51 55 58 61 56 58 61 63 59 56 54 55 53 52 59 71 74 69 69 73 68 68 69 76 85 93 102 106 107 109 112 117 121 119 115 113 109 105 103 99 99 102 104
46 48 49 54 60 64 61 64 69 67 67 61 57 57 53 70 71 75 69 68 61 64 64 68 70 75 82 90 95 101 103 105 107 110 113 113 113 113 109 106 104 101 100 101
52 51 51 54 60 64 69 66 72 73 74 75 65 59 62 71 73 72 68 61 56 56 58 66 65 68 71 79 85 91 97 99 97 98 103 104 107 109 112 111 108 105 102 102
57 56 52 57 59 62 67 73 77 78 75 79 75 65 70 73 71 67 64 59 51 50 58 61 60 62 59 63 72 82 91 95 94 93 95 96 97 99 102 106 109 109 107 106
61 59 56 59 62 64 66 68 76 80 81 80 81 68 80 71 57 59 60 54 50 47 56 57 56 56 56 54 62 74 84 89 93 92 90 90 90 91 92 96 99 104 108 108
63 65 61 62 65 65 67 72 76 78 81 77 75 75 69 62 53 53 57 52 48 47 45 49 52 52 48 50 54 67 74 80 84 87 88 87 86 85 84 85 89 92 98 104
66 64 64 65 67 65 66 75 79 81 78 75 79 61 55 52 46 48 52 45 41 42 44 44 44 44 43 46 49 54 65 73 79 82 87 87 85 82 80 79 82 83 86 92
67 64 66 67 68 66 70 73 77 79 79 76 68 54 48 44 42 45 47 42 38 41 42 41 40 36 39 41 42 42 55 64 70 75 81 86 86 83 79 75 76 77 78 82
65 64 65 65 67 70 73 76 76 76 74 72 56 48 43 40 37 37 37 35 34 35 38 38 36 37 36 35 40 47 54 57 63 65 66 71 77 81 80 75 74 75 71 76
66 68 64 66 67 71 73 76 74 71 70 56 48 42 37 33 32 34 30 25 25 28 31 35 36 35 33 37 42 45 42 39 41 46 49 55 64 72 78 79 74 74 72 70
67 63 61 65 68 71 72 72 70 70 62 48 42 36 34 31 30 30 24 23 20 23 27 29 25 25 28 31 32 30 31 32 30 32 36 42 53 60 67 72 73 73 72 69
58 56 61 64 66 70 70 68 71 64 49 42 36 30 25 27 29 23 18 20 18 17 20 22 21 20 20 20 18 16 19 21 25 28 30 34 39 46 54 61 68 73 74 69
52 57 60 62 65 65 67 66 65 51 42 34 29 25 20 18 23 22 14 15 15 15 14 15 13 11 4 6 7 8 8 5 1 4 11 19 25 31 38 50 58 64 66 62
51 56 58 60 61 63 65 63 49 42 38 33 26 24 21 19 17 20 10 13 13 11 10 8 14 20 28 25 24 21 15 9 2 6 12 16 20 25 32 38 46 54 59 58
51 54 56 57 58 63 60 48 40 36 32 30 31 23 19 18 16 17 14 9 9 11 18 29 38 37 33 29 23 19 15 9 4 7 13 17 23 27 30 31 37 45 50 51
48 52 56 55 60 55 44 38 33 32 33 34 32 27 15 15 15 11 11 10 14 26 42 44 42 36 31 31 27 24 20 14 8 9 15 20 25 29 31 32 35 34 41 45
48 52 52 57 56 43 32 30 33 34 33 34 34 31 27 18 17 13 13 18 38 49 47 46 43 39 38 36 37 35 29 19 11 10 12 15 18 22 24 30 33 32 33 41
48 50 54 52 44 37 31 30 33 34 26 23 21 22 22 18 13 18 24 42 54 49 48 46 44 47 47 47 47 42 38 29 18 12 14 14 9 13 14 21 29 35 38 40
46 51 50 38 32 33 33 31 31 26 22 15 10 8 13 9 12 17 34 60 57 55 49 48 53 54 55 52 49 43 45 45 28 16 15 10 2 3 8 14 19 26 32 33

GFSCGP_250_spd_093.txt.gz
Wind_Speed
7 7 10 14 17 20 27 35 43 53 63 71 79 92 94 97 97 99 101 100 104 109 111 113 116 115 116 115 108 108 110 115 121 123 115 112 110 109 107 104 104 96 94 102
12 11 13 13 13 15 18 21 25 30 37 41 47 51 62 83 94 93 99 103 107 108 108 109 111 112 113 117 115 109 107 110 112 113 115 112 112 112 106 106 108 104 100 101
24 18 19 20 22 19 23 23 23 24 29 28 31 35 47 58 65 76 87 91 100 106 107 109 114 111 112 114 110 110 110 109 110 109 109 110 111 112 112 112 111 113 110 105
28 28 29 29 30 26 28 29 26 28 26 24 29 21 38 48 57 63 70 73 74 75 82 94 100 106 113 117 119 117 113 112 111 110 110 109 108 111 113 114 113 112 111 108
33 33 32 35 35 37 34 38 36 34 31 28 30 31 29 43 50 57 63 70 74 73 72 71 75 83 100 117 119 117 118 119 117 116 113 111 109 109 108 108 108 106 106 107
34 33 36 39 41 44 44 43 43 40 38 30 38 36 28 42 53 59 60 66 71 72 72 76 81 84 88 97 111 114 120 121 121 121 121 116 114 111 107 104 103 103 102 101
38 40 41 42 44 50 51 52 52 47 47 42 44 38 42 50 60 62 61 62 65 62 65 72 78 85 92 96 94 102 105 114 122 125 123 121 119 116 111 106 101 99 100 99
39 41 48 51 50 50 56 58 59 54 52 48 52 44 49 57 62 63 66 68 68 66 68 73 77 91 90 92 87 90 95 99 108 118 124 123 121 117 114 110 107 103 102 99
45 45 49 53 56 59 62 64 66 66 61 58 54 51 55 63 67 70 70 72 72 76 75 66 73 83 81 81 77 78 82 89 95 103 111 117 118 116 115 114 112 110 106 103
48 47 51 53 57 60 63 66 68 70 69 67 62 55 63 67 71 73 73 69 74 81 73 63 63 69 72 72 72 70 73 77 86 90 96 104 109 111 110 110 112 112 110 107
53 53 52 55 58 62 66 70 69 71 71 75 70 59 71 75 76 74 73 76 78 75 65 58 55 54 60 63 62 62 67 71 76 83 88 93 98 102 103 102 105 107 110 111
61 60 57 59 61 66 69 69 70 70 71 74 72 67 78 82 79 72 75 79 73 68 59 51 46 45 51 53 56 59 61 68 73 76 79 86 91 96 98 97 97 99 99 99
62 64 64 64 65 68 69 70 68 72 74 69 73 73 80 82 79 76 74 69 60 60 56 47 43 40 45 50 49 51 54 57 61 63 70 76 80 87 93 97 97 95 95 95
65 66 66 65 66 68 67 67 70 72 71 70 77 78 84 81 78 73 60 56 56 55 52 45 35 41 44 46 48 50 52 54 55 57 65 71 75 82 85 89 90 90 92 90
70 67 67 66 68 66 65 67 69 70 70 73 78 82 80 79 74 60 53 52 47 47 44 37 33 38 40 42 45 45 44 45 48 53 62 71 75 74 78 82 83 84 85 84
69 67 66 67 67 65 68 71 65 66 71 75 78 78 76 77 63 55 47 42 41 41 40 35 33 38 37 41 42 43 43 48 51 55 60 65 68 68 67 69 75 78 81 82
68 66 66 65 62 67 68 64 64 68 71 74 76 73 73 64 57 46 38 36 37 40 39 40 37 37 33 35 35 40 45 46 48 50 54 56 61 63 65 66 69 72 74 75
66 64 62 64 66 62 60 61 66 68 71 72 70 71 62 53 49 38 33 33 30 32 38 38 35 35 33 31 33 36 39 39 38 38 37 39 47 53 58 61 59 61 68 70
58 55 55 55 54 55 57 63 66 66 69 67 68 60 52 42 39 40 29 27 24 23 26 27 26 26 24 22 23 23 24 24 25 28 30 34 38 40 43 48 55 61 64 63
52 49 45 45 48 56 62 61 62 63 66 66 55 49 44 38 32 40 22 23 21 19 18 17 15 14 14 14 14 15 14 12 9 12 16 20 24 29 36 42 48 54 56 56
38 38 40 45 51 57 59 61 61 63 62 54 49 43 34 30 30 32 21 17 16 12 9 9 8 9 14 17 18 17 16 15 14 15 15 15 17 20 25 32 39 46 48 50
33 36 43 48 51 54 56 60 65 61 54 46 42 37 31 29 28 27 23 11 10 4 10 18 28 29 25 21 18 13 10 8 8 9 12 17 20 24 29 30 34 38 42 44
34 41 45 46 50 52 57 61 56 50 45 42 38 38 34 27 24 28 18 10 18 30 38 38 36 33 29 23 17 11 5 4 8 12 16 20 24 29 32 34 36 33 32 35
36 40 43 46 51 55 56 49 46 42 41 43 42 38 34 24 15 14 8 20 34 48 45 43 38 31 31 27 24 19 13 7 6 8 13 21 25 29 31 34 35 36 35 32
36 40 43 49 53 52 43 40 38 39 33 26 24 22 22 15 3 9 20 31 49 55 52 49 43 42 43 46 45 37 24 13 9 11 15 20 21 20 25 26 30 32 33 31
36 40 47 51 47 41 37 36 33 28 21 13 9 8 6 3 10 16 29 52 56 54 57 52 49 49 48 50 50 46 42 42 26 15 16 18 15 12 16 20 25 28 29 32

GFSCGP_250_spd_096.txt.gz
Wind_Speed
8 11 16 19 22 26 30 36 43 54 60 64 70 75 80 87 89 91 94 98 101 103 106 109 109 112 112 112 115 114 115 119 125 127 128 123 116 114 111 111 110 108 107 107
11 9 11 14 16 18 19 21 25 27 32 33 38 45 52 67 75 79 81 84 94 100 105 105 105 104 103 102 104 104 107 109 111 115 118 123 122 119 113 111 112 108 107 108
19 8 15 18 20 21 21 25 26 23 28 26 27 29 38 46 51 58 64 69 75 78 84 88 100 104 107 105 108 109 110 108 106 107 111 114 115 113 114 112 112 109 106 104
24 20 20 22 27 21 25 28 26 29 29 30 31 22 34 42 46 51 53 55 56 57 63 70 77 81 85 96 106 107 108 110 111 113 111 112 115 114 112 111 110 110 106 99
31 31 29 32 32 31 34 34 31 31 33 29 32 35 32 41 44 54 57 56 53 52 54 58 65 72 79 81 83 89 95 102 109 113 114 116 117 116 114 113 113 111 109 108
39 36 37 39 40 41 42 41 40 39 38 32 42 40 34 42 46 55 64 62 55 53 51 51 56 60 63 70 79 85 85 86 91 99 109 116 119 120 120 119 116 112 110 108
41 43 42 42 43 47 48 49 47 46 47 44 49 43 42 49 53 56 58 65 66 62 59 59 61 63 67 73 78 83 89 90 92 94 99 106 110 108 118 119 116 115 111 107
45 45 48 50 50 50 52 53 53 51 50 53 55 49 51 54 58 61 62 62 65 69 70 66 65 66 68 72 75 81 87 92 98 103 106 109 107 103 102 102 110 114 116 112
46 47 50 54 55 56 57 60 61 61 58 55 57 57 57 59 62 64 67 66 67 70 73 72 73 75 75 76 78 81 86 94 99 101 103 101 102 102 97 89 92 99 112 114
54 50 53 58 57 57 61 61 63 67 66 63 62 62 62 63 66 68 70 69 70 71 74 77 75 76 77 79 85 87 89 89 92 92 94 95 94 91 88 87 84 86 96 106
61 57 56 58 61 62 64 62 64 69 73 72 64 61 65 68 71 73 72 71 72 76 80 79 78 78 81 84 84 81 83 82 81 78 80 82 82 83 82 85 83 83 89 96
63 60 60 62 63 62 63 66 70 74 74 73 72 62 69 73 75 72 71 74 77 80 78 77 81 80 75 71 71 69 71 72 71 70 70 72 76 78 79 80 83 83 85 90
66 67 66 64 65 67 68 71 75 77 76 74 74 67 72 77 75 75 74 78 82 79 82 78 73 68 63 60 60 57 61 63 64 63 64 67 69 70 76 73 78 79 80 85
68 70 70 68 68 71 72 74 78 79 76 76 75 70 77 77 75 76 78 79 79 78 75 69 63 61 55 54 53 54 55 54 54 56 58 59 62 65 66 69 71 72 73 76
75 72 73 71 73 74 75 78 79 78 77 74 74 73 77 74 74 78 78 79 81 76 64 58 52 50 49 49 49 52 55 51 49 49 53 55 55 57 57 60 64 66 68 69
77 76 73 74 76 77 76 75 75 76 75 72 72 74 70 72 77 78 78 78 79 66 58 50 43 41 42 43 47 51 49 46 44 47 50 50 51 54 58 60 61 62 61 64
76 76 77 79 77 76 74 75 71 68 69 70 68 66 70 74 75 77 76 74 65 61 48 43 39 38 38 40 44 48 45 45 44 43 46 48 49 53 57 60 60 57 56 60
82 81 81 78 75 71 69 66 63 62 63 63 63 68 71 72 74 77 67 56 56 51 40 37 36 33 31 32 37 37 39 40 42 43 44 48 51 52 57 56 54 56 57 54
68 68 65 64 64 63 61 57 56 54 59 64 67 68 70 67 69 70 53 43 41 43 34 30 26 25 25 26 25 24 32 37 37 39 40 45 44 43 42 41 42 45 47 48
52 50 50 50 50 50 48 47 50 55 62 65 67 67 67 62 54 53 52 41 32 35 27 20 18 18 17 15 17 22 24 22 24 25 28 31 32 32 33 36 37 39 38 39
39 40 40 39 39 42 45 49 54 58 58 61 64 64 57 49 42 40 43 43 20 27 18 15 13 11 9 8 8 8 8 11 15 18 20 22 25 27 30 32 33 37 36 35
32 31 32 33 37 42 47 52 54 56 60 59 54 49 45 43 40 37 36 34 19 21 11 9 13 16 15 15 13 12 11 10 10 12 15 18 20 20 23 23 27 29 32 34
26 26 30 34 39 43 48 51 54 57 54 49 44 41 36 30 24 21 25 19 12 11 22 25 24 18 13 8 4 5 8 11 13 16 18 21 24 27 30 32 34 34 32 29
24 27 32 37 40 43 48 53 54 47 41 41 38 34 32 25 10 8 13 12 14 30 38 38 35 31 30 28 22 14 5 1 4 9 15 21 26 31 33 34 36 35 34 33
26 30 34 38 40 46 50 49 42 37 37 32 28 23 23 17 9 5 5 19 45 40 31 35 43 47 44 41 37 30 21 8 4 7 11 17 23 28 29 28 29 31 33 32
28 32 34 39 45 49 42 33 32 30 24 15 12 9 7 6 7 16 36 49 40 31 40 46 44 41 41 41 39 38 37 34 21 16 19 22 24 16 18 19 22 24 28 28

GFSCGP_250_spd_102.txt.gz
Wind_Speed
53 55 54 55 60 64 67 69 70 71 70 71 74 74 77 79 80 82 85 87 91 96 101 102 103 105 109 113 113 116 118 116 114 112 112 114 118 119 118 115 114 114 115 115
26 30 32 40 48 52 58 63 65 67 66 67 73 76 79 81 83 83 84 86 86 85 85 86 86 86 88 92 95 97 100 102 105 105 105 107 108 110 113 113 115 116 118 115
23 25 23 26 28 29 33 36 36 37 40 41 47 47 49 54 56 57 58 63 65 66 67 69 70 72 76 82 88 90 94 98 100 102 103 102 104 106 109 112 113 115 117 115
31 27 27 28 30 29 31 30 30 32 34 33 33 33 39 45 44 49 51 52 53 55 56 57 58 58 60 63 66 69 72 75 78 84 89 94 98 101 107 112 115 113 114 113
37 34 34 36 33 31 36 34 35 36 35 34 35 35 37 42 44 50 50 51 50 53 53 54 56 58 62 65 66 66 67 67 70 73 76 77 79 83 90 96 101 107 114 120
44 40 41 42 40 39 40 41 41 41 42 38 43 41 40 44 46 55 55 56 54 56 58 58 58 59 61 65 67 68 69 71 72 72 72 74 76 78 81 83 88 91 96 100
50 50 51 50 48 47 47 47 48 48 45 43 46 43 45 49 53 55 59 60 59 62 62 63 64 64 64 67 69 72 72 73 74 74 74 74 76 79 82 85 85 86 86 87
59 58 56 55 54 55 55 56 55 53 50 49 51 50 53 54 57 59 60 64 66 67 68 69 70 70 70 70 73 74 75 75 76 76 78 78 78 81 84 85 87 88 90 90
65 66 62 61 61 61 63 63 63 58 59 57 58 58 59 61 61 62 66 68 70 72 74 75 75 75 77 77 78 78 78 78 79 78 79 81 82 82 85 88 87 89 92 92
69 69 69 69 67 68 69 68 67 68 63 60 62 65 66 64 64 64 70 71 74 76 78 78 78 80 82 84 84 82 82 82 82 82 82 83 84 86 88 91 91 94 92 95
75 74 74 74 74 75 75 73 73 72 68 67 66 67 68 68 68 70 73 73 76 79 80 82 83 83 85 87 86 84 86 87 86 87 87 87 89 89 90 93 95 94 94 95
82 79 76 77 79 79 79 79 79 78 74 74 73 70 77 78 78 80 79 80 82 83 84 86 86 87 89 86 85 85 87 89 89 91 92 92 92 93 94 94 96 96 95 94
87 84 81 79 82 82 81 82 83 84 81 78 82 80 82 83 85 84 84 87 87 88 89 90 89 90 88 86 84 84 84 85 89 89 90 94 95 97 97 97 99 97 94 96
90 92 87 85 86 86 84 86 88 89 85 86 86 85 91 89 87 88 91 93 94 92 89 90 91 87 83 82 81 81 83 83 85 86 87 92 96 97 93 91 90 86 79 77
89 88 92 93 91 89 87 89 92 91 92 89 89 89 93 94 95 96 99 98 92 89 89 86 82 80 79 79 78 77 81 80 80 82 83 84 84 79 80 78 74 71 68 67
81 81 82 87 90 89 91 94 93 92 93 92 93 95 97 98 101 100 96 92 88 84 81 79 77 74 72 72 75 76 77 75 73 71 68 68 65 61 62 67 60 63 62 61
67 70 70 77 82 88 92 93 95 95 96 97 98 101 101 95 90 87 87 82 78 76 76 73 72 71 70 71 73 75 69 61 62 55 54 53 51 53 55 56 52 55 53 55
54 57 56 61 63 70 76 80 82 83 83 83 83 81 78 76 77 79 78 71 71 71 72 71 70 70 71 70 66 58 50 51 49 44 46 47 47 48 47 43 41 44 44 48
40 41 44 47 51 55 60 62 63 63 64 64 65 65 65 65 65 72 71 69 68 68 69 69 68 64 61 56 49 41 44 38 37 37 37 37 37 37 36 33 34 34 34 38
31 33 36 39 40 41 45 47 49 50 53 52 53 55 56 58 58 66 68 68 68 64 57 54 56 55 48 42 32 32 32 27 27 28 30 28 26 26 27 30 32 32 32 34
28 30 31 32 34 36 38 37 40 42 44 46 47 48 51 54 57 59 62 58 54 51 44 32 34 42 30 24 23 22 21 21 17 13 15 15 15 17 19 21 24 27 31 32
23 25 26 26 26 28 31 33 35 36 38 42 46 48 51 55 51 43 39 37 37 35 25 18 19 15 14 7 2 4 7 9 12 10 11 12 12 12 13 14 14 15 18 23
19 21 22 23 23 26 28 30 32 36 39 39 44 47 42 35 26 19 18 16 13 11 6 5 5 8 7 6 7 8 6 8 12 15 17 17 18 19 20 20 20 19 17 17
16 17 18 20 22 24 28 30 31 33 39 42 35 28 18 9 5 9 13 15 17 18 19 17 18 17 15 12 11 11 12 11 14 15 14 17 20 23 24 26 27 26 25 24
14 15 18 20 23 26 27 28 31 37 34 26 16 5 9 16 22 26 29 28 29 33 32 30 26 23 23 22 15 14 18 22 24 23 22 20 18 19 20 23 27 28 29 28
15 18 20 22 25 25 26 31 35 27 18 4 12 27 28 27 33 32 32 33 39 38 35 33 33 31 30 29 28 26 25 26 27 20 16 16 17 19 20 20 22 25 28 29

GFSCGP_250_spd_105.txt.gz
Wind_Speed
54 54 57 60 63 68 72 76 80 83 84 81 85 86 91 94 95 97 99 100 104 105 106 104 101 97 100 100 101 105 108 111 113 113 111 113 116 119 121 124 126 121 121 120
54 55 56 56 59 64 66 68 71 74 75 75 76 78 81 82 86 88 88 89 90 89 88 85 85 85 85 88 91 94 95 98 100 101 102 105 108 111 113 115 118 120 120 121
28 34 40 47 53 59 62 64 68 68 69 70 73 74 74 75 78 80 79 83 83 83 82 83 84 85 87 86 88 90 91 93 94 96 96 97 99 100 101 104 106 109 110 111
28 29 30 29 32 36 38 43 45 48 53 53 56 55 58 58 60 60 60 63 61 61 60 57 57 60 59 62 65 68 71 73 74 77 80 82 86 87 88 93 97 99 103 105
39 38 36 36 36 33 35 36 35 38 38 37 37 38 40 46 45 44 47 50 49 48 47 51 51 54 56 58 60 63 64 66 68 68 69 69 70 70 73 74 78 81 85 88
48 45 44 44 41 40 44 44 43 42 42 40 44 44 43 45 46 47 52 54 53 49 55 56 56 59 60 60 63 64 65 68 69 70 70 71 70 71 72 74 76 79 80 79
47 43 49 52 49 49 50 49 49 47 47 44 50 49 48 51 50 52 56 61 56 54 61 60 61 63 63 65 66 68 68 70 72 72 72 73 73 74 73 76 78 79 81 74
61 61 59 58 59 60 60 60 59 57 55 52 55 54 55 59 57 57 59 64 63 62 64 66 66 66 69 68 70 73 74 74 78 78 76 77 77 78 77 78 80 82 81 70
70 66 67 66 66 65 65 64 67 64 62 62 62 62 63 66 64 61 62 64 71 69 70 70 71 72 73 75 76 77 77 81 83 84 83 84 84 84 83 84 85 84 83 74
77 73 74 71 73 72 73 75 74 72 68 67 66 69 72 70 70 71 68 70 71 74 75 77 77 77 77 79 82 82 81 83 86 87 89 90 89 89 88 86 86 88 86 81
79 79 80 80 80 78 78 77 79 80 76 74 72 73 80 75 73 76 76 77 75 75 78 80 83 83 84 86 88 89 89 88 94 90 93 93 92 93 90 89 89 90 90 85
78 81 83 84 82 84 84 83 83 84 81 80 78 75 83 82 82 82 81 81 80 80 83 83 86 88 90 93 94 95 96 96 99 100 97 98 97 93 91 90 90 90 91 88
80 81 83 86 90 90 90 87 87 89 89 83 88 82 86 88 89 89 87 86 86 88 89 89 91 93 94 96 97 99 102 102 98 99 101 100 97 93 90 89 89 88 90 93
82 84 84 86 89 94 96 95 93 95 91 91 89 89 91 94 91 94 92 91 93 96 96 97 99 100 102 103 103 104 104 100 99 98 94 91 90 91 90 89 89 91 93 93
74 80 83 82 88 94 95 93 97 102 101 99 95 96 95 98 97 97 99 100 100 102 103 103 102 104 104 103 104 98 96 95 92 89 87 87 87 87 88 89 86 87 90 95
68 71 75 76 79 81 85 88 92 94 95 97 100 100 100 100 98 99 102 105 106 103 100 99 98 100 96 92 92 89 86 84 82 80 80 81 82 86 89 85 82 80 82 88
63 67 69 70 71 71 70 74 74 81 87 88 89 91 94 94 95 96 99 97 94 93 92 89 87 87 86 84 81 79 80 77 75 75 76 80 82 81 77 71 67 63 67 69
61 57 56 58 60 61 63 65 65 67 71 74 78 82 82 82 84 86 87 83 82 82 81 80 79 79 79 76 73 73 73 70 70 72 73 74 69 62 61 54 52 52 54 55
44 39 36 37 39 41 44 49 51 55 57 59 61 64 66 67 69 76 73 71 70 71 72 70 70 69 70 71 70 65 62 61 58 57 59 52 53 48 47 44 44 44 44 45
30 29 28 28 28 30 32 34 38 41 45 45 48 51 54 56 56 61 62 62 60 61 60 58 59 55 55 57 54 47 44 44 46 42 41 38 35 33 32 34 34 37 38 41
24 25 24 22 23 23 25 26 30 34 36 38 39 41 43 46 46 48 51 55 52 47 46 45 41 35 36 42 36 31 33 31 28 25 21 19 18 18 19 23 26 28 30 33
23 23 22 22 22 22 23 24 26 27 29 32 34 36 37 38 40 42 38 33 29 28 26 25 26 22 20 18 16 17 14 13 13 16 15 17 18 18 18 16 14 15 19 23
22 22 20 18 20 20 21 21 23 24 27 28 32 32 35 35 26 18 16 7 8 12 13 15 16 16 15 12 9 7 6 5 7 9 13 15 18 19 20 21 19 17 15 16
19 18 17 18 18 19 19 19 21 24 27 29 30 31 22 11 5 9 12 18 20 19 16 16 17 16 13 12 10 9 10 13 14 16 18 19 20 22 23 23 23 21 21 21
14 15 17 16 16 17 18 20 22 24 25 28 21 10 7 14 18 23 25 22 23 26 29 29 29 28 27 25 22 19 17 18 20 23 21 19 17 18 20 23 23 24 24 25
13 13 13 15 18 18 20 21 21 22 25 14 4 13 24 25 29 28 29 31 30 33 33 34 36 35 39 38 32 27 24 23 20 17 16 17 19 22 24 24 25 25 28 28

GFSCGP_250_spd_108.txt.gz
Wind_Speed
51 53 57 64 68 73 79 84 88 94 95 96 99 102 105 111 116 115 115 115 116 117 116 114 113 113 111 109 107 105 106 109 110 116 113 117 116 113 112 111 110 112 112 115
47 50 55 56 57 61 65 71 75 82 88 91 91 86 88 94 94 98 100 101 102 103 107 109 110 112 112 106 109 108 110 113 112 110 110 107 106 105 102 100 100 101 101 103
39 48 52 55 57 59 62 65 67 72 76 76 78 78 84 83 85 87 89 91 90 91 92 93 94 95 95 96 97 102 101 98 100 100 99 99 99 98 99 98 97 97 95 94
27 30 33 40 48 56 63 65 65 66 66 68 71 69 74 76 78 80 84 85 86 88 87 86 85 83 87 89 90 92 96 94 93 92 91 89 84 80 78 75 73 72 73 72
37 37 36 36 37 38 39 45 48 51 55 61 64 66 65 72 74 76 77 79 79 81 82 82 82 79 80 80 77 74 74 70 66 63 62 62 62 62 64 67 67 67 63 63
36 39 43 44 46 43 41 44 44 41 42 40 44 46 45 48 53 59 60 61 57 62 64 62 58 60 60 59 59 58 57 58 59 64 63 62 62 64 63 65 66 65 65 65
48 46 43 39 43 53 47 47 51 49 48 42 48 46 43 51 50 49 54 57 53 55 56 56 56 60 60 58 59 58 61 62 61 65 69 68 67 69 70 70 71 69 67 69
57 59 60 58 53 53 51 56 59 55 53 51 53 50 49 55 56 57 59 64 58 60 61 59 65 65 62 63 63 63 66 68 68 70 71 74 75 74 74 74 74 73 73 74
57 59 65 65 68 66 65 63 63 66 61 62 62 60 62 67 62 64 67 66 67 64 65 65 67 66 67 70 68 69 72 72 73 75 76 76 79 81 81 82 80 78 78 79
63 63 68 69 72 76 76 75 76 76 73 71 68 69 69 70 70 72 74 73 74 71 70 75 75 72 75 75 76 77 78 79 78 81 82 82 84 85 86 88 88 86 84 86
67 69 78 75 78 80 83 84 83 83 81 79 75 75 80 72 76 79 80 82 79 76 74 77 77 79 85 83 82 84 84 84 86 88 90 89 87 90 91 91 93 93 94 92
70 68 71 80 82 85 86 88 90 91 87 86 85 80 83 82 85 85 88 88 86 84 84 82 83 87 88 91 92 94 94 91 93 94 94 98 100 97 99 98 97 98 97 92
66 61 65 72 74 84 88 91 91 93 94 90 95 87 92 92 92 92 88 89 91 89 88 89 91 94 94 95 97 100 100 99 101 102 103 103 106 109 107 104 100 96 90 88
62 60 63 68 76 80 83 90 93 95 94 94 93 95 95 97 99 97 97 95 93 94 96 98 99 100 101 102 103 104 108 109 110 111 111 110 109 110 108 105 93 84 81 81
60 60 63 64 71 82 85 85 87 93 93 98 92 101 94 100 103 104 97 99 100 101 102 104 105 107 108 109 110 112 112 114 116 116 111 105 102 96 92 91 86 81 78 76
59 58 58 59 67 70 72 83 91 92 90 90 88 95 97 100 100 99 101 103 103 104 104 105 108 110 111 112 111 108 104 102 104 100 95 93 91 88 84 81 80 77 75 74
60 55 54 55 61 62 65 70 73 75 78 81 80 82 88 90 92 94 97 100 99 98 99 99 98 98 97 97 96 95 95 93 95 89 85 85 82 81 79 75 75 77 76 73
55 53 52 55 58 58 61 61 62 65 68 68 68 69 70 69 71 75 83 84 85 85 85 84 84 83 85 86 85 83 83 83 83 81 80 77 75 74 73 72 74 73 69 65
52 50 50 50 44 42 42 42 43 46 47 52 55 55 57 59 63 71 70 69 68 66 65 65 68 72 75 77 74 73 71 68 68 67 69 70 68 68 68 65 61 59 55 55
44 46 41 34 30 30 29 28 31 32 31 34 35 39 43 47 49 54 52 49 49 49 52 54 53 50 52 53 50 50 52 51 50 48 48 52 54 52 50 50 48 46 44 47
39 34 30 27 25 23 23 21 23 23 23 24 27 30 33 35 35 39 39 40 38 39 32 30 33 35 35 34 33 34 34 33 32 32 33 37 39 38 36 35 34 35 35 34
30 28 26 24 22 21 21 21 21 20 20 22 22 23 26 27 29 30 30 29 20 12 14 15 18 21 24 26 26 25 25 23 22 22 23 26 25 27 29 30 27 24 21 24
25 25 23 21 20 20 18 18 17 17 18 18 20 19 22 22 23 21 11 1 4 2 9 13 16 20 22 24 25 24 23 22 22 19 18 19 21 23 25 26 25 24 22 21
23 22 20 20 18 16 16 16 16 16 15 15 17 17 21 18 4 9 15 10 4 4 7 9 18 30 34 33 34 31 27 24 22 21 21 23 24 25 25 25 26 24 24 24
19 18 18 16 14 14 13 14 14 14 15 15 19 18 6 16 22 19 16 13 14 15 16 18 22 27 30 38 41 39 36 29 23 21 20 20 22 23 24 25 26 25 25 26
16 16 15 14 14 13 14 16 15 15 13 17 12 10 26 30 23 23 22 18 16 14 15 26 28 31 33 38 49 50 44 35 25 22 20 21 23 26 28 31 31 29 29 28

GFSCGP_250_spd_111.txt.gz
Wind_Speed
58 60 67 74 76 81 85 92 92 95 100 102 104 109 109 110 114 114 114 114 112 111 111 110 108 109 109 107 105 108 110 113 112 115 116 113 112 112 105 110 112 111 115 109
53 58 63 67 70 73 76 79 83 88 94 98 101 103 105 108 111 112 115 114 113 117 115 113 112 113 116 117 117 116 111 116 125 121 119 114 113 113 112 111 112 106 100 87
53 57 59 61 64 67 71 75 79 80 87 88 90 88 93 97 102 106 108 108 106 101 100 106 109 109 105 103 99 97 103 109 107 105 105 103 100 98 97 95 91 87 87 80
24 32 37 49 57 62 64 67 69 73 76 78 82 78 84 85 87 91 92 98 102 104 104 101 95 89 88 88 90 94 96 98 92 93 92 92 90 89 87 86 83 83 83 78
27 28 29 31 32 34 39 49 56 63 67 68 68 69 70 75 78 83 86 87 86 87 87 86 86 86 86 86 87 87 86 87 88 85 85 84 86 83 76 69 63 57 58 55
35 36 33 34 36 37 37 41 41 41 41 41 47 56 62 72 76 78 79 74 76 76 74 77 79 80 79 79 78 76 71 69 71 71 69 70 66 62 59 55 57 54 53 52
43 45 46 46 45 43 41 40 43 44 45 40 46 44 42 50 49 50 56 54 54 55 53 53 57 61 58 59 60 59 56 56 59 58 58 63 63 61 60 59 57 58 56 56
50 52 55 54 53 53 52 52 50 47 48 48 52 47 50 60 53 54 56 52 56 55 53 50 49 54 58 59 55 54 55 57 60 61 63 63 65 67 68 68 67 64 62 62
54 55 56 55 61 60 63 67 63 61 59 56 53 57 62 63 62 59 64 64 62 61 58 57 57 60 63 62 59 59 62 63 64 65 69 70 71 73 73 75 75 73 71 69
58 61 62 61 63 67 65 69 68 72 75 71 67 68 68 69 69 68 71 75 71 71 67 64 64 67 69 68 68 70 71 70 70 71 73 78 79 79 79 80 81 81 80 80
63 66 67 67 69 72 72 73 74 75 74 74 76 78 80 78 79 78 78 81 81 80 77 76 74 73 72 73 76 79 79 80 80 79 81 83 88 90 87 86 86 86 88 89
65 66 69 71 75 73 76 79 81 82 82 84 84 76 83 87 85 86 85 85 86 88 86 83 82 81 81 82 83 86 88 89 90 90 89 91 95 94 97 100 96 93 93 95
67 67 70 73 78 76 79 81 86 89 88 84 90 85 88 93 90 93 94 94 93 91 90 91 91 89 89 90 90 90 92 95 99 100 98 100 102 104 103 105 109 105 101 99
65 69 71 72 75 80 81 84 88 90 87 84 81 87 90 95 98 99 98 97 97 97 99 98 96 98 98 97 97 99 100 102 104 108 111 110 110 110 109 108 109 112 108 103
68 72 75 75 77 79 78 79 82 82 79 84 78 84 82 92 99 97 96 96 97 98 100 102 101 103 104 104 102 105 105 105 106 107 112 116 112 107 104 102 100 102 97 93
73 77 77 77 81 77 72 77 75 74 76 80 78 83 84 82 86 87 87 91 96 95 96 97 100 101 101 103 104 105 105 106 109 108 105 106 107 100 96 93 93 90 89 84
59 63 65 68 70 65 65 64 65 65 71 71 72 75 78 79 78 81 86 84 80 81 86 88 89 90 91 93 92 90 88 90 93 93 92 91 92 93 88 84 81 81 80 77
49 50 49 51 57 57 57 58 58 60 60 63 62 61 66 67 66 73 72 72 72 73 74 75 75 77 79 78 78 77 77 77 80 82 80 79 78 74 73 71 68 68 72 72
49 49 49 50 50 50 54 52 47 44 46 47 48 48 50 54 57 61 60 61 60 61 62 63 64 65 64 63 64 65 66 64 66 66 64 63 61 59 56 56 57 60 64 66
46 47 48 44 41 46 40 33 31 32 33 32 33 33 34 35 38 40 38 40 42 44 45 46 46 46 48 48 47 49 51 52 54 54 52 48 45 41 44 47 45 45 47 50
43 44 41 37 34 33 28 25 27 27 24 25 25 24 24 24 25 27 26 27 27 29 30 32 31 27 28 31 34 36 40 42 45 46 44 43 38 32 31 31 31 33 36 38
43 36 36 29 25 23 23 24 22 22 23 21 20 20 20 19 18 19 20 19 19 20 14 10 11 13 12 15 18 25 30 33 35 37 37 35 33 30 27 26 25 25 27 30
38 31 28 21 19 20 21 22 20 19 17 17 16 16 17 16 16 17 16 11 9 7 4 5 1 8 13 17 23 29 31 35 35 35 33 30 28 27 26 26 25 28 29 30
30 26 22 19 17 18 20 19 18 16 15 16 16 15 14 14 10 8 20 15 9 5 2 5 4 11 18 24 27 28 39 41 36 31 31 30 29 26 25 24 23 24 25 30
23 21 19 16 17 16 18 16 15 14 16 13 10 9 10 8 24 23 18 12 9 8 10 13 11 15 20 28 35 39 45 46 40 33 30 28 27 29 29 27 27 27 26 25
19 17 17 14 16 16 16 15 14 12 10 6 8 3 25 30 25 21 19 17 14 16 14 12 13 19 23 25 31 37 43 47 52 39 36 33 31 30 30 31 30 30 30 28

GFSCGP_250_spd_114.txt.gz
Wind_Speed
82 86 87 90 89 94 95 94 97 100 105 106 105 101 103 104 105 106 104 103 102 102 103 104 105 106 104 103 104 104 104 103 104 107 110 109 107 108 103 103 106 108 106 99
72 76 86 92 92 92 96 97 98 102 105 104 106 104 104 106 107 106 108 107 111 110 111 115 116 116 112 111 111 112 113 114 115 117 113 114 114 112 111 110 107 105 102 94
66 68 70 75 80 85 89 91 93 97 98 102 106 106 106 105 104 104 105 108 110 113 111 112 116 117 116 114 113 114 116 117 118 119 119 107 100 101 99 94 89 89 86 84
60 63 65 67 69 74 74 78 81 83 85 86 90 91 94 95 97 99 105 114 111 109 110 113 113 113 112 108 106 103 101 101 105 105 96 89 84 85 85 85 84 82 81 79
57 58 61 63 65 65 67 70 72 75 78 77 83 84 82 92 95 99 97 96 94 93 96 99 98 94 90 90 90 89 92 89 88 89 90 86 84 83 80 77 74 73 73 73
45 45 45 49 52 58 62 64 69 71 73 74 75 77 73 76 82 80 81 82 83 87 87 84 83 82 82 81 80 79 78 79 79 80 80 77 73 71 68 65 62 59 57 55
39 43 48 47 47 47 47 47 48 46 46 46 52 51 47 69 72 75 78 78 78 80 81 82 81 79 78 79 79 78 70 66 66 66 62 62 64 62 58 56 55 55 56 58
50 51 49 49 49 49 53 53 55 52 55 54 54 50 54 60 60 60 59 55 56 56 55 54 50 49 52 55 57 59 61 60 59 54 54 54 55 57 59 61 61 60 61 63
51 55 54 53 55 56 58 61 60 59 59 59 59 60 63 63 64 62 63 61 56 57 58 58 58 56 55 56 58 61 64 60 57 58 58 58 60 61 63 64 67 68 68 69
57 59 59 60 61 60 61 62 59 61 60 61 63 67 72 73 75 75 75 74 71 67 69 69 68 68 68 66 65 65 68 67 66 66 68 67 67 69 71 72 73 73 76 77
64 64 64 66 69 67 64 68 67 69 67 66 66 67 71 74 78 80 79 81 83 83 83 83 81 79 76 74 73 73 73 73 75 75 75 75 75 76 79 82 83 82 83 84
65 67 70 71 71 72 72 72 76 74 75 74 72 69 77 81 83 84 85 83 83 85 87 90 93 90 86 85 83 82 82 81 82 83 83 83 84 85 85 88 90 93 95 95
65 66 70 73 73 76 78 78 79 80 81 80 81 76 82 88 89 86 90 92 91 91 94 95 95 94 94 94 93 92 91 89 87 87 90 93 94 95 96 97 99 101 103 106
66 68 70 72 75 76 78 81 85 85 83 85 82 84 88 93 91 89 95 95 96 94 94 97 97 97 96 96 96 96 96 96 97 99 100 102 104 106 107 108 109 110 110 111
65 69 68 70 73 74 76 80 86 85 85 84 86 92 91 94 94 92 92 90 86 89 91 92 98 101 100 98 94 95 96 97 98 99 99 101 101 103 104 104 105 106 106 107
71 73 72 76 80 80 82 87 88 91 93 93 92 92 92 93 91 88 84 83 82 82 85 85 89 90 90 89 88 87 89 90 91 93 95 96 95 92 93 96 99 99 97 93
52 58 60 65 69 73 81 88 91 91 91 89 86 83 82 81 78 76 75 72 71 72 75 76 77 79 78 78 79 78 79 81 81 82 82 82 82 82 83 86 88 89 89 87
42 43 43 47 53 59 66 70 71 70 69 66 64 64 64 64 64 63 66 61 60 59 59 61 63 66 68 70 71 70 71 72 72 74 72 71 73 72 72 74 77 77 78 74
44 44 45 46 49 53 63 62 61 57 55 55 53 52 51 51 50 46 45 47 49 49 50 51 52 54 55 55 55 56 57 57 56 56 56 59 61 63 67 71 71 66 67 59
45 44 45 46 48 49 57 51 47 44 45 46 40 37 35 36 36 32 32 31 31 32 32 33 34 37 37 36 37 38 37 35 35 40 46 50 54 55 54 56 58 54 49 47
46 46 45 44 45 45 45 39 39 35 34 30 29 27 28 26 28 24 21 20 21 21 22 23 23 21 22 20 20 19 22 25 27 32 37 42 46 47 48 48 47 47 39 33
45 41 40 39 38 35 36 32 28 27 25 23 23 24 24 23 23 22 19 16 16 16 16 15 10 6 5 6 11 17 18 20 21 26 33 40 42 43 42 42 40 39 40 35
40 37 37 35 30 29 27 24 22 21 21 21 23 22 21 20 19 16 14 13 12 10 6 4 1 7 4 5 9 13 22 25 29 30 29 35 38 38 40 41 38 36 32 34
35 37 35 28 23 26 21 20 19 17 18 20 19 18 19 18 16 16 14 12 12 8 9 11 8 3 3 8 13 26 30 28 30 35 39 39 40 38 38 40 39 36 34 31
34 33 27 23 21 21 19 16 15 17 18 17 16 18 18 17 14 15 18 14 15 18 14 10 6 3 10 14 19 27 33 38 39 40 42 45 39 35 35 33 35 37 34 32
32 26 23 18 19 16 15 13 14 17 17 16 17 17 13 13 25 22 19 21 19 18 11 10 4 7 14 18 27 28 32 39 43 47 49 47 38 35 34 34 30 31 32 31

GFSCGP_250_spd_117.txt.gz
Wind_Speed
91 90 94 98 96 95 94 93 93 94 97 94 92 90 87 90 90 90 92 94 96 98 101 101 99 97 97 97 96 96 97 99 99 101 102 106 106 104 106 109 109 108 110 109
88 91 95 95 98 98 98 96 95 97 98 95 94 92 93 93 97 96 98 99 99 100 104 105 106 106 106 107 106 105 105 106 106 109 112 115 115 113 113 113 111 109 110 111
91 90 89 91 92 93 97 97 95 96 102 99 96 94 94 98 100 102 103 104 106 111 110 110 110 108 108 110 111 111 110 111 112 115 118 119 115 115 114 115 116 112 103 96
88 92 90 88 88 90 90 91 91 91 93 98 98 95 100 103 104 102 103 106 108 110 110 112 114 114 114 112 114 115 114 115 113 114 117 117 117 116 110 106 103 98 94 86
69 76 80 86 92 92 93 95 98 100 100 104 107 107 98 102 102 104 108 107 106 109 114 115 113 110 106 103 102 103 102 101 100 99 97 98 96 91 89 90 89 84 80 78
61 65 70 75 80 78 77 81 87 87 88 90 92 98 95 98 104 107 106 107 108 105 103 101 98 97 94 92 89 88 88 87 86 86 87 88 87 86 84 81 77 75 74 73
54 60 65 66 68 70 74 76 78 80 81 81 86 88 88 92 100 95 97 99 96 92 90 92 91 89 88 86 87 88 88 88 88 88 88 88 84 78 75 72 69 67 65 62
51 57 60 62 66 68 70 70 71 72 76 79 80 80 81 85 88 86 83 84 84 83 81 79 78 79 78 78 77 74 74 74 76 77 75 75 78 73 66 65 64 62 61 58
45 48 44 51 54 60 62 63 65 67 67 67 68 70 71 70 71 71 73 72 73 73 70 70 69 69 66 64 65 64 62 63 65 65 63 62 62 60 60 62 66 67 65 64
52 51 52 52 54 53 57 60 58 58 58 59 61 65 69 71 70 69 71 73 73 73 72 70 71 73 72 72 71 69 69 68 69 72 72 67 64 65 69 70 72 73 72 72
57 58 60 62 64 63 65 67 68 69 68 68 68 70 73 75 76 78 78 78 78 78 78 78 80 81 83 82 82 82 81 81 80 78 76 77 77 77 77 76 79 81 81 82
63 64 65 65 64 66 66 68 69 69 69 70 70 68 73 77 80 80 77 78 79 80 81 82 81 83 84 86 88 88 87 86 85 87 88 86 86 88 88 87 88 89 89 90
64 68 70 70 70 71 72 74 76 77 75 73 74 72 79 83 84 84 83 87 87 87 86 89 89 90 91 92 93 94 93 94 92 92 93 94 95 96 97 97 95 96 97 99
65 68 70 73 74 74 76 78 81 80 78 81 79 84 86 88 90 88 89 92 94 95 94 95 96 98 98 99 99 100 101 100 99 97 95 94 95 95 95 96 98 100 102 103
63 64 67 70 73 75 78 83 83 82 86 85 86 87 90 92 92 93 94 95 97 99 101 101 102 104 107 107 104 100 99 98 96 93 93 93 94 95 95 98 101 102 103 102
59 60 62 68 71 73 75 79 82 86 87 86 89 87 91 93 96 98 99 99 101 103 106 108 102 98 94 90 88 87 83 83 84 83 84 87 88 89 88 88 88 89 92 94
54 57 59 65 69 73 77 83 86 88 92 93 95 95 96 96 96 98 98 97 93 89 85 80 76 73 70 70 70 69 70 71 71 72 72 73 74 75 77 80 81 83 84 86
50 50 51 55 59 59 65 68 73 74 78 80 80 78 75 73 71 73 72 72 68 65 64 63 63 62 61 60 57 56 56 57 57 58 57 58 62 67 70 72 74 75 77 78
53 53 52 54 58 57 61 64 67 69 69 70 67 65 63 60 60 60 56 56 55 53 51 49 49 49 49 47 45 44 46 45 46 47 49 53 56 58 63 65 66 68 69 71
53 54 54 58 55 54 59 64 67 64 61 63 60 54 51 50 50 42 38 38 36 36 35 34 33 29 26 24 25 26 28 31 32 36 42 46 50 52 53 55 58 60 60 57
56 55 57 56 52 52 54 58 63 55 51 48 43 41 40 35 32 30 28 27 28 26 24 21 15 14 13 13 13 15 17 21 25 27 31 35 40 47 48 49 52 54 53 53
55 57 57 57 52 47 46 51 51 44 40 38 32 31 27 26 26 23 21 20 21 20 17 13 11 7 5 4 6 9 13 18 22 27 32 35 40 43 44 46 50 52 50 48
56 56 57 55 49 43 42 43 38 35 30 28 27 24 24 24 22 19 18 18 16 14 12 9 10 10 6 6 4 11 15 19 25 31 34 37 41 44 46 46 49 51 49 45
51 54 51 44 43 38 39 34 29 25 25 25 21 21 20 19 17 16 15 12 12 9 15 13 15 8 1 3 5 13 18 24 36 38 37 40 43 44 45 43 42 41 44 45
51 49 43 41 36 36 30 25 22 24 23 19 18 18 18 17 12 13 12 9 16 17 17 14 8 4 4 10 15 19 22 31 39 41 44 46 45 45 44 44 44 43 44 43
49 41 37 35 30 28 24 23 23 23 17 18 16 15 15 13 13 13 17 18 22 22 17 12 7 2 9 15 19 24 30 38 41 43 48 49 49 45 44 45 44 41 40 39

GFSCGP_250_spd_120.txt.gz
Wind_Speed
100 97 96 101 104 104 103 101 102 102 98 94 90 86 88 87 87 85 84 84 87 85 81 81 85 85 86 85 85 84 85 88 90 93 95 98 103 106 106 106 107 106 107 107
95 98 101 98 97 97 99 95 95 99 99 95 95 91 90 89 88 89 88 89 91 91 89 92 91 90 91 92 94 95 97 99 100 102 105 108 111 114 114 113 113 113 114 113
95 99 98 94 94 95 96 95 91 94 94 91 94 93 94 93 91 92 91 93 96 95 95 99 101 100 99 101 103 105 106 106 107 109 112 115 117 118 118 118 118 118 116 115
96 90 93 93 93 94 93 95 93 94 95 92 91 89 91 91 92 95 96 98 97 96 99 102 103 104 106 106 106 109 111 111 111 114 117 119 121 121 120 116 114 111 109 103
84 94 88 90 98 99 96 96 96 96 94 96 95 96 93 97 98 100 101 102 104 103 103 105 104 104 107 108 109 110 112 114 115 117 120 123 125 122 116 112 109 102 97 92
64 78 87 92 90 91 95 97 99 98 98 98 98 99 96 99 101 105 107 106 107 106 105 109 112 114 114 115 115 114 115 117 117 115 111 107 105 103 102 98 95 92 87 87
53 59 69 83 92 90 90 90 94 95 97 97 102 103 104 104 106 109 108 109 109 108 112 113 114 116 117 121 114 111 107 102 99 97 96 96 97 97 97 95 90 85 83 83
52 57 59 62 71 82 87 90 94 94 94 95 95 97 99 102 104 107 108 108 108 111 114 108 104 101 100 98 95 91 90 88 88 88 88 88 89 88 88 83 82 78 72 68
51 53 57 58 62 68 73 80 82 86 88 90 91 92 94 97 102 100 99 96 94 96 100 103 102 101 96 92 88 84 82 80 76 77 78 77 77 78 81 80 74 70 68 66
42 48 51 57 60 62 64 67 70 73 74 78 79 82 85 85 87 90 91 90 89 89 87 85 84 80 78 77 76 78 78 78 77 76 77 78 80 80 80 79 77 76 74 73
43 44 43 44 46 49 58 58 63 68 69 72 72 73 75 77 79 81 82 80 80 79 78 75 76 77 79 80 83 85 86 86 87 88 87 87 88 87 87 87 88 89 88 85
51 51 51 50 50 51 51 54 55 59 59 59 61 61 70 72 74 76 79 80 80 80 82 83 85 86 87 88 88 89 89 89 90 91 90 91 91 92 93 92 93 93 93 93
54 54 53 55 58 59 60 62 64 66 66 69 69 70 77 80 81 82 83 85 87 88 88 88 88 89 89 89 90 91 92 94 94 94 95 96 97 97 98 98 97 98 98 97
57 59 59 60 60 62 65 68 69 70 71 75 74 78 81 84 85 87 90 90 91 91 92 92 92 93 94 94 95 96 97 99 100 100 101 102 104 104 105 107 107 106 106 105
59 60 61 63 65 67 70 73 74 76 79 78 82 81 88 87 88 91 92 94 94 95 96 98 98 97 98 99 100 102 103 104 105 106 107 108 109 110 107 104 105 106 105 105
56 59 62 64 65 66 71 75 77 78 81 82 84 86 91 92 93 95 96 97 98 99 100 101 103 104 104 105 105 107 108 110 110 111 109 104 99 95 90 89 89 90 91 91
50 52 53 58 59 61 66 72 76 80 84 87 89 92 94 97 99 100 101 102 104 104 103 103 104 103 103 103 100 96 92 90 88 86 83 80 79 77 76 75 74 75 78 81
43 44 46 50 50 52 59 65 70 74 79 84 87 90 93 93 92 93 89 87 84 81 80 80 78 77 77 76 72 69 70 70 69 67 65 65 64 63 63 62 63 65 68 70
52 53 52 54 55 55 60 64 67 69 73 79 81 82 81 79 79 74 67 68 70 67 64 63 60 60 58 52 50 51 49 47 47 47 47 47 47 46 46 46 47 49 53 56
55 57 57 60 60 61 66 70 71 72 71 77 76 74 72 68 66 62 56 55 55 53 51 50 44 40 38 38 37 34 31 26 24 23 22 25 28 32 38 41 44 48 51 54
56 58 61 63 66 68 71 73 74 73 70 70 67 62 58 55 53 52 44 43 42 37 35 32 29 26 27 25 24 20 13 8 10 15 23 29 33 37 41 44 49 53 56 58
54 58 62 64 67 68 71 72 69 63 63 62 57 51 43 42 40 37 31 30 29 28 25 22 20 20 20 16 11 2 7 11 16 23 28 29 32 37 41 45 48 55 59 62
50 51 54 59 61 62 61 59 56 54 54 46 44 36 34 32 30 27 25 24 25 21 19 16 16 15 11 4 2 6 10 14 20 24 27 33 38 45 48 50 52 54 56 56
51 52 56 55 59 58 56 50 49 45 41 37 34 28 27 26 24 22 21 20 16 16 17 15 14 10 5 3 2 3 8 16 24 25 30 37 44 50 55 55 54 51 48 46
45 51 51 54 57 51 49 43 38 34 30 27 26 25 24 21 18 19 17 16 15 17 17 16 14 9 10 8 4 5 12 21 24 27 35 42 50 54 58 54 51 49 47 45
49 48 51 55 49 44 40 37 31 26 22 23 23 21 19 18 17 14 13 13 17 21 18 16 13 11 7 4 3 8 14 21 25 31 39 46 57 59 58 53 50 46 43 41

GFSCGP_250_spd_123.txt.gz
Wind_Speed
107 109 104 99 114 103 103 104 99 104 97 98 97 96 94 95 91 91 92 89 88 88 89 86 82 84 85 86 86 85 85 85 87 86 85 86 88 90 92 92 94 98 102 104
102 109 116 108 103 111 111 111 99 95 92 98 100 92 94 94 93 98 99 95 93 91 93 90 88 89 90 91 91 91 91 91 90 88 88 91 93 96 99 104 106 107 106 105
99 107 113 107 108 105 110 111 110 104 92 96 89 97 100 97 98 96 97 100 98 96 95 92 92 93 91 93 94 92 92 91 92 94 97 100 104 105 105 106 108 108 110 113
92 100 104 104 107 107 109 109 108 108 106 92 83 78 76 85 88 88 95 96 96 96 96 95 92 93 94 94 94 94 95 97 99 102 104 106 107 108 111 113 115 120 118 113
72 87 97 96 102 106 106 105 105 104 104 102 101 94 94 91 91 94 96 97 97 98 97 96 94 96 96 99 98 100 103 106 108 110 112 114 117 116 115 117 117 117 114 112
51 67 84 92 100 101 100 101 102 100 99 97 98 98 97 96 99 99 98 98 96 95 96 98 99 99 101 104 105 108 110 112 112 113 114 116 121 121 120 120 117 115 104 96
47 56 67 85 92 99 97 94 95 97 98 94 96 96 92 95 96 98 98 98 98 98 96 96 98 102 104 105 108 112 114 115 116 117 119 119 119 118 113 110 111 100 94 88
43 45 55 70 89 96 96 100 97 96 95 95 96 94 96 98 98 100 100 101 101 101 103 105 106 106 109 110 112 117 119 117 117 119 116 114 111 106 100 95 94 91 90 83
46 48 51 56 70 90 97 94 94 97 97 98 97 96 97 99 103 102 103 106 105 105 106 105 105 105 108 109 112 114 117 117 115 108 105 101 100 94 92 93 88 87 86 83
41 44 47 50 53 61 78 92 96 94 94 93 94 96 98 102 103 103 104 103 103 107 107 106 106 109 110 109 109 107 104 102 101 98 96 93 91 87 87 86 87 88 90 90
38 40 44 47 50 54 57 63 68 78 87 93 98 97 97 100 102 104 105 106 107 107 106 107 104 102 100 98 99 96 93 92 91 89 87 86 87 89 91 93 94 94 93 92
37 33 35 39 44 49 54 58 60 62 65 67 72 77 88 96 97 97 96 95 95 94 94 95 95 90 88 87 86 86 86 87 88 90 92 95 98 99 98 97 96 96 96 96
44 42 38 41 43 44 45 46 49 51 53 57 60 66 70 74 76 78 78 79 81 82 83 84 84 83 84 85 88 90 91 93 95 97 100 102 102 102 102 102 102 103 103 101
45 47 47 48 50 51 52 53 54 55 56 57 60 63 66 69 70 74 77 78 80 82 83 85 87 89 91 93 94 96 97 98 99 99 101 103 105 106 107 107 108 108 109 108
47 48 48 49 51 54 56 57 58 60 61 61 68 67 74 75 77 80 82 84 88 89 89 90 92 94 96 98 100 100 101 101 102 103 106 108 109 111 112 113 113 113 113 112
50 52 51 51 53 54 56 57 57 60 62 64 68 72 75 79 81 85 88 90 92 93 95 96 96 98 100 101 102 103 104 105 108 110 111 111 111 111 111 111 110 106 101 96
37 43 51 56 57 58 61 61 62 65 68 71 73 77 80 83 87 91 93 95 97 99 100 102 103 103 105 107 107 105 102 99 98 97 93 90 89 87 87 86 85 83 79 76
35 35 35 38 39 43 50 55 61 68 71 74 78 82 86 89 93 97 98 100 102 103 103 102 97 94 91 87 83 79 80 79 76 75 74 71 68 66 64 63 62 62 62 62
41 40 41 41 40 43 47 54 54 55 60 65 69 75 81 84 85 88 85 86 85 82 78 73 69 66 66 63 61 61 63 60 57 53 50 48 46 42 40 36 37 41 43 47
46 44 46 47 47 51 58 58 61 65 68 71 74 77 80 80 77 76 75 70 63 59 57 55 53 52 48 46 48 48 43 37 33 33 29 23 24 26 28 31 34 38 41 45
49 50 53 53 52 57 59 62 66 70 72 75 78 78 75 68 62 63 61 53 49 49 45 42 41 39 33 35 33 29 24 22 16 13 16 20 21 25 29 34 40 44 49 52
52 51 51 53 54 55 59 64 69 70 74 76 75 73 67 61 58 51 47 42 39 39 34 29 29 26 29 28 20 14 11 11 10 11 17 20 23 28 33 39 46 52 56 58
47 46 47 50 54 58 64 66 68 71 72 70 63 56 51 50 44 39 35 32 29 26 24 25 24 22 22 17 12 14 11 8 8 15 16 21 27 32 39 47 53 60 61 60
47 49 52 54 57 62 63 65 67 61 56 54 47 45 40 37 31 28 26 24 22 23 24 21 18 16 14 12 12 8 7 7 12 17 19 24 31 38 45 53 59 64 63 59
48 51 52 57 58 60 61 62 54 52 47 43 36 34 31 27 21 22 20 21 22 20 19 17 12 11 12 12 7 10 12 14 17 20 24 29 37 44 52 59 65 65 60 56
53 54 54 54 57 58 56 52 52 45 35 32 28 24 20 18 17 18 17 20 18 17 16 13 17 14 13 10 13 13 14 16 19 23 28 34 41 47 55 62 65 64 58 54

GFSCGP_250_spd_129.txt.gz
Wind_Speed
99 106 100 102 111 105 105 104 105 104 112 113 109 103 102 100 99 97 94 97 94 92 90 86 86 84 83 80 77 77 77 77 77 77 75 76 78 79 80 81 80 84 86 86
83 105 114 109 110 115 112 107 102 101 97 100 106 106 103 104 97 98 98 99 99 94 95 91 90 89 86 85 82 81 81 80 80 80 80 79 81 83 85 86 87 87 90 92
66 89 113 121 115 115 112 108 107 100 92 91 95 94 104 95 90 93 98 100 101 100 102 97 96 94 92 90 88 88 85 86 86 86 85 86 86 88 89 90 90 94 97 98
52 71 92 113 119 111 110 110 107 101 93 89 85 83 87 86 87 88 83 92 96 104 105 100 96 96 95 94 93 92 91 92 90 91 92 92 93 93 93 94 95 96 97 96
33 51 74 97 114 117 109 108 104 99 94 95 86 80 83 80 80 84 81 78 89 100 102 100 102 100 101 97 98 98 99 97 97 98 98 98 100 101 98 98 96 98 98 100
22 38 56 76 98 114 114 104 101 98 97 93 88 86 98 81 82 79 72 71 67 78 86 89 93 103 105 103 101 99 100 100 95 98 100 97 102 102 104 99 99 103 105 105
20 25 38 55 77 100 111 109 103 99 98 94 96 93 103 99 97 88 89 84 80 79 75 86 89 95 95 90 96 105 104 103 102 105 105 104 104 102 101 100 105 107 109 110
26 27 31 43 59 80 101 108 108 103 99 97 97 91 99 103 98 89 98 102 97 90 86 80 81 76 82 79 85 90 99 105 103 105 109 107 104 105 108 108 112 115 113 118
22 30 34 40 52 68 88 101 109 104 99 101 97 99 96 94 102 106 95 93 98 103 103 102 96 88 90 101 107 109 110 118 114 110 106 104 108 113 117 117 120 118 122 126
18 22 33 38 46 59 75 93 100 102 99 100 97 100 100 93 99 105 104 99 95 98 99 99 105 106 110 116 120 114 108 109 108 107 108 110 118 122 123 123 124 124 128 130
19 24 28 34 40 52 65 82 93 102 100 101 98 99 88 85 87 105 108 108 111 112 109 109 111 109 110 109 104 109 112 114 113 117 117 119 121 121 122 126 124 126 127 125
20 21 23 31 33 41 55 72 86 97 98 101 101 101 96 91 92 82 84 100 109 113 108 106 105 106 106 109 113 116 119 120 122 122 119 119 122 124 124 125 129 131 127 121
24 23 23 29 34 38 44 57 76 89 94 98 102 105 99 101 100 105 105 100 104 111 111 112 112 117 115 114 113 115 116 117 122 123 122 122 124 126 126 125 124 125 126 117
27 25 31 30 32 34 39 45 54 70 86 99 100 104 107 109 106 110 115 113 116 118 118 118 122 119 115 119 120 121 118 118 118 121 124 123 120 119 123 122 116 108 107 106
29 29 29 33 36 38 39 41 45 52 63 76 92 100 108 110 107 107 113 114 119 116 118 121 118 119 121 117 117 122 124 124 123 122 123 124 120 110 106 104 104 106 107 110
38 39 37 36 36 39 41 42 44 46 49 56 63 72 86 94 99 108 112 114 116 122 121 122 131 129 123 117 111 107 106 104 104 103 103 102 101 101 103 106 109 111 113 115
44 43 41 41 41 40 40 42 44 45 47 51 56 60 61 67 69 73 77 79 81 84 88 90 93 95 96 96 96 96 98 100 101 101 102 102 103 106 108 110 113 113 109 103
44 43 44 45 46 46 47 47 48 49 51 53 57 58 61 64 67 71 72 74 79 81 84 87 89 91 94 96 98 100 103 105 105 106 106 107 108 109 105 99 94 87 79 73
44 47 49 50 49 48 49 51 54 55 54 58 60 62 65 68 73 76 76 80 82 83 86 89 92 95 98 100 102 104 106 107 107 105 102 97 90 84 76 70 67 63 59 58
40 39 40 43 46 49 51 53 56 57 53 64 62 62 63 66 71 76 76 81 84 86 89 90 93 96 99 100 99 97 95 92 87 80 71 65 61 60 57 52 49 49 49 48
42 44 45 42 41 38 43 42 43 43 44 49 51 54 59 62 65 68 73 77 79 82 85 87 91 93 93 88 83 79 74 67 60 53 50 48 46 41 39 40 43 43 44 43
52 50 46 47 48 45 48 47 48 50 52 55 58 61 63 67 71 73 75 77 80 82 83 80 75 74 69 64 60 57 50 44 40 38 37 35 32 33 35 36 39 41 43 46
56 54 53 51 47 49 49 50 53 55 59 61 62 64 67 71 74 76 76 74 71 66 60 53 50 47 42 40 39 33 29 29 28 28 27 27 28 30 32 36 40 42 46 50
56 56 54 54 50 49 50 51 55 58 61 63 66 68 71 76 79 76 71 60 53 45 40 35 32 29 26 27 22 23 22 21 22 23 23 24 27 31 36 40 43 47 51 57
54 56 55 53 51 50 49 54 57 61 64 67 68 70 73 74 72 64 53 45 38 34 29 23 21 20 20 19 16 17 19 20 20 19 21 24 30 34 38 43 46 52 58 63
55 55 55 51 55 53 54 57 58 61 63 65 69 72 74 71 63 49 39 32 30 24 19 18 15 14 14 13 15 19 20 17 17 18 23 26 33 36 40 45 50 57 62 67

GFSCGP_250_spd_132.txt.gz
Wind_Speed
92 101 104 103 103 101 101 99 99 112 123 120 116 113 104 101 98 98 99 95 92 91 92 91 85 80 80 81 83 84 83 83 83 78 76 75 71 70 72 72 72 72 73 82
80 88 98 106 109 108 108 103 103 106 116 130 118 114 113 104 99 98 101 98 98 98 95 91 87 83 87 91 86 85 86 86 85 85 82 78 77 76 75 76 75 75 73 75
78 87 94 99 108 115 116 110 107 109 114 114 119 118 111 113 108 100 99 100 100 100 98 98 91 89 93 90 88 88 89 91 89 87 86 85 83 83 82 81 80 81 83 85
61 72 88 98 100 107 112 112 114 114 113 99 99 106 121 113 111 108 103 104 102 99 97 98 96 95 94 98 96 93 93 93 92 91 92 91 90 91 90 89 86 84 90 92
46 57 70 88 99 101 103 110 117 115 108 101 101 97 101 117 114 112 113 106 102 101 98 96 93 96 95 91 94 98 97 97 94 96 95 94 95 95 98 96 94 92 89 91
25 40 58 75 94 104 104 106 109 113 111 107 103 97 96 98 103 117 115 113 109 109 106 106 100 94 91 90 94 85 89 85 91 95 93 96 100 95 103 103 98 99 93 96
11 18 35 55 78 97 108 110 104 105 105 101 104 99 99 96 94 98 103 99 102 112 105 107 105 96 92 90 88 81 83 90 87 81 85 95 99 97 100 98 98 98 101 103
11 14 19 31 50 75 97 108 107 97 94 97 103 101 100 102 91 85 82 92 94 91 81 94 94 94 80 72 72 74 78 76 76 77 85 88 94 88 95 92 96 107 114 118
10 14 17 23 33 49 71 90 106 108 99 93 98 102 105 98 91 91 88 88 83 79 77 68 70 68 74 73 73 70 80 84 81 78 78 87 91 96 95 99 106 122 120 119
7 14 18 20 23 31 46 70 90 104 106 98 99 98 103 97 95 92 90 86 85 85 85 79 81 82 88 85 81 81 86 89 91 95 92 95 97 101 106 112 123 123 119 116
10 11 15 19 21 26 32 43 60 83 100 103 105 97 99 98 93 93 91 90 90 94 91 94 90 86 92 93 93 100 100 105 104 99 110 117 118 115 122 124 123 120 122 125
12 13 12 21 25 27 26 33 46 62 77 94 104 102 92 96 95 92 93 94 95 94 102 97 101 104 93 94 95 97 101 111 109 115 114 115 114 119 120 115 119 121 124 124
9 15 14 14 16 22 27 35 38 44 54 72 91 100 103 105 94 96 96 96 94 95 98 104 105 109 112 114 110 110 111 111 112 117 119 119 115 116 120 121 125 124 125 126
13 14 18 18 20 18 22 28 33 34 42 55 70 89 101 103 99 98 96 97 95 93 97 101 100 102 103 104 110 115 116 118 120 121 117 118 122 126 127 129 130 126 130 131
19 16 17 19 21 23 24 25 26 30 37 45 57 70 86 93 96 95 101 100 98 97 96 99 98 96 99 103 98 99 104 112 115 116 120 126 131 133 137 136 137 138 122 110
24 21 22 21 18 22 25 27 27 26 30 39 48 59 67 79 86 94 97 98 100 100 100 102 102 110 109 108 112 115 115 115 121 125 127 130 133 135 136 129 113 111 109 107
33 31 32 28 24 24 24 26 28 30 32 35 38 45 56 66 78 87 94 96 97 103 107 108 109 110 115 118 122 124 127 127 129 128 127 122 112 110 111 109 107 107 109 112
39 39 37 34 32 31 26 29 27 31 34 36 39 41 43 48 55 67 79 86 94 101 106 109 111 115 119 122 125 126 121 121 113 106 106 106 106 107 106 107 110 112 111 106
42 44 43 40 38 35 36 33 35 33 32 36 38 39 40 47 53 52 58 65 69 73 77 81 86 88 90 92 93 94 96 98 100 103 106 110 111 110 106 100 95 90 80 73
44 44 46 45 43 41 41 43 43 40 40 44 45 46 49 53 57 52 60 64 66 69 72 77 81 86 90 94 95 97 101 102 103 104 104 99 93 85 77 72 67 60 55 53
45 46 46 46 47 43 48 47 45 43 47 50 50 53 56 59 61 62 64 67 70 73 75 78 81 85 88 91 92 95 96 93 90 82 74 68 63 58 55 52 47 44 41 38
46 43 42 44 46 43 49 44 47 49 49 52 53 53 56 56 58 58 59 62 64 68 73 78 83 87 89 87 82 77 72 66 60 53 49 47 44 41 37 35 35 35 36 40
48 47 46 43 42 42 43 43 41 40 41 43 47 50 53 56 58 61 64 68 72 75 77 80 81 77 71 64 58 54 47 41 38 37 34 32 30 27 27 29 32 36 41 46
52 54 50 49 48 46 46 45 45 44 46 50 52 56 58 61 64 66 69 72 75 78 78 72 64 57 51 46 41 36 30 29 27 26 23 21 22 23 25 30 35 42 45 49
56 56 52 52 52 53 51 52 49 50 51 54 57 58 60 63 66 68 71 75 76 72 62 52 46 41 36 31 28 25 25 22 19 17 18 19 23 27 31 35 40 43 47 52
57 57 55 53 54 54 53 54 54 54 56 58 61 63 63 64 67 69 73 71 65 55 44 38 32 28 27 24 20 19 17 13 14 15 18 21 25 27 32 35 40 45 52 59